<?xml version="1.0" encoding="UTF-8" standalone="no" ?>
<gpx xmlns="http://www.topografix.com/GPX/1/1" xmlns:xsi="http://www.w3.org/2001/XMLSchema-instance" xsi:schemaLocation="http://www.topografix.com/GPX/1/1 http://www.topografix.com/GPX/1/1/gpx.xsd" version="1.1" creator="VisuGPX - https://www.visugpx.com">
  <metadata>
    <name>Du lac de la Tueda au refuge du Saut</name>
    <desc><![CDATA[Randonnée pédestre assez facile, du lac de la Tueda (hameau de Méribel-Mottaret) jusqu'au refuge du Saut.
Petit ajout direction col de Chanrouge et redescente avec la variante ouest vers le Mottaret, par la forêt.]]></desc>
  </metadata>
  <trk>
    <name><![CDATA[Du lac de la Tueda au refuge du Saut_1]]></name>
    <trkseg>
      <trkpt lat="45.3678" lon="6.58474">
        <ele>1691</ele>
        <time>2020-07-21T07:09:38Z</time>
      </trkpt>
      <trkpt lat="45.36774" lon="6.58478">
        <ele>1691</ele>
        <time>2020-07-21T07:09:45Z</time>
      </trkpt>
      <trkpt lat="45.36767" lon="6.5848">
        <ele>1691</ele>
        <time>2020-07-21T07:09:52Z</time>
      </trkpt>
      <trkpt lat="45.3676" lon="6.58482">
        <ele>1691</ele>
        <time>2020-07-21T07:09:58Z</time>
      </trkpt>
      <trkpt lat="45.36753" lon="6.58486">
        <ele>1691</ele>
        <time>2020-07-21T07:10:05Z</time>
      </trkpt>
      <trkpt lat="45.36747" lon="6.58483">
        <ele>1693</ele>
        <time>2020-07-21T07:10:11Z</time>
      </trkpt>
      <trkpt lat="45.36741" lon="6.58481">
        <ele>1693</ele>
        <time>2020-07-21T07:10:17Z</time>
      </trkpt>
      <trkpt lat="45.36735" lon="6.58485">
        <ele>1693</ele>
        <time>2020-07-21T07:10:24Z</time>
      </trkpt>
      <trkpt lat="45.36729" lon="6.5849">
        <ele>1694</ele>
        <time>2020-07-21T07:10:32Z</time>
      </trkpt>
      <trkpt lat="45.36722" lon="6.58494">
        <ele>1694</ele>
        <time>2020-07-21T07:10:38Z</time>
      </trkpt>
      <trkpt lat="45.36715" lon="6.58497">
        <ele>1694</ele>
        <time>2020-07-21T07:10:45Z</time>
      </trkpt>
      <trkpt lat="45.3671" lon="6.58505">
        <ele>1697</ele>
        <time>2020-07-21T07:10:52Z</time>
      </trkpt>
      <trkpt lat="45.36704" lon="6.5851">
        <ele>1697</ele>
        <time>2020-07-21T07:10:59Z</time>
      </trkpt>
      <trkpt lat="45.36699" lon="6.58517">
        <ele>1698</ele>
        <time>2020-07-21T07:11:06Z</time>
      </trkpt>
      <trkpt lat="45.36694" lon="6.58523">
        <ele>1698</ele>
        <time>2020-07-21T07:11:12Z</time>
      </trkpt>
      <trkpt lat="45.36689" lon="6.58532">
        <ele>1698</ele>
        <time>2020-07-21T07:11:18Z</time>
      </trkpt>
      <trkpt lat="45.36685" lon="6.58539">
        <ele>1699</ele>
        <time>2020-07-21T07:11:23Z</time>
      </trkpt>
      <trkpt lat="45.36679" lon="6.58545">
        <ele>1700</ele>
        <time>2020-07-21T07:11:30Z</time>
      </trkpt>
      <trkpt lat="45.36673" lon="6.58549">
        <ele>1700</ele>
        <time>2020-07-21T07:11:37Z</time>
      </trkpt>
      <trkpt lat="45.36667" lon="6.58554">
        <ele>1701</ele>
        <time>2020-07-21T07:11:44Z</time>
      </trkpt>
      <trkpt lat="45.3666" lon="6.58554">
        <ele>1703</ele>
        <time>2020-07-21T07:11:51Z</time>
      </trkpt>
      <trkpt lat="45.36653" lon="6.58553">
        <ele>1703</ele>
        <time>2020-07-21T07:11:57Z</time>
      </trkpt>
      <trkpt lat="45.36645" lon="6.58553">
        <ele>1704</ele>
        <time>2020-07-21T07:12:05Z</time>
      </trkpt>
      <trkpt lat="45.36638" lon="6.58554">
        <ele>1704</ele>
        <time>2020-07-21T07:12:11Z</time>
      </trkpt>
      <trkpt lat="45.3663" lon="6.58554">
        <ele>1704</ele>
        <time>2020-07-21T07:12:18Z</time>
      </trkpt>
      <trkpt lat="45.36624" lon="6.58551">
        <ele>1704</ele>
        <time>2020-07-21T07:12:24Z</time>
      </trkpt>
      <trkpt lat="45.36617" lon="6.58552">
        <ele>1705</ele>
        <time>2020-07-21T07:12:33Z</time>
      </trkpt>
      <trkpt lat="45.3661" lon="6.58552">
        <ele>1705</ele>
        <time>2020-07-21T07:12:40Z</time>
      </trkpt>
      <trkpt lat="45.36604" lon="6.58553">
        <ele>1706</ele>
        <time>2020-07-21T07:12:48Z</time>
      </trkpt>
      <trkpt lat="45.36597" lon="6.58548">
        <ele>1706</ele>
        <time>2020-07-21T07:12:54Z</time>
      </trkpt>
      <trkpt lat="45.3659" lon="6.58544">
        <ele>1706</ele>
        <time>2020-07-21T07:13:01Z</time>
      </trkpt>
      <trkpt lat="45.36584" lon="6.58539">
        <ele>1706</ele>
        <time>2020-07-21T07:13:08Z</time>
      </trkpt>
      <trkpt lat="45.36577" lon="6.5854">
        <ele>1709</ele>
        <time>2020-07-21T07:13:35Z</time>
      </trkpt>
      <trkpt lat="45.3657" lon="6.58539">
        <ele>1709</ele>
        <time>2020-07-21T07:13:43Z</time>
      </trkpt>
      <trkpt lat="45.36563" lon="6.5854">
        <ele>1709</ele>
        <time>2020-07-21T07:13:51Z</time>
      </trkpt>
      <trkpt lat="45.36556" lon="6.58538">
        <ele>1709</ele>
        <time>2020-07-21T07:13:58Z</time>
      </trkpt>
      <trkpt lat="45.3655" lon="6.58536">
        <ele>1709</ele>
        <time>2020-07-21T07:14:06Z</time>
      </trkpt>
      <trkpt lat="45.36543" lon="6.58536">
        <ele>1709</ele>
        <time>2020-07-21T07:14:14Z</time>
      </trkpt>
      <trkpt lat="45.36537" lon="6.58537">
        <ele>1710</ele>
        <time>2020-07-21T07:14:19Z</time>
      </trkpt>
      <trkpt lat="45.3653" lon="6.58539">
        <ele>1710</ele>
        <time>2020-07-21T07:14:25Z</time>
      </trkpt>
      <trkpt lat="45.36524" lon="6.58543">
        <ele>1710</ele>
        <time>2020-07-21T07:14:32Z</time>
      </trkpt>
      <trkpt lat="45.36516" lon="6.58543">
        <ele>1710</ele>
        <time>2020-07-21T07:14:39Z</time>
      </trkpt>
      <trkpt lat="45.36509" lon="6.58541">
        <ele>1710</ele>
        <time>2020-07-21T07:14:45Z</time>
      </trkpt>
      <trkpt lat="45.36503" lon="6.58545">
        <ele>1710</ele>
        <time>2020-07-21T07:14:52Z</time>
      </trkpt>
      <trkpt lat="45.36495" lon="6.58546">
        <ele>1709</ele>
        <time>2020-07-21T07:14:59Z</time>
      </trkpt>
      <trkpt lat="45.36489" lon="6.5855">
        <ele>1709</ele>
        <time>2020-07-21T07:15:06Z</time>
      </trkpt>
      <trkpt lat="45.36482" lon="6.58552">
        <ele>1708</ele>
        <time>2020-07-21T07:15:13Z</time>
      </trkpt>
      <trkpt lat="45.36476" lon="6.58553">
        <ele>1708</ele>
        <time>2020-07-21T07:15:19Z</time>
      </trkpt>
      <trkpt lat="45.3647" lon="6.58557">
        <ele>1708</ele>
        <time>2020-07-21T07:15:26Z</time>
      </trkpt>
      <trkpt lat="45.36463" lon="6.58558">
        <ele>1708</ele>
        <time>2020-07-21T07:15:33Z</time>
      </trkpt>
      <trkpt lat="45.36456" lon="6.5856">
        <ele>1707</ele>
        <time>2020-07-21T07:15:39Z</time>
      </trkpt>
      <trkpt lat="45.36449" lon="6.58559">
        <ele>1707</ele>
        <time>2020-07-21T07:15:45Z</time>
      </trkpt>
      <trkpt lat="45.36442" lon="6.58557">
        <ele>1707</ele>
        <time>2020-07-21T07:15:52Z</time>
      </trkpt>
      <trkpt lat="45.36436" lon="6.58552">
        <ele>1707</ele>
        <time>2020-07-21T07:15:58Z</time>
      </trkpt>
      <trkpt lat="45.3643" lon="6.58549">
        <ele>1707</ele>
        <time>2020-07-21T07:16:06Z</time>
      </trkpt>
      <trkpt lat="45.36424" lon="6.58544">
        <ele>1707</ele>
        <time>2020-07-21T07:16:12Z</time>
      </trkpt>
      <trkpt lat="45.36417" lon="6.58539">
        <ele>1707</ele>
        <time>2020-07-21T07:16:18Z</time>
      </trkpt>
      <trkpt lat="45.36411" lon="6.58535">
        <ele>1705</ele>
        <time>2020-07-21T07:16:24Z</time>
      </trkpt>
      <trkpt lat="45.36405" lon="6.5853">
        <ele>1705</ele>
        <time>2020-07-21T07:16:30Z</time>
      </trkpt>
      <trkpt lat="45.36398" lon="6.58527">
        <ele>1705</ele>
        <time>2020-07-21T07:16:37Z</time>
      </trkpt>
      <trkpt lat="45.36391" lon="6.58525">
        <ele>1705</ele>
        <time>2020-07-21T07:16:44Z</time>
      </trkpt>
      <trkpt lat="45.36385" lon="6.5852">
        <ele>1705</ele>
        <time>2020-07-21T07:16:51Z</time>
      </trkpt>
      <trkpt lat="45.36378" lon="6.58517">
        <ele>1704</ele>
        <time>2020-07-21T07:16:56Z</time>
      </trkpt>
      <trkpt lat="45.36372" lon="6.58514">
        <ele>1704</ele>
        <time>2020-07-21T07:17:02Z</time>
      </trkpt>
      <trkpt lat="45.36365" lon="6.58512">
        <ele>1704</ele>
        <time>2020-07-21T07:17:09Z</time>
      </trkpt>
      <trkpt lat="45.36358" lon="6.5851">
        <ele>1704</ele>
        <time>2020-07-21T07:17:15Z</time>
      </trkpt>
      <trkpt lat="45.36352" lon="6.58509">
        <ele>1704</ele>
        <time>2020-07-21T07:17:21Z</time>
      </trkpt>
      <trkpt lat="45.36345" lon="6.58507">
        <ele>1703</ele>
        <time>2020-07-21T07:17:27Z</time>
      </trkpt>
      <trkpt lat="45.36337" lon="6.58507">
        <ele>1703</ele>
        <time>2020-07-21T07:17:34Z</time>
      </trkpt>
      <trkpt lat="45.36331" lon="6.58507">
        <ele>1703</ele>
        <time>2020-07-21T07:17:40Z</time>
      </trkpt>
      <trkpt lat="45.36325" lon="6.58511">
        <ele>1703</ele>
        <time>2020-07-21T07:17:46Z</time>
      </trkpt>
      <trkpt lat="45.36325" lon="6.58521">
        <ele>1702</ele>
        <time>2020-07-21T07:17:51Z</time>
      </trkpt>
      <trkpt lat="45.36327" lon="6.58531">
        <ele>1702</ele>
        <time>2020-07-21T07:17:57Z</time>
      </trkpt>
      <trkpt lat="45.36321" lon="6.58534">
        <ele>1702</ele>
        <time>2020-07-21T07:18:39Z</time>
      </trkpt>
      <trkpt lat="45.36313" lon="6.58533">
        <ele>1702</ele>
        <time>2020-07-21T07:18:47Z</time>
      </trkpt>
      <trkpt lat="45.36308" lon="6.58527">
        <ele>1702</ele>
        <time>2020-07-21T07:18:52Z</time>
      </trkpt>
      <trkpt lat="45.36303" lon="6.58532">
        <ele>1702</ele>
        <time>2020-07-21T07:19:16Z</time>
      </trkpt>
      <trkpt lat="45.36296" lon="6.5853">
        <ele>1702</ele>
        <time>2020-07-21T07:20:26Z</time>
      </trkpt>
      <trkpt lat="45.36288" lon="6.5853">
        <ele>1702</ele>
        <time>2020-07-21T07:21:41Z</time>
      </trkpt>
      <trkpt lat="45.36281" lon="6.58533">
        <ele>1702</ele>
        <time>2020-07-21T07:21:47Z</time>
      </trkpt>
      <trkpt lat="45.36274" lon="6.58535">
        <ele>1702</ele>
        <time>2020-07-21T07:21:53Z</time>
      </trkpt>
      <trkpt lat="45.36268" lon="6.58536">
        <ele>1702</ele>
        <time>2020-07-21T07:22:01Z</time>
      </trkpt>
      <trkpt lat="45.36261" lon="6.58539">
        <ele>1702</ele>
        <time>2020-07-21T07:22:08Z</time>
      </trkpt>
      <trkpt lat="45.36254" lon="6.58543">
        <ele>1702</ele>
        <time>2020-07-21T07:22:14Z</time>
      </trkpt>
      <trkpt lat="45.36248" lon="6.58548">
        <ele>1705</ele>
        <time>2020-07-21T07:22:20Z</time>
      </trkpt>
      <trkpt lat="45.36242" lon="6.58552">
        <ele>1705</ele>
        <time>2020-07-21T07:22:26Z</time>
      </trkpt>
      <trkpt lat="45.36236" lon="6.58555">
        <ele>1705</ele>
        <time>2020-07-21T07:22:33Z</time>
      </trkpt>
      <trkpt lat="45.3623" lon="6.58561">
        <ele>1705</ele>
        <time>2020-07-21T07:22:40Z</time>
      </trkpt>
      <trkpt lat="45.36224" lon="6.58567">
        <ele>1705</ele>
        <time>2020-07-21T07:22:46Z</time>
      </trkpt>
      <trkpt lat="45.36219" lon="6.58574">
        <ele>1705</ele>
        <time>2020-07-21T07:22:53Z</time>
      </trkpt>
      <trkpt lat="45.36213" lon="6.58579">
        <ele>1705</ele>
        <time>2020-07-21T07:23:00Z</time>
      </trkpt>
      <trkpt lat="45.36206" lon="6.58582">
        <ele>1705</ele>
        <time>2020-07-21T07:23:07Z</time>
      </trkpt>
      <trkpt lat="45.36201" lon="6.5859">
        <ele>1703</ele>
        <time>2020-07-21T07:23:13Z</time>
      </trkpt>
      <trkpt lat="45.36195" lon="6.58596">
        <ele>1703</ele>
        <time>2020-07-21T07:23:20Z</time>
      </trkpt>
      <trkpt lat="45.36189" lon="6.58603">
        <ele>1703</ele>
        <time>2020-07-21T07:23:26Z</time>
      </trkpt>
      <trkpt lat="45.36186" lon="6.58611">
        <ele>1703</ele>
        <time>2020-07-21T07:23:32Z</time>
      </trkpt>
      <trkpt lat="45.36182" lon="6.58619">
        <ele>1703</ele>
        <time>2020-07-21T07:23:38Z</time>
      </trkpt>
      <trkpt lat="45.36177" lon="6.58626">
        <ele>1702</ele>
        <time>2020-07-21T07:23:45Z</time>
      </trkpt>
      <trkpt lat="45.36173" lon="6.58634">
        <ele>1702</ele>
        <time>2020-07-21T07:23:51Z</time>
      </trkpt>
      <trkpt lat="45.36169" lon="6.58642">
        <ele>1702</ele>
        <time>2020-07-21T07:23:57Z</time>
      </trkpt>
      <trkpt lat="45.36166" lon="6.58651">
        <ele>1704</ele>
        <time>2020-07-21T07:24:03Z</time>
      </trkpt>
      <trkpt lat="45.36163" lon="6.5866">
        <ele>1702</ele>
        <time>2020-07-21T07:24:10Z</time>
      </trkpt>
      <trkpt lat="45.36158" lon="6.58667">
        <ele>1701</ele>
        <time>2020-07-21T07:24:16Z</time>
      </trkpt>
      <trkpt lat="45.36153" lon="6.58673">
        <ele>1702</ele>
        <time>2020-07-21T07:24:22Z</time>
      </trkpt>
      <trkpt lat="45.36148" lon="6.58679">
        <ele>1702</ele>
        <time>2020-07-21T07:24:28Z</time>
      </trkpt>
      <trkpt lat="45.36143" lon="6.58685">
        <ele>1702</ele>
        <time>2020-07-21T07:24:34Z</time>
      </trkpt>
      <trkpt lat="45.36138" lon="6.58693">
        <ele>1703</ele>
        <time>2020-07-21T07:24:40Z</time>
      </trkpt>
      <trkpt lat="45.36134" lon="6.58701">
        <ele>1703</ele>
        <time>2020-07-21T07:24:46Z</time>
      </trkpt>
      <trkpt lat="45.36131" lon="6.5871">
        <ele>1703</ele>
        <time>2020-07-21T07:24:52Z</time>
      </trkpt>
      <trkpt lat="45.36126" lon="6.58718">
        <ele>1703</ele>
        <time>2020-07-21T07:24:59Z</time>
      </trkpt>
      <trkpt lat="45.36122" lon="6.58726">
        <ele>1703</ele>
        <time>2020-07-21T07:25:05Z</time>
      </trkpt>
      <trkpt lat="45.36117" lon="6.58732">
        <ele>1703</ele>
        <time>2020-07-21T07:25:12Z</time>
      </trkpt>
      <trkpt lat="45.36111" lon="6.58737">
        <ele>1703</ele>
        <time>2020-07-21T07:25:18Z</time>
      </trkpt>
      <trkpt lat="45.36106" lon="6.58743">
        <ele>1703</ele>
        <time>2020-07-21T07:25:24Z</time>
      </trkpt>
      <trkpt lat="45.361" lon="6.58749">
        <ele>1703</ele>
        <time>2020-07-21T07:25:31Z</time>
      </trkpt>
      <trkpt lat="45.36095" lon="6.58757">
        <ele>1704</ele>
        <time>2020-07-21T07:25:37Z</time>
      </trkpt>
      <trkpt lat="45.36093" lon="6.58766">
        <ele>1704</ele>
        <time>2020-07-21T07:25:43Z</time>
      </trkpt>
      <trkpt lat="45.36091" lon="6.58776">
        <ele>1704</ele>
        <time>2020-07-21T07:25:50Z</time>
      </trkpt>
      <trkpt lat="45.3609" lon="6.58787">
        <ele>1704</ele>
        <time>2020-07-21T07:25:56Z</time>
      </trkpt>
      <trkpt lat="45.36088" lon="6.58797">
        <ele>1705</ele>
        <time>2020-07-21T07:26:03Z</time>
      </trkpt>
      <trkpt lat="45.36082" lon="6.58801">
        <ele>1705</ele>
        <time>2020-07-21T07:26:09Z</time>
      </trkpt>
      <trkpt lat="45.36075" lon="6.58806">
        <ele>1705</ele>
        <time>2020-07-21T07:26:15Z</time>
      </trkpt>
      <trkpt lat="45.36069" lon="6.58812">
        <ele>1705</ele>
        <time>2020-07-21T07:26:22Z</time>
      </trkpt>
      <trkpt lat="45.36063" lon="6.58816">
        <ele>1706</ele>
        <time>2020-07-21T07:26:28Z</time>
      </trkpt>
      <trkpt lat="45.36057" lon="6.58821">
        <ele>1706</ele>
        <time>2020-07-21T07:26:34Z</time>
      </trkpt>
      <trkpt lat="45.36051" lon="6.58826">
        <ele>1706</ele>
        <time>2020-07-21T07:26:40Z</time>
      </trkpt>
      <trkpt lat="45.36045" lon="6.58834">
        <ele>1708</ele>
        <time>2020-07-21T07:26:46Z</time>
      </trkpt>
      <trkpt lat="45.36038" lon="6.58838">
        <ele>1708</ele>
        <time>2020-07-21T07:26:53Z</time>
      </trkpt>
      <trkpt lat="45.36032" lon="6.58846">
        <ele>1708</ele>
        <time>2020-07-21T07:27:00Z</time>
      </trkpt>
      <trkpt lat="45.36026" lon="6.58849">
        <ele>1708</ele>
        <time>2020-07-21T07:27:07Z</time>
      </trkpt>
      <trkpt lat="45.36019" lon="6.5885">
        <ele>1708</ele>
        <time>2020-07-21T07:27:13Z</time>
      </trkpt>
      <trkpt lat="45.36013" lon="6.58854">
        <ele>1708</ele>
        <time>2020-07-21T07:27:20Z</time>
      </trkpt>
      <trkpt lat="45.36007" lon="6.5886">
        <ele>1708</ele>
        <time>2020-07-21T07:27:27Z</time>
      </trkpt>
      <trkpt lat="45.36002" lon="6.58867">
        <ele>1709</ele>
        <time>2020-07-21T07:27:34Z</time>
      </trkpt>
      <trkpt lat="45.35996" lon="6.58872">
        <ele>1707</ele>
        <time>2020-07-21T07:27:41Z</time>
      </trkpt>
      <trkpt lat="45.35991" lon="6.58879">
        <ele>1708</ele>
        <time>2020-07-21T07:27:47Z</time>
      </trkpt>
      <trkpt lat="45.35986" lon="6.58885">
        <ele>1708</ele>
        <time>2020-07-21T07:27:53Z</time>
      </trkpt>
      <trkpt lat="45.3598" lon="6.5889">
        <ele>1708</ele>
        <time>2020-07-21T07:27:59Z</time>
      </trkpt>
      <trkpt lat="45.35975" lon="6.58896">
        <ele>1708</ele>
        <time>2020-07-21T07:28:05Z</time>
      </trkpt>
      <trkpt lat="45.3597" lon="6.58901">
        <ele>1708</ele>
        <time>2020-07-21T07:28:11Z</time>
      </trkpt>
      <trkpt lat="45.35964" lon="6.58906">
        <ele>1708</ele>
        <time>2020-07-21T07:28:17Z</time>
      </trkpt>
      <trkpt lat="45.35959" lon="6.58912">
        <ele>1707</ele>
        <time>2020-07-21T07:28:24Z</time>
      </trkpt>
      <trkpt lat="45.35955" lon="6.5892">
        <ele>1711</ele>
        <time>2020-07-21T07:28:30Z</time>
      </trkpt>
      <trkpt lat="45.35951" lon="6.58928">
        <ele>1711</ele>
        <time>2020-07-21T07:28:36Z</time>
      </trkpt>
      <trkpt lat="45.35948" lon="6.58938">
        <ele>1711</ele>
        <time>2020-07-21T07:28:42Z</time>
      </trkpt>
      <trkpt lat="45.35944" lon="6.58947">
        <ele>1712</ele>
        <time>2020-07-21T07:28:49Z</time>
      </trkpt>
      <trkpt lat="45.3594" lon="6.58955">
        <ele>1712</ele>
        <time>2020-07-21T07:28:55Z</time>
      </trkpt>
      <trkpt lat="45.35937" lon="6.58963">
        <ele>1712</ele>
        <time>2020-07-21T07:29:01Z</time>
      </trkpt>
      <trkpt lat="45.35933" lon="6.5897">
        <ele>1712</ele>
        <time>2020-07-21T07:29:07Z</time>
      </trkpt>
      <trkpt lat="45.35928" lon="6.58979">
        <ele>1712</ele>
        <time>2020-07-21T07:29:14Z</time>
      </trkpt>
      <trkpt lat="45.35923" lon="6.58986">
        <ele>1712</ele>
        <time>2020-07-21T07:29:20Z</time>
      </trkpt>
      <trkpt lat="45.35919" lon="6.58993">
        <ele>1711</ele>
        <time>2020-07-21T07:29:26Z</time>
      </trkpt>
      <trkpt lat="45.35913" lon="6.58999">
        <ele>1709</ele>
        <time>2020-07-21T07:29:33Z</time>
      </trkpt>
      <trkpt lat="45.35907" lon="6.59005">
        <ele>1710</ele>
        <time>2020-07-21T07:29:39Z</time>
      </trkpt>
      <trkpt lat="45.35902" lon="6.59011">
        <ele>1711</ele>
        <time>2020-07-21T07:29:46Z</time>
      </trkpt>
      <trkpt lat="45.35897" lon="6.59018">
        <ele>1711</ele>
        <time>2020-07-21T07:29:53Z</time>
      </trkpt>
      <trkpt lat="45.35891" lon="6.59024">
        <ele>1711</ele>
        <time>2020-07-21T07:30:01Z</time>
      </trkpt>
      <trkpt lat="45.35886" lon="6.59031">
        <ele>1711</ele>
        <time>2020-07-21T07:30:10Z</time>
      </trkpt>
      <trkpt lat="45.35887" lon="6.59042">
        <ele>1712</ele>
        <time>2020-07-21T07:33:40Z</time>
      </trkpt>
      <trkpt lat="45.35891" lon="6.59051">
        <ele>1713</ele>
        <time>2020-07-21T07:33:46Z</time>
      </trkpt>
      <trkpt lat="45.35889" lon="6.59061">
        <ele>1713</ele>
        <time>2020-07-21T07:33:54Z</time>
      </trkpt>
      <trkpt lat="45.35888" lon="6.5907">
        <ele>1714</ele>
        <time>2020-07-21T07:34:01Z</time>
      </trkpt>
      <trkpt lat="45.35885" lon="6.59079">
        <ele>1714</ele>
        <time>2020-07-21T07:34:09Z</time>
      </trkpt>
      <trkpt lat="45.35884" lon="6.59088">
        <ele>1719</ele>
        <time>2020-07-21T07:34:17Z</time>
      </trkpt>
      <trkpt lat="45.35885" lon="6.59098">
        <ele>1719</ele>
        <time>2020-07-21T07:34:25Z</time>
      </trkpt>
      <trkpt lat="45.35887" lon="6.59106">
        <ele>1719</ele>
        <time>2020-07-21T07:34:32Z</time>
      </trkpt>
      <trkpt lat="45.35891" lon="6.59116">
        <ele>1720</ele>
        <time>2020-07-21T07:34:39Z</time>
      </trkpt>
      <trkpt lat="45.35896" lon="6.59123">
        <ele>1721</ele>
        <time>2020-07-21T07:34:45Z</time>
      </trkpt>
      <trkpt lat="45.35901" lon="6.59131">
        <ele>1722</ele>
        <time>2020-07-21T07:34:53Z</time>
      </trkpt>
      <trkpt lat="45.35904" lon="6.59139">
        <ele>1723</ele>
        <time>2020-07-21T07:35:01Z</time>
      </trkpt>
      <trkpt lat="45.35907" lon="6.59147">
        <ele>1725</ele>
        <time>2020-07-21T07:35:08Z</time>
      </trkpt>
      <trkpt lat="45.35905" lon="6.59157">
        <ele>1727</ele>
        <time>2020-07-21T07:35:16Z</time>
      </trkpt>
      <trkpt lat="45.35902" lon="6.59166">
        <ele>1727</ele>
        <time>2020-07-21T07:35:25Z</time>
      </trkpt>
      <trkpt lat="45.35901" lon="6.59176">
        <ele>1733</ele>
        <time>2020-07-21T07:35:33Z</time>
      </trkpt>
      <trkpt lat="45.35897" lon="6.59184">
        <ele>1733</ele>
        <time>2020-07-21T07:35:41Z</time>
      </trkpt>
      <trkpt lat="45.35892" lon="6.59192">
        <ele>1733</ele>
        <time>2020-07-21T07:35:51Z</time>
      </trkpt>
      <trkpt lat="45.35887" lon="6.59198">
        <ele>1733</ele>
        <time>2020-07-21T07:35:59Z</time>
      </trkpt>
      <trkpt lat="45.35884" lon="6.59207">
        <ele>1734</ele>
        <time>2020-07-21T07:36:07Z</time>
      </trkpt>
      <trkpt lat="45.35878" lon="6.59213">
        <ele>1734</ele>
        <time>2020-07-21T07:36:15Z</time>
      </trkpt>
      <trkpt lat="45.35873" lon="6.59219">
        <ele>1733</ele>
        <time>2020-07-21T07:36:22Z</time>
      </trkpt>
      <trkpt lat="45.35866" lon="6.59224">
        <ele>1733</ele>
        <time>2020-07-21T07:36:29Z</time>
      </trkpt>
      <trkpt lat="45.3586" lon="6.59228">
        <ele>1732</ele>
        <time>2020-07-21T07:36:36Z</time>
      </trkpt>
      <trkpt lat="45.35853" lon="6.59231">
        <ele>1732</ele>
        <time>2020-07-21T07:36:43Z</time>
      </trkpt>
      <trkpt lat="45.35847" lon="6.59234">
        <ele>1731</ele>
        <time>2020-07-21T07:36:50Z</time>
      </trkpt>
      <trkpt lat="45.35841" lon="6.5924">
        <ele>1730</ele>
        <time>2020-07-21T07:36:58Z</time>
      </trkpt>
      <trkpt lat="45.35836" lon="6.59246">
        <ele>1730</ele>
        <time>2020-07-21T07:37:04Z</time>
      </trkpt>
      <trkpt lat="45.35832" lon="6.59254">
        <ele>1730</ele>
        <time>2020-07-21T07:37:19Z</time>
      </trkpt>
      <trkpt lat="45.35828" lon="6.59261">
        <ele>1731</ele>
        <time>2020-07-21T07:37:27Z</time>
      </trkpt>
      <trkpt lat="45.35824" lon="6.59269">
        <ele>1731</ele>
        <time>2020-07-21T07:37:33Z</time>
      </trkpt>
      <trkpt lat="45.35822" lon="6.59279">
        <ele>1733</ele>
        <time>2020-07-21T07:37:39Z</time>
      </trkpt>
      <trkpt lat="45.35823" lon="6.59289">
        <ele>1734</ele>
        <time>2020-07-21T07:37:44Z</time>
      </trkpt>
      <trkpt lat="45.35822" lon="6.59298">
        <ele>1736</ele>
        <time>2020-07-21T07:37:49Z</time>
      </trkpt>
      <trkpt lat="45.3582" lon="6.59307">
        <ele>1737</ele>
        <time>2020-07-21T07:37:57Z</time>
      </trkpt>
      <trkpt lat="45.35819" lon="6.59317">
        <ele>1739</ele>
        <time>2020-07-21T07:38:04Z</time>
      </trkpt>
      <trkpt lat="45.35812" lon="6.59319">
        <ele>1738</ele>
        <time>2020-07-21T07:38:10Z</time>
      </trkpt>
      <trkpt lat="45.35805" lon="6.59315">
        <ele>1737</ele>
        <time>2020-07-21T07:38:18Z</time>
      </trkpt>
      <trkpt lat="45.35798" lon="6.59313">
        <ele>1736</ele>
        <time>2020-07-21T07:38:25Z</time>
      </trkpt>
      <trkpt lat="45.35792" lon="6.59316">
        <ele>1736</ele>
        <time>2020-07-21T07:38:32Z</time>
      </trkpt>
      <trkpt lat="45.35793" lon="6.59325">
        <ele>1736</ele>
        <time>2020-07-21T07:38:41Z</time>
      </trkpt>
      <trkpt lat="45.35793" lon="6.59335">
        <ele>1748</ele>
        <time>2020-07-21T07:38:47Z</time>
      </trkpt>
      <trkpt lat="45.35792" lon="6.59346">
        <ele>1749</ele>
        <time>2020-07-21T07:38:54Z</time>
      </trkpt>
      <trkpt lat="45.3579" lon="6.59356">
        <ele>1749</ele>
        <time>2020-07-21T07:39:02Z</time>
      </trkpt>
      <trkpt lat="45.35786" lon="6.59364">
        <ele>1750</ele>
        <time>2020-07-21T07:39:09Z</time>
      </trkpt>
      <trkpt lat="45.35781" lon="6.59371">
        <ele>1750</ele>
        <time>2020-07-21T07:39:17Z</time>
      </trkpt>
      <trkpt lat="45.35776" lon="6.59378">
        <ele>1751</ele>
        <time>2020-07-21T07:39:25Z</time>
      </trkpt>
      <trkpt lat="45.35772" lon="6.59387">
        <ele>1751</ele>
        <time>2020-07-21T07:39:34Z</time>
      </trkpt>
      <trkpt lat="45.35768" lon="6.59395">
        <ele>1752</ele>
        <time>2020-07-21T07:39:42Z</time>
      </trkpt>
      <trkpt lat="45.35763" lon="6.59402">
        <ele>1753</ele>
        <time>2020-07-21T07:39:50Z</time>
      </trkpt>
      <trkpt lat="45.35756" lon="6.59405">
        <ele>1753</ele>
        <time>2020-07-21T07:40:02Z</time>
      </trkpt>
      <trkpt lat="45.3575" lon="6.59401">
        <ele>1753</ele>
        <time>2020-07-21T07:40:08Z</time>
      </trkpt>
      <trkpt lat="45.35752" lon="6.59411">
        <ele>1754</ele>
        <time>2020-07-21T07:42:56Z</time>
      </trkpt>
      <trkpt lat="45.35746" lon="6.59417">
        <ele>1754</ele>
        <time>2020-07-21T07:43:03Z</time>
      </trkpt>
      <trkpt lat="45.3574" lon="6.59423">
        <ele>1753</ele>
        <time>2020-07-21T07:43:09Z</time>
      </trkpt>
      <trkpt lat="45.35734" lon="6.59428">
        <ele>1752</ele>
        <time>2020-07-21T07:43:38Z</time>
      </trkpt>
      <trkpt lat="45.3574" lon="6.59434">
        <ele>1752</ele>
        <time>2020-07-21T07:43:49Z</time>
      </trkpt>
      <trkpt lat="45.35746" lon="6.59434">
        <ele>1753</ele>
        <time>2020-07-21T07:43:56Z</time>
      </trkpt>
      <trkpt lat="45.35753" lon="6.5943">
        <ele>1759</ele>
        <time>2020-07-21T07:44:03Z</time>
      </trkpt>
      <trkpt lat="45.35757" lon="6.59438">
        <ele>1760</ele>
        <time>2020-07-21T07:44:15Z</time>
      </trkpt>
      <trkpt lat="45.35757" lon="6.59449">
        <ele>1761</ele>
        <time>2020-07-21T07:44:24Z</time>
      </trkpt>
      <trkpt lat="45.35757" lon="6.59458">
        <ele>1762</ele>
        <time>2020-07-21T07:44:30Z</time>
      </trkpt>
      <trkpt lat="45.35757" lon="6.59468">
        <ele>1763</ele>
        <time>2020-07-21T07:44:37Z</time>
      </trkpt>
      <trkpt lat="45.35755" lon="6.59479">
        <ele>1763</ele>
        <time>2020-07-21T07:44:43Z</time>
      </trkpt>
      <trkpt lat="45.35755" lon="6.5949">
        <ele>1763</ele>
        <time>2020-07-21T07:44:50Z</time>
      </trkpt>
      <trkpt lat="45.35753" lon="6.595">
        <ele>1762</ele>
        <time>2020-07-21T07:44:56Z</time>
      </trkpt>
      <trkpt lat="45.35754" lon="6.5951">
        <ele>1767</ele>
        <time>2020-07-21T07:45:02Z</time>
      </trkpt>
      <trkpt lat="45.35753" lon="6.59519">
        <ele>1769</ele>
        <time>2020-07-21T07:45:08Z</time>
      </trkpt>
      <trkpt lat="45.3575" lon="6.59529">
        <ele>1771</ele>
        <time>2020-07-21T07:45:15Z</time>
      </trkpt>
      <trkpt lat="45.35749" lon="6.59539">
        <ele>1763</ele>
        <time>2020-07-21T07:45:22Z</time>
      </trkpt>
      <trkpt lat="45.35746" lon="6.59547">
        <ele>1763</ele>
        <time>2020-07-21T07:45:28Z</time>
      </trkpt>
      <trkpt lat="45.35741" lon="6.59555">
        <ele>1764</ele>
        <time>2020-07-21T07:45:35Z</time>
      </trkpt>
      <trkpt lat="45.35737" lon="6.59563">
        <ele>1765</ele>
        <time>2020-07-21T07:45:42Z</time>
      </trkpt>
      <trkpt lat="45.35733" lon="6.59571">
        <ele>1766</ele>
        <time>2020-07-21T07:45:48Z</time>
      </trkpt>
      <trkpt lat="45.35729" lon="6.59579">
        <ele>1765</ele>
        <time>2020-07-21T07:45:54Z</time>
      </trkpt>
      <trkpt lat="45.35725" lon="6.59587">
        <ele>1770</ele>
        <time>2020-07-21T07:46:00Z</time>
      </trkpt>
      <trkpt lat="45.35722" lon="6.59595">
        <ele>1770</ele>
        <time>2020-07-21T07:46:06Z</time>
      </trkpt>
      <trkpt lat="45.35719" lon="6.59605">
        <ele>1770</ele>
        <time>2020-07-21T07:46:13Z</time>
      </trkpt>
      <trkpt lat="45.35715" lon="6.59613">
        <ele>1770</ele>
        <time>2020-07-21T07:46:21Z</time>
      </trkpt>
      <trkpt lat="45.35711" lon="6.59622">
        <ele>1770</ele>
        <time>2020-07-21T07:46:28Z</time>
      </trkpt>
      <trkpt lat="45.3571" lon="6.59631">
        <ele>1771</ele>
        <time>2020-07-21T07:46:35Z</time>
      </trkpt>
      <trkpt lat="45.35707" lon="6.5964">
        <ele>1771</ele>
        <time>2020-07-21T07:46:48Z</time>
      </trkpt>
      <trkpt lat="45.35702" lon="6.59648">
        <ele>1770</ele>
        <time>2020-07-21T07:46:54Z</time>
      </trkpt>
      <trkpt lat="45.35699" lon="6.59657">
        <ele>1770</ele>
        <time>2020-07-21T07:47:01Z</time>
      </trkpt>
      <trkpt lat="45.35698" lon="6.59666">
        <ele>1770</ele>
        <time>2020-07-21T07:47:07Z</time>
      </trkpt>
      <trkpt lat="45.35697" lon="6.59676">
        <ele>1775</ele>
        <time>2020-07-21T07:47:13Z</time>
      </trkpt>
      <trkpt lat="45.35696" lon="6.59687">
        <ele>1775</ele>
        <time>2020-07-21T07:47:18Z</time>
      </trkpt>
      <trkpt lat="45.35695" lon="6.59697">
        <ele>1776</ele>
        <time>2020-07-21T07:47:25Z</time>
      </trkpt>
      <trkpt lat="45.35694" lon="6.59706">
        <ele>1776</ele>
        <time>2020-07-21T07:47:31Z</time>
      </trkpt>
      <trkpt lat="45.35692" lon="6.59716">
        <ele>1777</ele>
        <time>2020-07-21T07:47:37Z</time>
      </trkpt>
      <trkpt lat="45.35695" lon="6.59725">
        <ele>1777</ele>
        <time>2020-07-21T07:47:43Z</time>
      </trkpt>
      <trkpt lat="45.357" lon="6.59732">
        <ele>1778</ele>
        <time>2020-07-21T07:47:49Z</time>
      </trkpt>
      <trkpt lat="45.35704" lon="6.59742">
        <ele>1779</ele>
        <time>2020-07-21T07:47:55Z</time>
      </trkpt>
      <trkpt lat="45.35707" lon="6.59752">
        <ele>1787</ele>
        <time>2020-07-21T07:48:01Z</time>
      </trkpt>
      <trkpt lat="45.35706" lon="6.59762">
        <ele>1788</ele>
        <time>2020-07-21T07:48:09Z</time>
      </trkpt>
      <trkpt lat="45.35704" lon="6.59771">
        <ele>1788</ele>
        <time>2020-07-21T07:48:16Z</time>
      </trkpt>
      <trkpt lat="45.35698" lon="6.59776">
        <ele>1787</ele>
        <time>2020-07-21T07:48:23Z</time>
      </trkpt>
      <trkpt lat="45.35691" lon="6.59777">
        <ele>1786</ele>
        <time>2020-07-21T07:48:31Z</time>
      </trkpt>
      <trkpt lat="45.35685" lon="6.59773">
        <ele>1784</ele>
        <time>2020-07-21T07:48:38Z</time>
      </trkpt>
      <trkpt lat="45.35678" lon="6.59767">
        <ele>1782</ele>
        <time>2020-07-21T07:48:45Z</time>
      </trkpt>
      <trkpt lat="45.35672" lon="6.5976">
        <ele>1778</ele>
        <time>2020-07-21T07:48:50Z</time>
      </trkpt>
      <trkpt lat="45.35665" lon="6.59757">
        <ele>1772</ele>
        <time>2020-07-21T07:48:55Z</time>
      </trkpt>
      <trkpt lat="45.35658" lon="6.5976">
        <ele>1772</ele>
        <time>2020-07-21T07:49:02Z</time>
      </trkpt>
      <trkpt lat="45.35652" lon="6.59763">
        <ele>1772</ele>
        <time>2020-07-21T07:49:08Z</time>
      </trkpt>
      <trkpt lat="45.35646" lon="6.59767">
        <ele>1773</ele>
        <time>2020-07-21T07:49:13Z</time>
      </trkpt>
      <trkpt lat="45.35645" lon="6.59778">
        <ele>1773</ele>
        <time>2020-07-21T07:49:25Z</time>
      </trkpt>
      <trkpt lat="45.35638" lon="6.59779">
        <ele>1773</ele>
        <time>2020-07-21T07:50:38Z</time>
      </trkpt>
      <trkpt lat="45.35632" lon="6.59782">
        <ele>1773</ele>
        <time>2020-07-21T07:51:31Z</time>
      </trkpt>
      <trkpt lat="45.35625" lon="6.59778">
        <ele>1773</ele>
        <time>2020-07-21T07:51:39Z</time>
      </trkpt>
      <trkpt lat="45.35623" lon="6.59787">
        <ele>1773</ele>
        <time>2020-07-21T07:51:48Z</time>
      </trkpt>
      <trkpt lat="45.35628" lon="6.59794">
        <ele>1774</ele>
        <time>2020-07-21T07:51:55Z</time>
      </trkpt>
      <trkpt lat="45.35629" lon="6.59804">
        <ele>1775</ele>
        <time>2020-07-21T07:52:04Z</time>
      </trkpt>
      <trkpt lat="45.35626" lon="6.59813">
        <ele>1776</ele>
        <time>2020-07-21T07:52:13Z</time>
      </trkpt>
      <trkpt lat="45.35619" lon="6.59816">
        <ele>1775</ele>
        <time>2020-07-21T07:52:23Z</time>
      </trkpt>
      <trkpt lat="45.35612" lon="6.59815">
        <ele>1775</ele>
        <time>2020-07-21T07:52:28Z</time>
      </trkpt>
      <trkpt lat="45.35605" lon="6.59818">
        <ele>1775</ele>
        <time>2020-07-21T07:52:36Z</time>
      </trkpt>
      <trkpt lat="45.35599" lon="6.59821">
        <ele>1775</ele>
        <time>2020-07-21T07:52:43Z</time>
      </trkpt>
      <trkpt lat="45.35593" lon="6.59826">
        <ele>1775</ele>
        <time>2020-07-21T07:52:52Z</time>
      </trkpt>
      <trkpt lat="45.3559" lon="6.59835">
        <ele>1779</ele>
        <time>2020-07-21T07:52:59Z</time>
      </trkpt>
      <trkpt lat="45.35589" lon="6.59845">
        <ele>1781</ele>
        <time>2020-07-21T07:53:14Z</time>
      </trkpt>
      <trkpt lat="45.35583" lon="6.59851">
        <ele>1782</ele>
        <time>2020-07-21T07:53:32Z</time>
      </trkpt>
      <trkpt lat="45.35579" lon="6.59857">
        <ele>1785</ele>
        <time>2020-07-21T07:53:42Z</time>
      </trkpt>
      <trkpt lat="45.35572" lon="6.59859">
        <ele>1786</ele>
        <time>2020-07-21T07:53:56Z</time>
      </trkpt>
      <trkpt lat="45.35572" lon="6.5987">
        <ele>1787</ele>
        <time>2020-07-21T07:54:57Z</time>
      </trkpt>
      <trkpt lat="45.35568" lon="6.59862">
        <ele>1786</ele>
        <time>2020-07-21T07:55:29Z</time>
      </trkpt>
      <trkpt lat="45.35571" lon="6.59872">
        <ele>1787</ele>
        <time>2020-07-21T07:56:53Z</time>
      </trkpt>
      <trkpt lat="45.3557" lon="6.59863">
        <ele>1786</ele>
        <time>2020-07-21T07:57:47Z</time>
      </trkpt>
      <trkpt lat="45.35576" lon="6.59865">
        <ele>1786</ele>
        <time>2020-07-21T07:58:52Z</time>
      </trkpt>
      <trkpt lat="45.35583" lon="6.59868">
        <ele>1786</ele>
        <time>2020-07-21T07:58:58Z</time>
      </trkpt>
      <trkpt lat="45.35586" lon="6.59876">
        <ele>1786</ele>
        <time>2020-07-21T07:59:07Z</time>
      </trkpt>
      <trkpt lat="45.3559" lon="6.59884">
        <ele>1787</ele>
        <time>2020-07-21T07:59:34Z</time>
      </trkpt>
      <trkpt lat="45.35593" lon="6.59893">
        <ele>1788</ele>
        <time>2020-07-21T08:00:13Z</time>
      </trkpt>
      <trkpt lat="45.35596" lon="6.59901">
        <ele>1789</ele>
        <time>2020-07-21T08:00:34Z</time>
      </trkpt>
      <trkpt lat="45.35595" lon="6.59911">
        <ele>1789</ele>
        <time>2020-07-21T08:01:42Z</time>
      </trkpt>
      <trkpt lat="45.35595" lon="6.59921">
        <ele>1795</ele>
        <time>2020-07-21T08:01:50Z</time>
      </trkpt>
      <trkpt lat="45.35594" lon="6.5993">
        <ele>1796</ele>
        <time>2020-07-21T08:01:59Z</time>
      </trkpt>
      <trkpt lat="45.35592" lon="6.5994">
        <ele>1798</ele>
        <time>2020-07-21T08:02:07Z</time>
      </trkpt>
      <trkpt lat="45.35587" lon="6.59948">
        <ele>1799</ele>
        <time>2020-07-21T08:02:14Z</time>
      </trkpt>
      <trkpt lat="45.35589" lon="6.59958">
        <ele>1800</ele>
        <time>2020-07-21T08:02:22Z</time>
      </trkpt>
      <trkpt lat="45.35595" lon="6.59958">
        <ele>1801</ele>
        <time>2020-07-21T08:02:29Z</time>
      </trkpt>
      <trkpt lat="45.35602" lon="6.59954">
        <ele>1800</ele>
        <time>2020-07-21T08:02:35Z</time>
      </trkpt>
      <trkpt lat="45.35608" lon="6.59949">
        <ele>1800</ele>
        <time>2020-07-21T08:02:41Z</time>
      </trkpt>
      <trkpt lat="45.35614" lon="6.59945">
        <ele>1800</ele>
        <time>2020-07-21T08:02:48Z</time>
      </trkpt>
      <trkpt lat="45.3562" lon="6.59941">
        <ele>1800</ele>
        <time>2020-07-21T08:02:54Z</time>
      </trkpt>
      <trkpt lat="45.35626" lon="6.59938">
        <ele>1801</ele>
        <time>2020-07-21T08:03:01Z</time>
      </trkpt>
      <trkpt lat="45.35633" lon="6.59938">
        <ele>1801</ele>
        <time>2020-07-21T08:03:08Z</time>
      </trkpt>
      <trkpt lat="45.3564" lon="6.59937">
        <ele>1801</ele>
        <time>2020-07-21T08:03:15Z</time>
      </trkpt>
      <trkpt lat="45.35647" lon="6.5994">
        <ele>1802</ele>
        <time>2020-07-21T08:03:20Z</time>
      </trkpt>
      <trkpt lat="45.35652" lon="6.59945">
        <ele>1802</ele>
        <time>2020-07-21T08:03:26Z</time>
      </trkpt>
      <trkpt lat="45.35653" lon="6.59954">
        <ele>1803</ele>
        <time>2020-07-21T08:03:32Z</time>
      </trkpt>
      <trkpt lat="45.35649" lon="6.59962">
        <ele>1804</ele>
        <time>2020-07-21T08:03:39Z</time>
      </trkpt>
      <trkpt lat="45.35644" lon="6.59969">
        <ele>1804</ele>
        <time>2020-07-21T08:03:46Z</time>
      </trkpt>
      <trkpt lat="45.35642" lon="6.59978">
        <ele>1805</ele>
        <time>2020-07-21T08:03:54Z</time>
      </trkpt>
      <trkpt lat="45.3564" lon="6.59988">
        <ele>1805</ele>
        <time>2020-07-21T08:04:01Z</time>
      </trkpt>
      <trkpt lat="45.35635" lon="6.59996">
        <ele>1805</ele>
        <time>2020-07-21T08:04:08Z</time>
      </trkpt>
      <trkpt lat="45.3563" lon="6.60002">
        <ele>1813</ele>
        <time>2020-07-21T08:04:14Z</time>
      </trkpt>
      <trkpt lat="45.35624" lon="6.60007">
        <ele>1813</ele>
        <time>2020-07-21T08:04:21Z</time>
      </trkpt>
      <trkpt lat="45.3562" lon="6.60016">
        <ele>1814</ele>
        <time>2020-07-21T08:04:29Z</time>
      </trkpt>
      <trkpt lat="45.35616" lon="6.60024">
        <ele>1814</ele>
        <time>2020-07-21T08:04:37Z</time>
      </trkpt>
      <trkpt lat="45.35611" lon="6.60031">
        <ele>1814</ele>
        <time>2020-07-21T08:04:43Z</time>
      </trkpt>
      <trkpt lat="45.35606" lon="6.60038">
        <ele>1815</ele>
        <time>2020-07-21T08:04:53Z</time>
      </trkpt>
      <trkpt lat="45.35602" lon="6.60046">
        <ele>1816</ele>
        <time>2020-07-21T08:05:01Z</time>
      </trkpt>
      <trkpt lat="45.35598" lon="6.60054">
        <ele>1817</ele>
        <time>2020-07-21T08:05:08Z</time>
      </trkpt>
      <trkpt lat="45.35593" lon="6.60062">
        <ele>1818</ele>
        <time>2020-07-21T08:05:17Z</time>
      </trkpt>
      <trkpt lat="45.35589" lon="6.60069">
        <ele>1818</ele>
        <time>2020-07-21T08:05:24Z</time>
      </trkpt>
      <trkpt lat="45.35584" lon="6.60077">
        <ele>1820</ele>
        <time>2020-07-21T08:05:32Z</time>
      </trkpt>
      <trkpt lat="45.35579" lon="6.60085">
        <ele>1823</ele>
        <time>2020-07-21T08:05:41Z</time>
      </trkpt>
      <trkpt lat="45.35577" lon="6.60095">
        <ele>1826</ele>
        <time>2020-07-21T08:05:48Z</time>
      </trkpt>
      <trkpt lat="45.35576" lon="6.60105">
        <ele>1829</ele>
        <time>2020-07-21T08:05:55Z</time>
      </trkpt>
      <trkpt lat="45.35573" lon="6.60114">
        <ele>1831</ele>
        <time>2020-07-21T08:06:03Z</time>
      </trkpt>
      <trkpt lat="45.35566" lon="6.60115">
        <ele>1831</ele>
        <time>2020-07-21T08:06:12Z</time>
      </trkpt>
      <trkpt lat="45.35559" lon="6.60118">
        <ele>1832</ele>
        <time>2020-07-21T08:06:20Z</time>
      </trkpt>
      <trkpt lat="45.35554" lon="6.60123">
        <ele>1833</ele>
        <time>2020-07-21T08:06:27Z</time>
      </trkpt>
      <trkpt lat="45.35547" lon="6.60124">
        <ele>1834</ele>
        <time>2020-07-21T08:06:37Z</time>
      </trkpt>
      <trkpt lat="45.35541" lon="6.6013">
        <ele>1835</ele>
        <time>2020-07-21T08:06:45Z</time>
      </trkpt>
      <trkpt lat="45.35538" lon="6.60139">
        <ele>1836</ele>
        <time>2020-07-21T08:06:52Z</time>
      </trkpt>
      <trkpt lat="45.35542" lon="6.60146">
        <ele>1836</ele>
        <time>2020-07-21T08:08:25Z</time>
      </trkpt>
      <trkpt lat="45.35548" lon="6.60153">
        <ele>1837</ele>
        <time>2020-07-21T08:09:23Z</time>
      </trkpt>
      <trkpt lat="45.35555" lon="6.60154">
        <ele>1836</ele>
        <time>2020-07-21T08:09:32Z</time>
      </trkpt>
      <trkpt lat="45.35562" lon="6.60154">
        <ele>1836</ele>
        <time>2020-07-21T08:09:40Z</time>
      </trkpt>
      <trkpt lat="45.35568" lon="6.60157">
        <ele>1836</ele>
        <time>2020-07-21T08:09:47Z</time>
      </trkpt>
      <trkpt lat="45.35572" lon="6.60166">
        <ele>1837</ele>
        <time>2020-07-21T08:09:56Z</time>
      </trkpt>
      <trkpt lat="45.35572" lon="6.60175">
        <ele>1845</ele>
        <time>2020-07-21T08:10:05Z</time>
      </trkpt>
      <trkpt lat="45.35573" lon="6.60184">
        <ele>1847</ele>
        <time>2020-07-21T08:10:12Z</time>
      </trkpt>
      <trkpt lat="45.35578" lon="6.60192">
        <ele>1848</ele>
        <time>2020-07-21T08:10:19Z</time>
      </trkpt>
      <trkpt lat="45.35583" lon="6.60197">
        <ele>1844</ele>
        <time>2020-07-21T08:10:26Z</time>
      </trkpt>
      <trkpt lat="45.35589" lon="6.60201">
        <ele>1845</ele>
        <time>2020-07-21T08:10:34Z</time>
      </trkpt>
      <trkpt lat="45.35594" lon="6.60208">
        <ele>1846</ele>
        <time>2020-07-21T08:10:41Z</time>
      </trkpt>
      <trkpt lat="45.35598" lon="6.60215">
        <ele>1846</ele>
        <time>2020-07-21T08:10:49Z</time>
      </trkpt>
      <trkpt lat="45.35603" lon="6.60221">
        <ele>1847</ele>
        <time>2020-07-21T08:10:56Z</time>
      </trkpt>
      <trkpt lat="45.35609" lon="6.60227">
        <ele>1847</ele>
        <time>2020-07-21T08:11:04Z</time>
      </trkpt>
      <trkpt lat="45.35613" lon="6.60236">
        <ele>1848</ele>
        <time>2020-07-21T08:11:10Z</time>
      </trkpt>
      <trkpt lat="45.35618" lon="6.60243">
        <ele>1848</ele>
        <time>2020-07-21T08:11:16Z</time>
      </trkpt>
      <trkpt lat="45.35624" lon="6.60249">
        <ele>1848</ele>
        <time>2020-07-21T08:11:23Z</time>
      </trkpt>
      <trkpt lat="45.35631" lon="6.60252">
        <ele>1854</ele>
        <time>2020-07-21T08:11:29Z</time>
      </trkpt>
      <trkpt lat="45.35637" lon="6.60256">
        <ele>1854</ele>
        <time>2020-07-21T08:11:35Z</time>
      </trkpt>
      <trkpt lat="45.35644" lon="6.60257">
        <ele>1854</ele>
        <time>2020-07-21T08:11:42Z</time>
      </trkpt>
      <trkpt lat="45.3565" lon="6.60264">
        <ele>1854</ele>
        <time>2020-07-21T08:11:49Z</time>
      </trkpt>
      <trkpt lat="45.35653" lon="6.60272">
        <ele>1854</ele>
        <time>2020-07-21T08:11:56Z</time>
      </trkpt>
      <trkpt lat="45.35656" lon="6.60281">
        <ele>1855</ele>
        <time>2020-07-21T08:12:02Z</time>
      </trkpt>
      <trkpt lat="45.35657" lon="6.60291">
        <ele>1855</ele>
        <time>2020-07-21T08:12:10Z</time>
      </trkpt>
      <trkpt lat="45.35656" lon="6.603">
        <ele>1856</ele>
        <time>2020-07-21T08:12:19Z</time>
      </trkpt>
      <trkpt lat="45.35655" lon="6.6031">
        <ele>1856</ele>
        <time>2020-07-21T08:12:27Z</time>
      </trkpt>
      <trkpt lat="45.35656" lon="6.60319">
        <ele>1857</ele>
        <time>2020-07-21T08:12:34Z</time>
      </trkpt>
      <trkpt lat="45.35661" lon="6.60326">
        <ele>1857</ele>
        <time>2020-07-21T08:12:42Z</time>
      </trkpt>
      <trkpt lat="45.35659" lon="6.60335">
        <ele>1860</ele>
        <time>2020-07-21T08:12:50Z</time>
      </trkpt>
      <trkpt lat="45.35657" lon="6.60345">
        <ele>1861</ele>
        <time>2020-07-21T08:13:01Z</time>
      </trkpt>
      <trkpt lat="45.35655" lon="6.60354">
        <ele>1862</ele>
        <time>2020-07-21T08:13:08Z</time>
      </trkpt>
      <trkpt lat="45.35653" lon="6.60364">
        <ele>1863</ele>
        <time>2020-07-21T08:13:14Z</time>
      </trkpt>
      <trkpt lat="45.35652" lon="6.60374">
        <ele>1864</ele>
        <time>2020-07-21T08:13:23Z</time>
      </trkpt>
      <trkpt lat="45.35651" lon="6.60384">
        <ele>1865</ele>
        <time>2020-07-21T08:13:30Z</time>
      </trkpt>
      <trkpt lat="45.3565" lon="6.60394">
        <ele>1866</ele>
        <time>2020-07-21T08:13:37Z</time>
      </trkpt>
      <trkpt lat="45.35648" lon="6.60403">
        <ele>1866</ele>
        <time>2020-07-21T08:13:44Z</time>
      </trkpt>
      <trkpt lat="45.35645" lon="6.60412">
        <ele>1867</ele>
        <time>2020-07-21T08:13:52Z</time>
      </trkpt>
      <trkpt lat="45.35644" lon="6.60421">
        <ele>1876</ele>
        <time>2020-07-21T08:14:01Z</time>
      </trkpt>
      <trkpt lat="45.35641" lon="6.6043">
        <ele>1877</ele>
        <time>2020-07-21T08:14:09Z</time>
      </trkpt>
      <trkpt lat="45.35641" lon="6.6044">
        <ele>1879</ele>
        <time>2020-07-21T08:15:07Z</time>
      </trkpt>
      <trkpt lat="45.35641" lon="6.60451">
        <ele>1880</ele>
        <time>2020-07-21T08:15:16Z</time>
      </trkpt>
      <trkpt lat="45.35638" lon="6.6046">
        <ele>1882</ele>
        <time>2020-07-21T08:15:22Z</time>
      </trkpt>
      <trkpt lat="45.35634" lon="6.60467">
        <ele>1883</ele>
        <time>2020-07-21T08:15:29Z</time>
      </trkpt>
      <trkpt lat="45.3563" lon="6.60475">
        <ele>1884</ele>
        <time>2020-07-21T08:15:43Z</time>
      </trkpt>
      <trkpt lat="45.35624" lon="6.6048">
        <ele>1884</ele>
        <time>2020-07-21T08:15:54Z</time>
      </trkpt>
      <trkpt lat="45.35618" lon="6.60485">
        <ele>1885</ele>
        <time>2020-07-21T08:16:03Z</time>
      </trkpt>
      <trkpt lat="45.3562" lon="6.60495">
        <ele>1886</ele>
        <time>2020-07-21T08:16:13Z</time>
      </trkpt>
      <trkpt lat="45.35625" lon="6.60501">
        <ele>1901</ele>
        <time>2020-07-21T08:16:21Z</time>
      </trkpt>
      <trkpt lat="45.35632" lon="6.60504">
        <ele>1900</ele>
        <time>2020-07-21T08:16:30Z</time>
      </trkpt>
      <trkpt lat="45.35638" lon="6.60508">
        <ele>1900</ele>
        <time>2020-07-21T08:16:41Z</time>
      </trkpt>
      <trkpt lat="45.35645" lon="6.60509">
        <ele>1899</ele>
        <time>2020-07-21T08:16:51Z</time>
      </trkpt>
      <trkpt lat="45.35651" lon="6.60513">
        <ele>1898</ele>
        <time>2020-07-21T08:17:02Z</time>
      </trkpt>
      <trkpt lat="45.35656" lon="6.60519">
        <ele>1899</ele>
        <time>2020-07-21T08:17:13Z</time>
      </trkpt>
      <trkpt lat="45.35662" lon="6.60525">
        <ele>1900</ele>
        <time>2020-07-21T08:17:24Z</time>
      </trkpt>
      <trkpt lat="45.35666" lon="6.60532">
        <ele>1902</ele>
        <time>2020-07-21T08:17:37Z</time>
      </trkpt>
      <trkpt lat="45.35671" lon="6.6054">
        <ele>1901</ele>
        <time>2020-07-21T08:17:48Z</time>
      </trkpt>
      <trkpt lat="45.35676" lon="6.60547">
        <ele>1903</ele>
        <time>2020-07-21T08:17:58Z</time>
      </trkpt>
      <trkpt lat="45.35679" lon="6.60555">
        <ele>1905</ele>
        <time>2020-07-21T08:18:18Z</time>
      </trkpt>
      <trkpt lat="45.35685" lon="6.60559">
        <ele>1905</ele>
        <time>2020-07-21T08:18:27Z</time>
      </trkpt>
      <trkpt lat="45.35691" lon="6.60564">
        <ele>1906</ele>
        <time>2020-07-21T08:18:35Z</time>
      </trkpt>
      <trkpt lat="45.35695" lon="6.60572">
        <ele>1906</ele>
        <time>2020-07-21T08:18:47Z</time>
      </trkpt>
      <trkpt lat="45.35701" lon="6.60575">
        <ele>1906</ele>
        <time>2020-07-21T08:18:56Z</time>
      </trkpt>
      <trkpt lat="45.35705" lon="6.60582">
        <ele>1906</ele>
        <time>2020-07-21T08:19:07Z</time>
      </trkpt>
      <trkpt lat="45.3571" lon="6.60588">
        <ele>1924</ele>
        <time>2020-07-21T08:19:19Z</time>
      </trkpt>
      <trkpt lat="45.35717" lon="6.6059">
        <ele>1924</ele>
        <time>2020-07-21T08:19:28Z</time>
      </trkpt>
      <trkpt lat="45.35724" lon="6.60595">
        <ele>1923</ele>
        <time>2020-07-21T08:19:37Z</time>
      </trkpt>
      <trkpt lat="45.35727" lon="6.60604">
        <ele>1925</ele>
        <time>2020-07-21T08:19:48Z</time>
      </trkpt>
      <trkpt lat="45.3572" lon="6.60605">
        <ele>1926</ele>
        <time>2020-07-21T08:24:21Z</time>
      </trkpt>
      <trkpt lat="45.35714" lon="6.60608">
        <ele>1927</ele>
        <time>2020-07-21T08:24:30Z</time>
      </trkpt>
      <trkpt lat="45.35707" lon="6.60608">
        <ele>1927</ele>
        <time>2020-07-21T08:24:42Z</time>
      </trkpt>
      <trkpt lat="45.357" lon="6.60608">
        <ele>1928</ele>
        <time>2020-07-21T08:24:52Z</time>
      </trkpt>
      <trkpt lat="45.35694" lon="6.60612">
        <ele>1929</ele>
        <time>2020-07-21T08:25:06Z</time>
      </trkpt>
      <trkpt lat="45.35687" lon="6.60614">
        <ele>1929</ele>
        <time>2020-07-21T08:25:13Z</time>
      </trkpt>
      <trkpt lat="45.35682" lon="6.60619">
        <ele>1930</ele>
        <time>2020-07-21T08:25:28Z</time>
      </trkpt>
      <trkpt lat="45.35675" lon="6.60622">
        <ele>1931</ele>
        <time>2020-07-21T08:25:36Z</time>
      </trkpt>
      <trkpt lat="45.35669" lon="6.60628">
        <ele>1933</ele>
        <time>2020-07-21T08:25:43Z</time>
      </trkpt>
      <trkpt lat="45.35665" lon="6.60635">
        <ele>1940</ele>
        <time>2020-07-21T08:25:52Z</time>
      </trkpt>
      <trkpt lat="45.35659" lon="6.60639">
        <ele>1941</ele>
        <time>2020-07-21T08:26:01Z</time>
      </trkpt>
      <trkpt lat="45.35656" lon="6.60648">
        <ele>1944</ele>
        <time>2020-07-21T08:26:11Z</time>
      </trkpt>
      <trkpt lat="45.35649" lon="6.60648">
        <ele>1943</ele>
        <time>2020-07-21T08:26:24Z</time>
      </trkpt>
      <trkpt lat="45.35642" lon="6.6065">
        <ele>1943</ele>
        <time>2020-07-21T08:26:34Z</time>
      </trkpt>
      <trkpt lat="45.35644" lon="6.6066">
        <ele>1945</ele>
        <time>2020-07-21T08:26:42Z</time>
      </trkpt>
      <trkpt lat="45.3565" lon="6.60664">
        <ele>1946</ele>
        <time>2020-07-21T08:26:49Z</time>
      </trkpt>
      <trkpt lat="45.35657" lon="6.60664">
        <ele>1948</ele>
        <time>2020-07-21T08:26:55Z</time>
      </trkpt>
      <trkpt lat="45.35664" lon="6.60661">
        <ele>1950</ele>
        <time>2020-07-21T08:27:05Z</time>
      </trkpt>
      <trkpt lat="45.35671" lon="6.6066">
        <ele>1947</ele>
        <time>2020-07-21T08:27:13Z</time>
      </trkpt>
      <trkpt lat="45.35677" lon="6.60662">
        <ele>1945</ele>
        <time>2020-07-21T08:27:24Z</time>
      </trkpt>
      <trkpt lat="45.35684" lon="6.60664">
        <ele>1942</ele>
        <time>2020-07-21T08:27:35Z</time>
      </trkpt>
      <trkpt lat="45.35689" lon="6.60669">
        <ele>1960</ele>
        <time>2020-07-21T08:27:46Z</time>
      </trkpt>
      <trkpt lat="45.35695" lon="6.60675">
        <ele>1960</ele>
        <time>2020-07-21T08:27:56Z</time>
      </trkpt>
      <trkpt lat="45.35699" lon="6.60682">
        <ele>1962</ele>
        <time>2020-07-21T08:28:06Z</time>
      </trkpt>
      <trkpt lat="45.35704" lon="6.60689">
        <ele>1962</ele>
        <time>2020-07-21T08:28:16Z</time>
      </trkpt>
      <trkpt lat="45.3571" lon="6.60693">
        <ele>1963</ele>
        <time>2020-07-21T08:28:27Z</time>
      </trkpt>
      <trkpt lat="45.35713" lon="6.60701">
        <ele>1964</ele>
        <time>2020-07-21T08:28:35Z</time>
      </trkpt>
      <trkpt lat="45.35718" lon="6.60708">
        <ele>1966</ele>
        <time>2020-07-21T08:28:46Z</time>
      </trkpt>
      <trkpt lat="45.35723" lon="6.60715">
        <ele>1967</ele>
        <time>2020-07-21T08:28:57Z</time>
      </trkpt>
      <trkpt lat="45.35729" lon="6.60721">
        <ele>1968</ele>
        <time>2020-07-21T08:29:04Z</time>
      </trkpt>
      <trkpt lat="45.35732" lon="6.60729">
        <ele>1970</ele>
        <time>2020-07-21T08:29:10Z</time>
      </trkpt>
      <trkpt lat="45.35738" lon="6.60733">
        <ele>1971</ele>
        <time>2020-07-21T08:29:16Z</time>
      </trkpt>
      <trkpt lat="45.35743" lon="6.60738">
        <ele>1973</ele>
        <time>2020-07-21T08:29:23Z</time>
      </trkpt>
      <trkpt lat="45.35748" lon="6.60746">
        <ele>1976</ele>
        <time>2020-07-21T08:29:31Z</time>
      </trkpt>
      <trkpt lat="45.35752" lon="6.60753">
        <ele>1979</ele>
        <time>2020-07-21T08:29:40Z</time>
      </trkpt>
      <trkpt lat="45.35758" lon="6.60758">
        <ele>1980</ele>
        <time>2020-07-21T08:29:49Z</time>
      </trkpt>
      <trkpt lat="45.35765" lon="6.60762">
        <ele>1981</ele>
        <time>2020-07-21T08:29:57Z</time>
      </trkpt>
      <trkpt lat="45.3577" lon="6.60768">
        <ele>1981</ele>
        <time>2020-07-21T08:30:07Z</time>
      </trkpt>
      <trkpt lat="45.35775" lon="6.60774">
        <ele>1982</ele>
        <time>2020-07-21T08:30:19Z</time>
      </trkpt>
      <trkpt lat="45.3578" lon="6.60779">
        <ele>1982</ele>
        <time>2020-07-21T08:30:27Z</time>
      </trkpt>
      <trkpt lat="45.35782" lon="6.60788">
        <ele>1983</ele>
        <time>2020-07-21T08:30:37Z</time>
      </trkpt>
      <trkpt lat="45.35787" lon="6.60795">
        <ele>1983</ele>
        <time>2020-07-21T08:30:49Z</time>
      </trkpt>
      <trkpt lat="45.35791" lon="6.60802">
        <ele>1984</ele>
        <time>2020-07-21T08:31:01Z</time>
      </trkpt>
      <trkpt lat="45.35797" lon="6.60808">
        <ele>1984</ele>
        <time>2020-07-21T08:31:12Z</time>
      </trkpt>
      <trkpt lat="45.35801" lon="6.60816">
        <ele>1984</ele>
        <time>2020-07-21T08:31:20Z</time>
      </trkpt>
      <trkpt lat="45.35803" lon="6.60824">
        <ele>1985</ele>
        <time>2020-07-21T08:31:30Z</time>
      </trkpt>
      <trkpt lat="45.35807" lon="6.60832">
        <ele>1985</ele>
        <time>2020-07-21T08:31:38Z</time>
      </trkpt>
      <trkpt lat="45.35805" lon="6.60842">
        <ele>1991</ele>
        <time>2020-07-21T08:31:45Z</time>
      </trkpt>
      <trkpt lat="45.35802" lon="6.60851">
        <ele>1992</ele>
        <time>2020-07-21T08:31:53Z</time>
      </trkpt>
      <trkpt lat="45.35798" lon="6.6086">
        <ele>1992</ele>
        <time>2020-07-21T08:32:03Z</time>
      </trkpt>
      <trkpt lat="45.35794" lon="6.60868">
        <ele>1993</ele>
        <time>2020-07-21T08:32:12Z</time>
      </trkpt>
      <trkpt lat="45.35787" lon="6.60873">
        <ele>1994</ele>
        <time>2020-07-21T08:32:19Z</time>
      </trkpt>
      <trkpt lat="45.35781" lon="6.60878">
        <ele>1994</ele>
        <time>2020-07-21T08:33:39Z</time>
      </trkpt>
      <trkpt lat="45.35776" lon="6.60884">
        <ele>1995</ele>
        <time>2020-07-21T08:33:46Z</time>
      </trkpt>
      <trkpt lat="45.35771" lon="6.6089">
        <ele>1995</ele>
        <time>2020-07-21T08:34:01Z</time>
      </trkpt>
      <trkpt lat="45.35768" lon="6.60898">
        <ele>1996</ele>
        <time>2020-07-21T08:34:09Z</time>
      </trkpt>
      <trkpt lat="45.35765" lon="6.60908">
        <ele>1997</ele>
        <time>2020-07-21T08:34:17Z</time>
      </trkpt>
      <trkpt lat="45.35763" lon="6.60917">
        <ele>1997</ele>
        <time>2020-07-21T08:34:24Z</time>
      </trkpt>
      <trkpt lat="45.3576" lon="6.60926">
        <ele>1997</ele>
        <time>2020-07-21T08:34:32Z</time>
      </trkpt>
      <trkpt lat="45.35757" lon="6.60935">
        <ele>1996</ele>
        <time>2020-07-21T08:34:39Z</time>
      </trkpt>
      <trkpt lat="45.35754" lon="6.60944">
        <ele>1995</ele>
        <time>2020-07-21T08:34:46Z</time>
      </trkpt>
      <trkpt lat="45.35748" lon="6.60951">
        <ele>1999</ele>
        <time>2020-07-21T08:34:52Z</time>
      </trkpt>
      <trkpt lat="45.35744" lon="6.6096">
        <ele>1998</ele>
        <time>2020-07-21T08:34:59Z</time>
      </trkpt>
      <trkpt lat="45.35739" lon="6.60966">
        <ele>1998</ele>
        <time>2020-07-21T08:35:09Z</time>
      </trkpt>
      <trkpt lat="45.35735" lon="6.60974">
        <ele>1997</ele>
        <time>2020-07-21T08:35:15Z</time>
      </trkpt>
      <trkpt lat="45.35729" lon="6.60981">
        <ele>1997</ele>
        <time>2020-07-21T08:35:21Z</time>
      </trkpt>
      <trkpt lat="45.35724" lon="6.60986">
        <ele>1997</ele>
        <time>2020-07-21T08:35:28Z</time>
      </trkpt>
      <trkpt lat="45.35718" lon="6.60992">
        <ele>1997</ele>
        <time>2020-07-21T08:35:35Z</time>
      </trkpt>
      <trkpt lat="45.35713" lon="6.60998">
        <ele>1998</ele>
        <time>2020-07-21T08:35:41Z</time>
      </trkpt>
      <trkpt lat="45.35706" lon="6.61001">
        <ele>1992</ele>
        <time>2020-07-21T08:35:48Z</time>
      </trkpt>
      <trkpt lat="45.357" lon="6.61005">
        <ele>1992</ele>
        <time>2020-07-21T08:35:54Z</time>
      </trkpt>
      <trkpt lat="45.35693" lon="6.61009">
        <ele>1993</ele>
        <time>2020-07-21T08:36:00Z</time>
      </trkpt>
      <trkpt lat="45.35687" lon="6.61015">
        <ele>1993</ele>
        <time>2020-07-21T08:36:06Z</time>
      </trkpt>
      <trkpt lat="45.35681" lon="6.6102">
        <ele>1993</ele>
        <time>2020-07-21T08:36:12Z</time>
      </trkpt>
      <trkpt lat="45.35677" lon="6.61028">
        <ele>1992</ele>
        <time>2020-07-21T08:36:19Z</time>
      </trkpt>
      <trkpt lat="45.35672" lon="6.61034">
        <ele>1992</ele>
        <time>2020-07-21T08:36:25Z</time>
      </trkpt>
      <trkpt lat="45.35665" lon="6.61038">
        <ele>1998</ele>
        <time>2020-07-21T08:36:32Z</time>
      </trkpt>
      <trkpt lat="45.35658" lon="6.6104">
        <ele>1998</ele>
        <time>2020-07-21T08:36:38Z</time>
      </trkpt>
      <trkpt lat="45.35653" lon="6.61044">
        <ele>1998</ele>
        <time>2020-07-21T08:36:43Z</time>
      </trkpt>
      <trkpt lat="45.35647" lon="6.6105">
        <ele>1998</ele>
        <time>2020-07-21T08:36:48Z</time>
      </trkpt>
      <trkpt lat="45.35643" lon="6.61058">
        <ele>1997</ele>
        <time>2020-07-21T08:36:57Z</time>
      </trkpt>
      <trkpt lat="45.35638" lon="6.61066">
        <ele>1997</ele>
        <time>2020-07-21T08:37:03Z</time>
      </trkpt>
      <trkpt lat="45.35632" lon="6.6107">
        <ele>1997</ele>
        <time>2020-07-21T08:37:08Z</time>
      </trkpt>
      <trkpt lat="45.35626" lon="6.61074">
        <ele>1998</ele>
        <time>2020-07-21T08:37:14Z</time>
      </trkpt>
      <trkpt lat="45.35619" lon="6.61077">
        <ele>1998</ele>
        <time>2020-07-21T08:37:23Z</time>
      </trkpt>
      <trkpt lat="45.35613" lon="6.6108">
        <ele>1999</ele>
        <time>2020-07-21T08:37:33Z</time>
      </trkpt>
      <trkpt lat="45.35609" lon="6.61088">
        <ele>1996</ele>
        <time>2020-07-21T08:37:55Z</time>
      </trkpt>
      <trkpt lat="45.35603" lon="6.61093">
        <ele>1996</ele>
        <time>2020-07-21T08:38:04Z</time>
      </trkpt>
      <trkpt lat="45.35597" lon="6.61098">
        <ele>1997</ele>
        <time>2020-07-21T08:38:12Z</time>
      </trkpt>
      <trkpt lat="45.3559" lon="6.61102">
        <ele>1997</ele>
        <time>2020-07-21T08:38:22Z</time>
      </trkpt>
      <trkpt lat="45.35584" lon="6.61105">
        <ele>1997</ele>
        <time>2020-07-21T08:38:29Z</time>
      </trkpt>
      <trkpt lat="45.35578" lon="6.61108">
        <ele>2001</ele>
        <time>2020-07-21T08:38:37Z</time>
      </trkpt>
      <trkpt lat="45.35571" lon="6.61113">
        <ele>2001</ele>
        <time>2020-07-21T08:38:44Z</time>
      </trkpt>
      <trkpt lat="45.35566" lon="6.61119">
        <ele>2002</ele>
        <time>2020-07-21T08:38:50Z</time>
      </trkpt>
      <trkpt lat="45.3556" lon="6.61121">
        <ele>2002</ele>
        <time>2020-07-21T08:39:00Z</time>
      </trkpt>
      <trkpt lat="45.35552" lon="6.61119">
        <ele>2002</ele>
        <time>2020-07-21T08:39:07Z</time>
      </trkpt>
      <trkpt lat="45.35545" lon="6.61117">
        <ele>2003</ele>
        <time>2020-07-21T08:39:14Z</time>
      </trkpt>
      <trkpt lat="45.35537" lon="6.61119">
        <ele>2003</ele>
        <time>2020-07-21T08:39:21Z</time>
      </trkpt>
      <trkpt lat="45.3553" lon="6.6112">
        <ele>2003</ele>
        <time>2020-07-21T08:39:28Z</time>
      </trkpt>
      <trkpt lat="45.35523" lon="6.61123">
        <ele>2003</ele>
        <time>2020-07-21T08:39:34Z</time>
      </trkpt>
      <trkpt lat="45.35516" lon="6.61127">
        <ele>2003</ele>
        <time>2020-07-21T08:39:40Z</time>
      </trkpt>
      <trkpt lat="45.35511" lon="6.61133">
        <ele>2003</ele>
        <time>2020-07-21T08:39:46Z</time>
      </trkpt>
      <trkpt lat="45.35506" lon="6.61138">
        <ele>2003</ele>
        <time>2020-07-21T08:39:52Z</time>
      </trkpt>
      <trkpt lat="45.355" lon="6.61145">
        <ele>2002</ele>
        <time>2020-07-21T08:39:58Z</time>
      </trkpt>
      <trkpt lat="45.35496" lon="6.61153">
        <ele>2006</ele>
        <time>2020-07-21T08:40:05Z</time>
      </trkpt>
      <trkpt lat="45.3549" lon="6.6116">
        <ele>2005</ele>
        <time>2020-07-21T08:40:12Z</time>
      </trkpt>
      <trkpt lat="45.35485" lon="6.61168">
        <ele>2003</ele>
        <time>2020-07-21T08:40:18Z</time>
      </trkpt>
      <trkpt lat="45.35479" lon="6.61173">
        <ele>2004</ele>
        <time>2020-07-21T08:40:27Z</time>
      </trkpt>
      <trkpt lat="45.35472" lon="6.61178">
        <ele>2004</ele>
        <time>2020-07-21T08:40:34Z</time>
      </trkpt>
      <trkpt lat="45.35467" lon="6.61184">
        <ele>2005</ele>
        <time>2020-07-21T08:40:41Z</time>
      </trkpt>
      <trkpt lat="45.35461" lon="6.61191">
        <ele>2005</ele>
        <time>2020-07-21T08:40:49Z</time>
      </trkpt>
      <trkpt lat="45.35456" lon="6.61197">
        <ele>2005</ele>
        <time>2020-07-21T08:40:55Z</time>
      </trkpt>
      <trkpt lat="45.3545" lon="6.61203">
        <ele>2006</ele>
        <time>2020-07-21T08:41:03Z</time>
      </trkpt>
      <trkpt lat="45.35446" lon="6.6121">
        <ele>2005</ele>
        <time>2020-07-21T08:41:09Z</time>
      </trkpt>
      <trkpt lat="45.35442" lon="6.61218">
        <ele>2005</ele>
        <time>2020-07-21T08:41:15Z</time>
      </trkpt>
      <trkpt lat="45.35435" lon="6.61221">
        <ele>2005</ele>
        <time>2020-07-21T08:41:22Z</time>
      </trkpt>
      <trkpt lat="45.35429" lon="6.61226">
        <ele>2005</ele>
        <time>2020-07-21T08:41:28Z</time>
      </trkpt>
      <trkpt lat="45.35425" lon="6.61234">
        <ele>2004</ele>
        <time>2020-07-21T08:41:42Z</time>
      </trkpt>
      <trkpt lat="45.35419" lon="6.61241">
        <ele>2003</ele>
        <time>2020-07-21T08:41:49Z</time>
      </trkpt>
      <trkpt lat="45.35415" lon="6.6125">
        <ele>2002</ele>
        <time>2020-07-21T08:44:38Z</time>
      </trkpt>
      <trkpt lat="45.35409" lon="6.61254">
        <ele>2002</ele>
        <time>2020-07-21T08:44:48Z</time>
      </trkpt>
      <trkpt lat="45.35402" lon="6.61255">
        <ele>2003</ele>
        <time>2020-07-21T08:44:54Z</time>
      </trkpt>
      <trkpt lat="45.35395" lon="6.61255">
        <ele>2003</ele>
        <time>2020-07-21T08:45:01Z</time>
      </trkpt>
      <trkpt lat="45.35388" lon="6.61255">
        <ele>2003</ele>
        <time>2020-07-21T08:45:10Z</time>
      </trkpt>
      <trkpt lat="45.35381" lon="6.61253">
        <ele>2003</ele>
        <time>2020-07-21T08:45:16Z</time>
      </trkpt>
      <trkpt lat="45.35374" lon="6.61251">
        <ele>2004</ele>
        <time>2020-07-21T08:45:23Z</time>
      </trkpt>
      <trkpt lat="45.35367" lon="6.61253">
        <ele>2004</ele>
        <time>2020-07-21T08:45:29Z</time>
      </trkpt>
      <trkpt lat="45.3536" lon="6.61258">
        <ele>2004</ele>
        <time>2020-07-21T08:45:36Z</time>
      </trkpt>
      <trkpt lat="45.35353" lon="6.61259">
        <ele>2004</ele>
        <time>2020-07-21T08:45:42Z</time>
      </trkpt>
      <trkpt lat="45.35347" lon="6.61262">
        <ele>2005</ele>
        <time>2020-07-21T08:45:48Z</time>
      </trkpt>
      <trkpt lat="45.35341" lon="6.61266">
        <ele>2004</ele>
        <time>2020-07-21T08:45:55Z</time>
      </trkpt>
      <trkpt lat="45.35335" lon="6.61272">
        <ele>2004</ele>
        <time>2020-07-21T08:46:02Z</time>
      </trkpt>
      <trkpt lat="45.35329" lon="6.61276">
        <ele>2005</ele>
        <time>2020-07-21T08:46:08Z</time>
      </trkpt>
      <trkpt lat="45.35323" lon="6.61278">
        <ele>2005</ele>
        <time>2020-07-21T08:46:16Z</time>
      </trkpt>
      <trkpt lat="45.35316" lon="6.6128">
        <ele>2005</ele>
        <time>2020-07-21T08:46:24Z</time>
      </trkpt>
      <trkpt lat="45.35309" lon="6.61281">
        <ele>2005</ele>
        <time>2020-07-21T08:46:32Z</time>
      </trkpt>
      <trkpt lat="45.35302" lon="6.61283">
        <ele>2006</ele>
        <time>2020-07-21T08:46:39Z</time>
      </trkpt>
      <trkpt lat="45.35296" lon="6.61285">
        <ele>2006</ele>
        <time>2020-07-21T08:46:45Z</time>
      </trkpt>
      <trkpt lat="45.35289" lon="6.61288">
        <ele>2006</ele>
        <time>2020-07-21T08:46:52Z</time>
      </trkpt>
      <trkpt lat="45.35282" lon="6.61289">
        <ele>2006</ele>
        <time>2020-07-21T08:46:59Z</time>
      </trkpt>
      <trkpt lat="45.35275" lon="6.61288">
        <ele>2006</ele>
        <time>2020-07-21T08:47:04Z</time>
      </trkpt>
      <trkpt lat="45.35268" lon="6.61287">
        <ele>2006</ele>
        <time>2020-07-21T08:47:10Z</time>
      </trkpt>
      <trkpt lat="45.35261" lon="6.61289">
        <ele>2006</ele>
        <time>2020-07-21T08:47:17Z</time>
      </trkpt>
      <trkpt lat="45.35255" lon="6.61292">
        <ele>2006</ele>
        <time>2020-07-21T08:47:24Z</time>
      </trkpt>
      <trkpt lat="45.35248" lon="6.61295">
        <ele>2008</ele>
        <time>2020-07-21T08:47:31Z</time>
      </trkpt>
      <trkpt lat="45.3524" lon="6.61296">
        <ele>2008</ele>
        <time>2020-07-21T08:47:37Z</time>
      </trkpt>
      <trkpt lat="45.35234" lon="6.613">
        <ele>2008</ele>
        <time>2020-07-21T08:47:44Z</time>
      </trkpt>
      <trkpt lat="45.35228" lon="6.61305">
        <ele>2008</ele>
        <time>2020-07-21T08:47:50Z</time>
      </trkpt>
      <trkpt lat="45.35223" lon="6.61311">
        <ele>2008</ele>
        <time>2020-07-21T08:47:56Z</time>
      </trkpt>
      <trkpt lat="45.35216" lon="6.61312">
        <ele>2008</ele>
        <time>2020-07-21T08:48:01Z</time>
      </trkpt>
      <trkpt lat="45.35209" lon="6.61314">
        <ele>2008</ele>
        <time>2020-07-21T08:48:07Z</time>
      </trkpt>
      <trkpt lat="45.35204" lon="6.6132">
        <ele>2008</ele>
        <time>2020-07-21T08:48:14Z</time>
      </trkpt>
      <trkpt lat="45.352" lon="6.61327">
        <ele>2008</ele>
        <time>2020-07-21T08:48:32Z</time>
      </trkpt>
      <trkpt lat="45.35195" lon="6.61336">
        <ele>2006</ele>
        <time>2020-07-21T08:48:39Z</time>
      </trkpt>
      <trkpt lat="45.35193" lon="6.61345">
        <ele>2006</ele>
        <time>2020-07-21T08:49:13Z</time>
      </trkpt>
      <trkpt lat="45.35188" lon="6.61355">
        <ele>2006</ele>
        <time>2020-07-21T08:49:18Z</time>
      </trkpt>
      <trkpt lat="45.35184" lon="6.61362">
        <ele>2006</ele>
        <time>2020-07-21T08:49:25Z</time>
      </trkpt>
      <trkpt lat="45.35177" lon="6.61365">
        <ele>2006</ele>
        <time>2020-07-21T08:49:39Z</time>
      </trkpt>
      <trkpt lat="45.35171" lon="6.61369">
        <ele>2006</ele>
        <time>2020-07-21T08:49:58Z</time>
      </trkpt>
      <trkpt lat="45.35165" lon="6.6137">
        <ele>2007</ele>
        <time>2020-07-21T08:50:07Z</time>
      </trkpt>
      <trkpt lat="45.35158" lon="6.61372">
        <ele>2007</ele>
        <time>2020-07-21T08:50:13Z</time>
      </trkpt>
      <trkpt lat="45.35151" lon="6.61374">
        <ele>2007</ele>
        <time>2020-07-21T08:50:19Z</time>
      </trkpt>
      <trkpt lat="45.35145" lon="6.61377">
        <ele>2007</ele>
        <time>2020-07-21T08:50:25Z</time>
      </trkpt>
      <trkpt lat="45.35138" lon="6.6138">
        <ele>2007</ele>
        <time>2020-07-21T08:50:32Z</time>
      </trkpt>
      <trkpt lat="45.35131" lon="6.61381">
        <ele>2007</ele>
        <time>2020-07-21T08:50:39Z</time>
      </trkpt>
      <trkpt lat="45.35125" lon="6.61384">
        <ele>2007</ele>
        <time>2020-07-21T08:50:46Z</time>
      </trkpt>
      <trkpt lat="45.35119" lon="6.61387">
        <ele>2007</ele>
        <time>2020-07-21T08:50:52Z</time>
      </trkpt>
      <trkpt lat="45.35111" lon="6.61389">
        <ele>2007</ele>
        <time>2020-07-21T08:51:00Z</time>
      </trkpt>
      <trkpt lat="45.35104" lon="6.61391">
        <ele>2007</ele>
        <time>2020-07-21T08:51:07Z</time>
      </trkpt>
      <trkpt lat="45.35098" lon="6.61395">
        <ele>2007</ele>
        <time>2020-07-21T08:51:13Z</time>
      </trkpt>
      <trkpt lat="45.35091" lon="6.61397">
        <ele>2007</ele>
        <time>2020-07-21T08:51:20Z</time>
      </trkpt>
      <trkpt lat="45.35085" lon="6.61401">
        <ele>2007</ele>
        <time>2020-07-21T08:51:27Z</time>
      </trkpt>
      <trkpt lat="45.35078" lon="6.61405">
        <ele>2007</ele>
        <time>2020-07-21T08:51:32Z</time>
      </trkpt>
      <trkpt lat="45.35072" lon="6.6141">
        <ele>2007</ele>
        <time>2020-07-21T08:51:39Z</time>
      </trkpt>
      <trkpt lat="45.35066" lon="6.61415">
        <ele>2007</ele>
        <time>2020-07-21T08:51:45Z</time>
      </trkpt>
      <trkpt lat="45.35061" lon="6.61421">
        <ele>2007</ele>
        <time>2020-07-21T08:51:51Z</time>
      </trkpt>
      <trkpt lat="45.35053" lon="6.61428">
        <ele>2007</ele>
        <time>2020-07-21T08:51:58Z</time>
      </trkpt>
      <trkpt lat="45.35049" lon="6.61435">
        <ele>2007</ele>
        <time>2020-07-21T08:52:04Z</time>
      </trkpt>
      <trkpt lat="45.35045" lon="6.61443">
        <ele>2007</ele>
        <time>2020-07-21T08:52:10Z</time>
      </trkpt>
      <trkpt lat="45.35041" lon="6.61451">
        <ele>2007</ele>
        <time>2020-07-21T08:52:16Z</time>
      </trkpt>
      <trkpt lat="45.35036" lon="6.61458">
        <ele>2008</ele>
        <time>2020-07-21T08:52:24Z</time>
      </trkpt>
      <trkpt lat="45.35031" lon="6.61465">
        <ele>2008</ele>
        <time>2020-07-21T08:52:29Z</time>
      </trkpt>
      <trkpt lat="45.35024" lon="6.6147">
        <ele>2008</ele>
        <time>2020-07-21T08:52:36Z</time>
      </trkpt>
      <trkpt lat="45.35017" lon="6.61471">
        <ele>2008</ele>
        <time>2020-07-21T08:52:43Z</time>
      </trkpt>
      <trkpt lat="45.35011" lon="6.61473">
        <ele>2008</ele>
        <time>2020-07-21T08:52:49Z</time>
      </trkpt>
      <trkpt lat="45.35005" lon="6.61478">
        <ele>2008</ele>
        <time>2020-07-21T08:52:55Z</time>
      </trkpt>
      <trkpt lat="45.34998" lon="6.61482">
        <ele>2010</ele>
        <time>2020-07-21T08:53:02Z</time>
      </trkpt>
      <trkpt lat="45.34991" lon="6.61485">
        <ele>2010</ele>
        <time>2020-07-21T08:53:09Z</time>
      </trkpt>
      <trkpt lat="45.34985" lon="6.61486">
        <ele>2010</ele>
        <time>2020-07-21T08:53:17Z</time>
      </trkpt>
      <trkpt lat="45.34978" lon="6.61482">
        <ele>2010</ele>
        <time>2020-07-21T08:53:57Z</time>
      </trkpt>
      <trkpt lat="45.34973" lon="6.61475">
        <ele>2011</ele>
        <time>2020-07-21T08:54:04Z</time>
      </trkpt>
      <trkpt lat="45.34969" lon="6.61468">
        <ele>2011</ele>
        <time>2020-07-21T08:54:10Z</time>
      </trkpt>
      <trkpt lat="45.34965" lon="6.6146">
        <ele>2011</ele>
        <time>2020-07-21T08:55:03Z</time>
      </trkpt>
      <trkpt lat="45.3497" lon="6.61466">
        <ele>2011</ele>
        <time>2020-07-21T08:58:44Z</time>
      </trkpt>
      <trkpt lat="45.34976" lon="6.61472">
        <ele>2010</ele>
        <time>2020-07-21T09:00:32Z</time>
      </trkpt>
      <trkpt lat="45.34981" lon="6.61479">
        <ele>2010</ele>
        <time>2020-07-21T09:00:41Z</time>
      </trkpt>
      <trkpt lat="45.34984" lon="6.61487">
        <ele>2010</ele>
        <time>2020-07-21T09:00:48Z</time>
      </trkpt>
      <trkpt lat="45.34979" lon="6.61496">
        <ele>2010</ele>
        <time>2020-07-21T09:00:56Z</time>
      </trkpt>
      <trkpt lat="45.34974" lon="6.61502">
        <ele>2010</ele>
        <time>2020-07-21T09:01:04Z</time>
      </trkpt>
      <trkpt lat="45.34967" lon="6.61507">
        <ele>2011</ele>
        <time>2020-07-21T09:01:10Z</time>
      </trkpt>
      <trkpt lat="45.34961" lon="6.61512">
        <ele>2011</ele>
        <time>2020-07-21T09:01:33Z</time>
      </trkpt>
      <trkpt lat="45.34955" lon="6.61514">
        <ele>2011</ele>
        <time>2020-07-21T09:01:39Z</time>
      </trkpt>
      <trkpt lat="45.34948" lon="6.61514">
        <ele>2011</ele>
        <time>2020-07-21T09:01:48Z</time>
      </trkpt>
      <trkpt lat="45.34941" lon="6.61512">
        <ele>2012</ele>
        <time>2020-07-21T09:01:56Z</time>
      </trkpt>
      <trkpt lat="45.34934" lon="6.61514">
        <ele>2012</ele>
        <time>2020-07-21T09:03:05Z</time>
      </trkpt>
      <trkpt lat="45.34929" lon="6.61521">
        <ele>2012</ele>
        <time>2020-07-21T09:03:11Z</time>
      </trkpt>
      <trkpt lat="45.34925" lon="6.61528">
        <ele>2012</ele>
        <time>2020-07-21T09:03:19Z</time>
      </trkpt>
      <trkpt lat="45.34923" lon="6.61537">
        <ele>2011</ele>
        <time>2020-07-21T09:03:25Z</time>
      </trkpt>
      <trkpt lat="45.3492" lon="6.61546">
        <ele>2011</ele>
        <time>2020-07-21T09:03:31Z</time>
      </trkpt>
      <trkpt lat="45.34915" lon="6.61554">
        <ele>2013</ele>
        <time>2020-07-21T09:03:38Z</time>
      </trkpt>
      <trkpt lat="45.3491" lon="6.6156">
        <ele>2013</ele>
        <time>2020-07-21T09:03:44Z</time>
      </trkpt>
      <trkpt lat="45.34903" lon="6.61564">
        <ele>2013</ele>
        <time>2020-07-21T09:03:51Z</time>
      </trkpt>
      <trkpt lat="45.34895" lon="6.61566">
        <ele>2014</ele>
        <time>2020-07-21T09:03:57Z</time>
      </trkpt>
      <trkpt lat="45.34888" lon="6.61568">
        <ele>2014</ele>
        <time>2020-07-21T09:04:05Z</time>
      </trkpt>
      <trkpt lat="45.34882" lon="6.61572">
        <ele>2014</ele>
        <time>2020-07-21T09:04:12Z</time>
      </trkpt>
      <trkpt lat="45.34876" lon="6.61575">
        <ele>2014</ele>
        <time>2020-07-21T09:04:18Z</time>
      </trkpt>
      <trkpt lat="45.3487" lon="6.61582">
        <ele>2015</ele>
        <time>2020-07-21T09:04:25Z</time>
      </trkpt>
      <trkpt lat="45.34864" lon="6.61586">
        <ele>2014</ele>
        <time>2020-07-21T09:04:31Z</time>
      </trkpt>
      <trkpt lat="45.34857" lon="6.6159">
        <ele>2015</ele>
        <time>2020-07-21T09:04:37Z</time>
      </trkpt>
      <trkpt lat="45.3485" lon="6.61592">
        <ele>2015</ele>
        <time>2020-07-21T09:04:45Z</time>
      </trkpt>
      <trkpt lat="45.34843" lon="6.61595">
        <ele>2015</ele>
        <time>2020-07-21T09:04:51Z</time>
      </trkpt>
      <trkpt lat="45.34837" lon="6.61598">
        <ele>2015</ele>
        <time>2020-07-21T09:04:57Z</time>
      </trkpt>
      <trkpt lat="45.3483" lon="6.61601">
        <ele>2017</ele>
        <time>2020-07-21T09:05:03Z</time>
      </trkpt>
      <trkpt lat="45.34824" lon="6.61603">
        <ele>2017</ele>
        <time>2020-07-21T09:05:09Z</time>
      </trkpt>
      <trkpt lat="45.34818" lon="6.61607">
        <ele>2017</ele>
        <time>2020-07-21T09:05:17Z</time>
      </trkpt>
      <trkpt lat="45.34811" lon="6.61611">
        <ele>2017</ele>
        <time>2020-07-21T09:05:24Z</time>
      </trkpt>
      <trkpt lat="45.34805" lon="6.61614">
        <ele>2017</ele>
        <time>2020-07-21T09:05:30Z</time>
      </trkpt>
      <trkpt lat="45.34798" lon="6.6162">
        <ele>2017</ele>
        <time>2020-07-21T09:05:37Z</time>
      </trkpt>
      <trkpt lat="45.34792" lon="6.61624">
        <ele>2017</ele>
        <time>2020-07-21T09:05:45Z</time>
      </trkpt>
      <trkpt lat="45.34785" lon="6.61626">
        <ele>2018</ele>
        <time>2020-07-21T09:05:59Z</time>
      </trkpt>
      <trkpt lat="45.3478" lon="6.61632">
        <ele>2018</ele>
        <time>2020-07-21T09:06:09Z</time>
      </trkpt>
      <trkpt lat="45.34773" lon="6.61634">
        <ele>2018</ele>
        <time>2020-07-21T09:06:18Z</time>
      </trkpt>
      <trkpt lat="45.34767" lon="6.61639">
        <ele>2018</ele>
        <time>2020-07-21T09:06:25Z</time>
      </trkpt>
      <trkpt lat="45.34761" lon="6.61644">
        <ele>2018</ele>
        <time>2020-07-21T09:06:57Z</time>
      </trkpt>
      <trkpt lat="45.34755" lon="6.61648">
        <ele>2018</ele>
        <time>2020-07-21T09:07:03Z</time>
      </trkpt>
      <trkpt lat="45.34751" lon="6.61656">
        <ele>2019</ele>
        <time>2020-07-21T09:07:09Z</time>
      </trkpt>
      <trkpt lat="45.34749" lon="6.61666">
        <ele>2019</ele>
        <time>2020-07-21T09:07:15Z</time>
      </trkpt>
      <trkpt lat="45.34744" lon="6.61675">
        <ele>2019</ele>
        <time>2020-07-21T09:07:23Z</time>
      </trkpt>
      <trkpt lat="45.34738" lon="6.61679">
        <ele>2019</ele>
        <time>2020-07-21T09:07:29Z</time>
      </trkpt>
      <trkpt lat="45.34732" lon="6.61684">
        <ele>2020</ele>
        <time>2020-07-21T09:07:36Z</time>
      </trkpt>
      <trkpt lat="45.34726" lon="6.61688">
        <ele>2020</ele>
        <time>2020-07-21T09:07:44Z</time>
      </trkpt>
      <trkpt lat="45.3472" lon="6.61693">
        <ele>2020</ele>
        <time>2020-07-21T09:07:51Z</time>
      </trkpt>
      <trkpt lat="45.34714" lon="6.61697">
        <ele>2020</ele>
        <time>2020-07-21T09:07:58Z</time>
      </trkpt>
      <trkpt lat="45.34708" lon="6.61703">
        <ele>2020</ele>
        <time>2020-07-21T09:08:05Z</time>
      </trkpt>
      <trkpt lat="45.34704" lon="6.61711">
        <ele>2020</ele>
        <time>2020-07-21T09:08:13Z</time>
      </trkpt>
      <trkpt lat="45.34698" lon="6.61717">
        <ele>2020</ele>
        <time>2020-07-21T09:08:20Z</time>
      </trkpt>
      <trkpt lat="45.34693" lon="6.61723">
        <ele>2020</ele>
        <time>2020-07-21T09:08:26Z</time>
      </trkpt>
      <trkpt lat="45.34689" lon="6.61731">
        <ele>2021</ele>
        <time>2020-07-21T09:08:34Z</time>
      </trkpt>
      <trkpt lat="45.34684" lon="6.61738">
        <ele>2021</ele>
        <time>2020-07-21T09:08:56Z</time>
      </trkpt>
      <trkpt lat="45.34679" lon="6.61744">
        <ele>2021</ele>
        <time>2020-07-21T09:09:33Z</time>
      </trkpt>
      <trkpt lat="45.34672" lon="6.61744">
        <ele>2021</ele>
        <time>2020-07-21T09:09:39Z</time>
      </trkpt>
      <trkpt lat="45.34665" lon="6.61744">
        <ele>2022</ele>
        <time>2020-07-21T09:09:45Z</time>
      </trkpt>
      <trkpt lat="45.34659" lon="6.61744">
        <ele>2022</ele>
        <time>2020-07-21T09:09:51Z</time>
      </trkpt>
      <trkpt lat="45.34652" lon="6.61744">
        <ele>2022</ele>
        <time>2020-07-21T09:09:58Z</time>
      </trkpt>
      <trkpt lat="45.34644" lon="6.61743">
        <ele>2023</ele>
        <time>2020-07-21T09:10:04Z</time>
      </trkpt>
      <trkpt lat="45.34638" lon="6.61742">
        <ele>2023</ele>
        <time>2020-07-21T09:10:10Z</time>
      </trkpt>
      <trkpt lat="45.34631" lon="6.61743">
        <ele>2023</ele>
        <time>2020-07-21T09:10:16Z</time>
      </trkpt>
      <trkpt lat="45.34624" lon="6.61739">
        <ele>2023</ele>
        <time>2020-07-21T09:10:23Z</time>
      </trkpt>
      <trkpt lat="45.34617" lon="6.61737">
        <ele>2023</ele>
        <time>2020-07-21T09:10:29Z</time>
      </trkpt>
      <trkpt lat="45.34611" lon="6.61741">
        <ele>2023</ele>
        <time>2020-07-21T09:10:35Z</time>
      </trkpt>
      <trkpt lat="45.34604" lon="6.61741">
        <ele>2023</ele>
        <time>2020-07-21T09:10:41Z</time>
      </trkpt>
      <trkpt lat="45.34597" lon="6.61739">
        <ele>2023</ele>
        <time>2020-07-21T09:10:47Z</time>
      </trkpt>
      <trkpt lat="45.34591" lon="6.61736">
        <ele>2023</ele>
        <time>2020-07-21T09:10:53Z</time>
      </trkpt>
      <trkpt lat="45.34584" lon="6.61732">
        <ele>2023</ele>
        <time>2020-07-21T09:11:00Z</time>
      </trkpt>
      <trkpt lat="45.34577" lon="6.61731">
        <ele>2029</ele>
        <time>2020-07-21T09:11:05Z</time>
      </trkpt>
      <trkpt lat="45.34572" lon="6.61725">
        <ele>2031</ele>
        <time>2020-07-21T09:11:37Z</time>
      </trkpt>
      <trkpt lat="45.34568" lon="6.61733">
        <ele>2030</ele>
        <time>2020-07-21T09:11:44Z</time>
      </trkpt>
      <trkpt lat="45.34564" lon="6.61741">
        <ele>2030</ele>
        <time>2020-07-21T09:11:52Z</time>
      </trkpt>
      <trkpt lat="45.34559" lon="6.61748">
        <ele>2031</ele>
        <time>2020-07-21T09:11:59Z</time>
      </trkpt>
      <trkpt lat="45.34553" lon="6.61753">
        <ele>2029</ele>
        <time>2020-07-21T09:12:09Z</time>
      </trkpt>
      <trkpt lat="45.34546" lon="6.61758">
        <ele>2030</ele>
        <time>2020-07-21T09:12:15Z</time>
      </trkpt>
      <trkpt lat="45.34539" lon="6.61759">
        <ele>2031</ele>
        <time>2020-07-21T09:12:22Z</time>
      </trkpt>
      <trkpt lat="45.34544" lon="6.61765">
        <ele>2030</ele>
        <time>2020-07-21T09:15:34Z</time>
      </trkpt>
      <trkpt lat="45.34552" lon="6.61765">
        <ele>2029</ele>
        <time>2020-07-21T09:16:55Z</time>
      </trkpt>
      <trkpt lat="45.3455" lon="6.61756">
        <ele>2029</ele>
        <time>2020-07-21T09:17:58Z</time>
      </trkpt>
      <trkpt lat="45.34548" lon="6.61765">
        <ele>2029</ele>
        <time>2020-07-21T09:23:28Z</time>
      </trkpt>
      <trkpt lat="45.3455" lon="6.61775">
        <ele>2029</ele>
        <time>2020-07-21T09:23:34Z</time>
      </trkpt>
      <trkpt lat="45.34551" lon="6.61785">
        <ele>2029</ele>
        <time>2020-07-21T09:23:41Z</time>
      </trkpt>
      <trkpt lat="45.34551" lon="6.61795">
        <ele>2029</ele>
        <time>2020-07-21T09:23:49Z</time>
      </trkpt>
      <trkpt lat="45.34552" lon="6.61804">
        <ele>2029</ele>
        <time>2020-07-21T09:23:57Z</time>
      </trkpt>
      <trkpt lat="45.34551" lon="6.61813">
        <ele>2029</ele>
        <time>2020-07-21T09:24:03Z</time>
      </trkpt>
      <trkpt lat="45.3455" lon="6.61823">
        <ele>2029</ele>
        <time>2020-07-21T09:24:14Z</time>
      </trkpt>
      <trkpt lat="45.34553" lon="6.61831">
        <ele>2028</ele>
        <time>2020-07-21T09:24:22Z</time>
      </trkpt>
      <trkpt lat="45.34553" lon="6.61841">
        <ele>2028</ele>
        <time>2020-07-21T09:24:51Z</time>
      </trkpt>
      <trkpt lat="45.34553" lon="6.61851">
        <ele>2028</ele>
        <time>2020-07-21T09:24:57Z</time>
      </trkpt>
      <trkpt lat="45.34554" lon="6.61861">
        <ele>2029</ele>
        <time>2020-07-21T09:25:04Z</time>
      </trkpt>
      <trkpt lat="45.34555" lon="6.61871">
        <ele>2029</ele>
        <time>2020-07-21T09:25:10Z</time>
      </trkpt>
      <trkpt lat="45.34555" lon="6.61882">
        <ele>2029</ele>
        <time>2020-07-21T09:25:18Z</time>
      </trkpt>
      <trkpt lat="45.34558" lon="6.61891">
        <ele>2029</ele>
        <time>2020-07-21T09:25:24Z</time>
      </trkpt>
      <trkpt lat="45.34555" lon="6.619">
        <ele>2029</ele>
        <time>2020-07-21T09:25:31Z</time>
      </trkpt>
      <trkpt lat="45.34552" lon="6.61909">
        <ele>2029</ele>
        <time>2020-07-21T09:25:37Z</time>
      </trkpt>
      <trkpt lat="45.34551" lon="6.61918">
        <ele>2030</ele>
        <time>2020-07-21T09:25:43Z</time>
      </trkpt>
      <trkpt lat="45.34547" lon="6.61927">
        <ele>2030</ele>
        <time>2020-07-21T09:25:51Z</time>
      </trkpt>
      <trkpt lat="45.34542" lon="6.61934">
        <ele>2031</ele>
        <time>2020-07-21T09:25:58Z</time>
      </trkpt>
      <trkpt lat="45.34538" lon="6.61941">
        <ele>2031</ele>
        <time>2020-07-21T09:26:04Z</time>
      </trkpt>
      <trkpt lat="45.34535" lon="6.61951">
        <ele>2031</ele>
        <time>2020-07-21T09:26:11Z</time>
      </trkpt>
      <trkpt lat="45.34531" lon="6.6196">
        <ele>2031</ele>
        <time>2020-07-21T09:26:19Z</time>
      </trkpt>
      <trkpt lat="45.34526" lon="6.61968">
        <ele>2031</ele>
        <time>2020-07-21T09:26:25Z</time>
      </trkpt>
      <trkpt lat="45.34523" lon="6.61977">
        <ele>2032</ele>
        <time>2020-07-21T09:26:31Z</time>
      </trkpt>
      <trkpt lat="45.3452" lon="6.61985">
        <ele>2032</ele>
        <time>2020-07-21T09:26:38Z</time>
      </trkpt>
      <trkpt lat="45.34515" lon="6.61994">
        <ele>2032</ele>
        <time>2020-07-21T09:26:45Z</time>
      </trkpt>
      <trkpt lat="45.34513" lon="6.62003">
        <ele>2033</ele>
        <time>2020-07-21T09:26:51Z</time>
      </trkpt>
      <trkpt lat="45.3451" lon="6.62013">
        <ele>2033</ele>
        <time>2020-07-21T09:26:57Z</time>
      </trkpt>
      <trkpt lat="45.34505" lon="6.62019">
        <ele>2033</ele>
        <time>2020-07-21T09:27:05Z</time>
      </trkpt>
      <trkpt lat="45.345" lon="6.62027">
        <ele>2037</ele>
        <time>2020-07-21T09:27:12Z</time>
      </trkpt>
      <trkpt lat="45.34496" lon="6.62036">
        <ele>2037</ele>
        <time>2020-07-21T09:27:18Z</time>
      </trkpt>
      <trkpt lat="45.34491" lon="6.62042">
        <ele>2038</ele>
        <time>2020-07-21T09:27:24Z</time>
      </trkpt>
      <trkpt lat="45.34487" lon="6.62049">
        <ele>2038</ele>
        <time>2020-07-21T09:27:31Z</time>
      </trkpt>
      <trkpt lat="45.34483" lon="6.62057">
        <ele>2038</ele>
        <time>2020-07-21T09:27:37Z</time>
      </trkpt>
      <trkpt lat="45.34479" lon="6.62064">
        <ele>2038</ele>
        <time>2020-07-21T09:27:43Z</time>
      </trkpt>
      <trkpt lat="45.34474" lon="6.62071">
        <ele>2038</ele>
        <time>2020-07-21T09:27:49Z</time>
      </trkpt>
      <trkpt lat="45.34468" lon="6.62078">
        <ele>2039</ele>
        <time>2020-07-21T09:27:56Z</time>
      </trkpt>
      <trkpt lat="45.34464" lon="6.62084">
        <ele>2039</ele>
        <time>2020-07-21T09:28:02Z</time>
      </trkpt>
      <trkpt lat="45.34458" lon="6.62092">
        <ele>2039</ele>
        <time>2020-07-21T09:28:09Z</time>
      </trkpt>
      <trkpt lat="45.34454" lon="6.62099">
        <ele>2039</ele>
        <time>2020-07-21T09:28:16Z</time>
      </trkpt>
      <trkpt lat="45.34451" lon="6.62108">
        <ele>2040</ele>
        <time>2020-07-21T09:28:24Z</time>
      </trkpt>
      <trkpt lat="45.34447" lon="6.62117">
        <ele>2040</ele>
        <time>2020-07-21T09:28:31Z</time>
      </trkpt>
      <trkpt lat="45.34441" lon="6.62124">
        <ele>2040</ele>
        <time>2020-07-21T09:28:38Z</time>
      </trkpt>
      <trkpt lat="45.34437" lon="6.62132">
        <ele>2040</ele>
        <time>2020-07-21T09:28:45Z</time>
      </trkpt>
      <trkpt lat="45.34432" lon="6.6214">
        <ele>2040</ele>
        <time>2020-07-21T09:28:51Z</time>
      </trkpt>
      <trkpt lat="45.34429" lon="6.62149">
        <ele>2040</ele>
        <time>2020-07-21T09:28:58Z</time>
      </trkpt>
      <trkpt lat="45.34425" lon="6.62157">
        <ele>2040</ele>
        <time>2020-07-21T09:29:06Z</time>
      </trkpt>
      <trkpt lat="45.34421" lon="6.62165">
        <ele>2040</ele>
        <time>2020-07-21T09:29:13Z</time>
      </trkpt>
      <trkpt lat="45.34417" lon="6.62174">
        <ele>2043</ele>
        <time>2020-07-21T09:29:20Z</time>
      </trkpt>
      <trkpt lat="45.34411" lon="6.62181">
        <ele>2046</ele>
        <time>2020-07-21T09:29:26Z</time>
      </trkpt>
      <trkpt lat="45.34408" lon="6.6219">
        <ele>2048</ele>
        <time>2020-07-21T09:29:32Z</time>
      </trkpt>
      <trkpt lat="45.34406" lon="6.62199">
        <ele>2049</ele>
        <time>2020-07-21T09:29:39Z</time>
      </trkpt>
      <trkpt lat="45.34402" lon="6.62207">
        <ele>2050</ele>
        <time>2020-07-21T09:29:47Z</time>
      </trkpt>
      <trkpt lat="45.34399" lon="6.62218">
        <ele>2050</ele>
        <time>2020-07-21T09:29:54Z</time>
      </trkpt>
      <trkpt lat="45.34397" lon="6.62228">
        <ele>2050</ele>
        <time>2020-07-21T09:30:01Z</time>
      </trkpt>
      <trkpt lat="45.34395" lon="6.62238">
        <ele>2049</ele>
        <time>2020-07-21T09:30:09Z</time>
      </trkpt>
      <trkpt lat="45.34392" lon="6.62246">
        <ele>2049</ele>
        <time>2020-07-21T09:30:16Z</time>
      </trkpt>
      <trkpt lat="45.34391" lon="6.62255">
        <ele>2051</ele>
        <time>2020-07-21T09:30:23Z</time>
      </trkpt>
      <trkpt lat="45.34388" lon="6.62264">
        <ele>2052</ele>
        <time>2020-07-21T09:30:30Z</time>
      </trkpt>
      <trkpt lat="45.34384" lon="6.62272">
        <ele>2053</ele>
        <time>2020-07-21T09:30:37Z</time>
      </trkpt>
      <trkpt lat="45.34381" lon="6.6228">
        <ele>2053</ele>
        <time>2020-07-21T09:30:44Z</time>
      </trkpt>
      <trkpt lat="45.3438" lon="6.6229">
        <ele>2054</ele>
        <time>2020-07-21T09:30:51Z</time>
      </trkpt>
      <trkpt lat="45.34379" lon="6.623">
        <ele>2054</ele>
        <time>2020-07-21T09:30:57Z</time>
      </trkpt>
      <trkpt lat="45.34379" lon="6.6231">
        <ele>2054</ele>
        <time>2020-07-21T09:31:04Z</time>
      </trkpt>
      <trkpt lat="45.34379" lon="6.6232">
        <ele>2054</ele>
        <time>2020-07-21T09:31:10Z</time>
      </trkpt>
      <trkpt lat="45.34375" lon="6.62328">
        <ele>2055</ele>
        <time>2020-07-21T09:31:18Z</time>
      </trkpt>
      <trkpt lat="45.34371" lon="6.62336">
        <ele>2058</ele>
        <time>2020-07-21T09:31:24Z</time>
      </trkpt>
      <trkpt lat="45.3437" lon="6.62346">
        <ele>2059</ele>
        <time>2020-07-21T09:31:32Z</time>
      </trkpt>
      <trkpt lat="45.3437" lon="6.62356">
        <ele>2059</ele>
        <time>2020-07-21T09:31:39Z</time>
      </trkpt>
      <trkpt lat="45.34368" lon="6.62366">
        <ele>2059</ele>
        <time>2020-07-21T09:31:45Z</time>
      </trkpt>
      <trkpt lat="45.34366" lon="6.62376">
        <ele>2060</ele>
        <time>2020-07-21T09:31:54Z</time>
      </trkpt>
      <trkpt lat="45.34362" lon="6.62385">
        <ele>2060</ele>
        <time>2020-07-21T09:32:00Z</time>
      </trkpt>
      <trkpt lat="45.34359" lon="6.62394">
        <ele>2061</ele>
        <time>2020-07-21T09:32:09Z</time>
      </trkpt>
      <trkpt lat="45.34357" lon="6.62403">
        <ele>2062</ele>
        <time>2020-07-21T09:32:16Z</time>
      </trkpt>
      <trkpt lat="45.34357" lon="6.62413">
        <ele>2062</ele>
        <time>2020-07-21T09:34:51Z</time>
      </trkpt>
      <trkpt lat="45.34355" lon="6.62422">
        <ele>2068</ele>
        <time>2020-07-21T09:34:59Z</time>
      </trkpt>
      <trkpt lat="45.34352" lon="6.62432">
        <ele>2068</ele>
        <time>2020-07-21T09:35:07Z</time>
      </trkpt>
      <trkpt lat="45.34352" lon="6.62442">
        <ele>2069</ele>
        <time>2020-07-21T09:35:14Z</time>
      </trkpt>
      <trkpt lat="45.34353" lon="6.62452">
        <ele>2069</ele>
        <time>2020-07-21T09:35:22Z</time>
      </trkpt>
      <trkpt lat="45.34356" lon="6.62461">
        <ele>2070</ele>
        <time>2020-07-21T09:35:30Z</time>
      </trkpt>
      <trkpt lat="45.34355" lon="6.62471">
        <ele>2071</ele>
        <time>2020-07-21T09:35:37Z</time>
      </trkpt>
      <trkpt lat="45.3435" lon="6.62479">
        <ele>2072</ele>
        <time>2020-07-21T09:35:44Z</time>
      </trkpt>
      <trkpt lat="45.3435" lon="6.62489">
        <ele>2073</ele>
        <time>2020-07-21T09:35:52Z</time>
      </trkpt>
      <trkpt lat="45.34351" lon="6.62499">
        <ele>2074</ele>
        <time>2020-07-21T09:35:59Z</time>
      </trkpt>
      <trkpt lat="45.34353" lon="6.62509">
        <ele>2081</ele>
        <time>2020-07-21T09:36:06Z</time>
      </trkpt>
      <trkpt lat="45.34354" lon="6.62518">
        <ele>2081</ele>
        <time>2020-07-21T09:36:15Z</time>
      </trkpt>
      <trkpt lat="45.34352" lon="6.62527">
        <ele>2082</ele>
        <time>2020-07-21T09:36:23Z</time>
      </trkpt>
      <trkpt lat="45.34351" lon="6.62537">
        <ele>2083</ele>
        <time>2020-07-21T09:36:31Z</time>
      </trkpt>
      <trkpt lat="45.34343" lon="6.62536">
        <ele>2083</ele>
        <time>2020-07-21T09:36:41Z</time>
      </trkpt>
      <trkpt lat="45.34338" lon="6.62531">
        <ele>2082</ele>
        <time>2020-07-21T09:36:47Z</time>
      </trkpt>
      <trkpt lat="45.34331" lon="6.6253">
        <ele>2096</ele>
        <time>2020-07-21T09:36:56Z</time>
      </trkpt>
      <trkpt lat="45.34328" lon="6.62538">
        <ele>2098</ele>
        <time>2020-07-21T09:37:03Z</time>
      </trkpt>
      <trkpt lat="45.3433" lon="6.62547">
        <ele>2099</ele>
        <time>2020-07-21T09:37:08Z</time>
      </trkpt>
      <trkpt lat="45.3433" lon="6.62558">
        <ele>2098</ele>
        <time>2020-07-21T09:37:18Z</time>
      </trkpt>
      <trkpt lat="45.34334" lon="6.62565">
        <ele>2085</ele>
        <time>2020-07-21T09:37:27Z</time>
      </trkpt>
      <trkpt lat="45.34337" lon="6.62574">
        <ele>2086</ele>
        <time>2020-07-21T09:37:35Z</time>
      </trkpt>
      <trkpt lat="45.3434" lon="6.62583">
        <ele>2086</ele>
        <time>2020-07-21T09:37:43Z</time>
      </trkpt>
      <trkpt lat="45.34344" lon="6.62591">
        <ele>2092</ele>
        <time>2020-07-21T09:37:52Z</time>
      </trkpt>
      <trkpt lat="45.34345" lon="6.626">
        <ele>2094</ele>
        <time>2020-07-21T09:38:00Z</time>
      </trkpt>
      <trkpt lat="45.34338" lon="6.62602">
        <ele>2093</ele>
        <time>2020-07-21T09:38:13Z</time>
      </trkpt>
      <trkpt lat="45.34332" lon="6.62599">
        <ele>2098</ele>
        <time>2020-07-21T09:38:20Z</time>
      </trkpt>
      <trkpt lat="45.34326" lon="6.62593">
        <ele>2096</ele>
        <time>2020-07-21T09:38:27Z</time>
      </trkpt>
      <trkpt lat="45.3432" lon="6.62591">
        <ele>2099</ele>
        <time>2020-07-21T09:38:36Z</time>
      </trkpt>
      <trkpt lat="45.34315" lon="6.62599">
        <ele>2102</ele>
        <time>2020-07-21T09:38:45Z</time>
      </trkpt>
      <trkpt lat="45.34319" lon="6.62607">
        <ele>2103</ele>
        <time>2020-07-21T09:38:52Z</time>
      </trkpt>
      <trkpt lat="45.34321" lon="6.62616">
        <ele>2104</ele>
        <time>2020-07-21T09:39:00Z</time>
      </trkpt>
      <trkpt lat="45.34324" lon="6.62626">
        <ele>2104</ele>
        <time>2020-07-21T09:39:10Z</time>
      </trkpt>
      <trkpt lat="45.34328" lon="6.62633">
        <ele>2104</ele>
        <time>2020-07-21T09:39:20Z</time>
      </trkpt>
      <trkpt lat="45.34322" lon="6.62636">
        <ele>2105</ele>
        <time>2020-07-21T09:39:30Z</time>
      </trkpt>
      <trkpt lat="45.34315" lon="6.62633">
        <ele>2106</ele>
        <time>2020-07-21T09:39:38Z</time>
      </trkpt>
      <trkpt lat="45.34308" lon="6.62633">
        <ele>2107</ele>
        <time>2020-07-21T09:39:48Z</time>
      </trkpt>
      <trkpt lat="45.34302" lon="6.62634">
        <ele>2108</ele>
        <time>2020-07-21T09:39:56Z</time>
      </trkpt>
      <trkpt lat="45.34295" lon="6.62634">
        <ele>2110</ele>
        <time>2020-07-21T09:40:06Z</time>
      </trkpt>
      <trkpt lat="45.3429" lon="6.62642">
        <ele>2111</ele>
        <time>2020-07-21T09:40:17Z</time>
      </trkpt>
      <trkpt lat="45.34289" lon="6.62652">
        <ele>2111</ele>
        <time>2020-07-21T09:40:26Z</time>
      </trkpt>
      <trkpt lat="45.34289" lon="6.62662">
        <ele>2111</ele>
        <time>2020-07-21T09:40:34Z</time>
      </trkpt>
      <trkpt lat="45.34289" lon="6.62673">
        <ele>2113</ele>
        <time>2020-07-21T09:40:44Z</time>
      </trkpt>
      <trkpt lat="45.34286" lon="6.62682">
        <ele>2113</ele>
        <time>2020-07-21T09:40:52Z</time>
      </trkpt>
      <trkpt lat="45.34281" lon="6.62689">
        <ele>2114</ele>
        <time>2020-07-21T09:41:01Z</time>
      </trkpt>
      <trkpt lat="45.34276" lon="6.62695">
        <ele>2114</ele>
        <time>2020-07-21T09:41:07Z</time>
      </trkpt>
      <trkpt lat="45.34271" lon="6.62702">
        <ele>2115</ele>
        <time>2020-07-21T09:41:15Z</time>
      </trkpt>
      <trkpt lat="45.34264" lon="6.62706">
        <ele>2115</ele>
        <time>2020-07-21T09:41:21Z</time>
      </trkpt>
      <trkpt lat="45.34255" lon="6.6271">
        <ele>2115</ele>
        <time>2020-07-21T09:41:26Z</time>
      </trkpt>
      <trkpt lat="45.34251" lon="6.62718">
        <ele>2115</ele>
        <time>2020-07-21T09:41:34Z</time>
      </trkpt>
      <trkpt lat="45.34249" lon="6.62728">
        <ele>2126</ele>
        <time>2020-07-21T09:41:40Z</time>
      </trkpt>
      <trkpt lat="45.34247" lon="6.62737">
        <ele>2124</ele>
        <time>2020-07-21T09:41:46Z</time>
      </trkpt>
      <trkpt lat="45.34244" lon="6.62746">
        <ele>2121</ele>
        <time>2020-07-21T09:41:53Z</time>
      </trkpt>
      <trkpt lat="45.3424" lon="6.62755">
        <ele>2120</ele>
        <time>2020-07-21T09:42:00Z</time>
      </trkpt>
      <trkpt lat="45.34237" lon="6.62763">
        <ele>2122</ele>
        <time>2020-07-21T09:42:08Z</time>
      </trkpt>
      <trkpt lat="45.34234" lon="6.62773">
        <ele>2123</ele>
        <time>2020-07-21T09:42:14Z</time>
      </trkpt>
      <trkpt lat="45.3423" lon="6.62782">
        <ele>2124</ele>
        <time>2020-07-21T09:42:20Z</time>
      </trkpt>
      <trkpt lat="45.34228" lon="6.62792">
        <ele>2124</ele>
        <time>2020-07-21T09:42:27Z</time>
      </trkpt>
      <trkpt lat="45.34225" lon="6.62801">
        <ele>2124</ele>
        <time>2020-07-21T09:42:35Z</time>
      </trkpt>
      <trkpt lat="45.34221" lon="6.62809">
        <ele>2124</ele>
        <time>2020-07-21T09:42:41Z</time>
      </trkpt>
      <trkpt lat="45.34215" lon="6.62814">
        <ele>2125</ele>
        <time>2020-07-21T09:42:47Z</time>
      </trkpt>
      <trkpt lat="45.34212" lon="6.62823">
        <ele>2125</ele>
        <time>2020-07-21T09:42:54Z</time>
      </trkpt>
      <trkpt lat="45.3421" lon="6.62833">
        <ele>2125</ele>
        <time>2020-07-21T09:43:01Z</time>
      </trkpt>
      <trkpt lat="45.34205" lon="6.6284">
        <ele>2125</ele>
        <time>2020-07-21T09:43:08Z</time>
      </trkpt>
      <trkpt lat="45.34202" lon="6.62848">
        <ele>2125</ele>
        <time>2020-07-21T09:43:14Z</time>
      </trkpt>
      <trkpt lat="45.34198" lon="6.62858">
        <ele>2125</ele>
        <time>2020-07-21T09:43:27Z</time>
      </trkpt>
      <trkpt lat="45.34195" lon="6.62868">
        <ele>2125</ele>
        <time>2020-07-21T09:43:33Z</time>
      </trkpt>
      <trkpt lat="45.34193" lon="6.62877">
        <ele>2125</ele>
        <time>2020-07-21T09:43:39Z</time>
      </trkpt>
      <trkpt lat="45.34191" lon="6.62886">
        <ele>2125</ele>
        <time>2020-07-21T09:43:44Z</time>
      </trkpt>
      <trkpt lat="45.34188" lon="6.62894">
        <ele>2126</ele>
        <time>2020-07-21T09:43:51Z</time>
      </trkpt>
      <trkpt lat="45.34187" lon="6.62905">
        <ele>2126</ele>
        <time>2020-07-21T09:43:58Z</time>
      </trkpt>
      <trkpt lat="45.34187" lon="6.62915">
        <ele>2126</ele>
        <time>2020-07-21T09:44:05Z</time>
      </trkpt>
      <trkpt lat="45.34186" lon="6.62925">
        <ele>2125</ele>
        <time>2020-07-21T09:44:11Z</time>
      </trkpt>
      <trkpt lat="45.34184" lon="6.62934">
        <ele>2125</ele>
        <time>2020-07-21T09:44:16Z</time>
      </trkpt>
      <trkpt lat="45.34184" lon="6.62944">
        <ele>2124</ele>
        <time>2020-07-21T09:44:24Z</time>
      </trkpt>
      <trkpt lat="45.34184" lon="6.62954">
        <ele>2124</ele>
        <time>2020-07-21T09:44:31Z</time>
      </trkpt>
      <trkpt lat="45.34184" lon="6.62965">
        <ele>2124</ele>
        <time>2020-07-21T09:44:37Z</time>
      </trkpt>
      <trkpt lat="45.34185" lon="6.62974">
        <ele>2123</ele>
        <time>2020-07-21T09:44:45Z</time>
      </trkpt>
      <trkpt lat="45.34185" lon="6.62984">
        <ele>2123</ele>
        <time>2020-07-21T09:44:51Z</time>
      </trkpt>
      <trkpt lat="45.34186" lon="6.62995">
        <ele>2122</ele>
        <time>2020-07-21T09:44:57Z</time>
      </trkpt>
      <trkpt lat="45.34188" lon="6.63005">
        <ele>2125</ele>
        <time>2020-07-21T09:45:02Z</time>
      </trkpt>
      <trkpt lat="45.34187" lon="6.63015">
        <ele>2126</ele>
        <time>2020-07-21T09:45:09Z</time>
      </trkpt>
      <trkpt lat="45.34184" lon="6.63025">
        <ele>2127</ele>
        <time>2020-07-21T09:45:16Z</time>
      </trkpt>
      <trkpt lat="45.34179" lon="6.63031">
        <ele>2127</ele>
        <time>2020-07-21T09:45:23Z</time>
      </trkpt>
      <trkpt lat="45.34173" lon="6.63038">
        <ele>2127</ele>
        <time>2020-07-21T09:45:31Z</time>
      </trkpt>
      <trkpt lat="45.34168" lon="6.63045">
        <ele>2127</ele>
        <time>2020-07-21T09:45:37Z</time>
      </trkpt>
      <trkpt lat="45.34161" lon="6.63049">
        <ele>2127</ele>
        <time>2020-07-21T09:45:44Z</time>
      </trkpt>
      <trkpt lat="45.34155" lon="6.63051">
        <ele>2128</ele>
        <time>2020-07-21T09:45:50Z</time>
      </trkpt>
      <trkpt lat="45.34149" lon="6.63056">
        <ele>2128</ele>
        <time>2020-07-21T09:45:56Z</time>
      </trkpt>
      <trkpt lat="45.34143" lon="6.63061">
        <ele>2128</ele>
        <time>2020-07-21T09:46:02Z</time>
      </trkpt>
      <trkpt lat="45.34137" lon="6.63063">
        <ele>2129</ele>
        <time>2020-07-21T09:46:09Z</time>
      </trkpt>
      <trkpt lat="45.3413" lon="6.63067">
        <ele>2129</ele>
        <time>2020-07-21T09:46:16Z</time>
      </trkpt>
      <trkpt lat="45.34124" lon="6.63071">
        <ele>2129</ele>
        <time>2020-07-21T09:46:22Z</time>
      </trkpt>
      <trkpt lat="45.34118" lon="6.63076">
        <ele>2130</ele>
        <time>2020-07-21T09:46:29Z</time>
      </trkpt>
      <trkpt lat="45.34112" lon="6.63081">
        <ele>2130</ele>
        <time>2020-07-21T09:46:36Z</time>
      </trkpt>
      <trkpt lat="45.34105" lon="6.63083">
        <ele>2130</ele>
        <time>2020-07-21T09:46:42Z</time>
      </trkpt>
      <trkpt lat="45.34098" lon="6.63084">
        <ele>2130</ele>
        <time>2020-07-21T09:46:49Z</time>
      </trkpt>
      <trkpt lat="45.34091" lon="6.63085">
        <ele>2129</ele>
        <time>2020-07-21T09:46:55Z</time>
      </trkpt>
      <trkpt lat="45.34085" lon="6.63089">
        <ele>2129</ele>
        <time>2020-07-21T09:47:02Z</time>
      </trkpt>
      <trkpt lat="45.34079" lon="6.63094">
        <ele>2130</ele>
        <time>2020-07-21T09:47:08Z</time>
      </trkpt>
      <trkpt lat="45.34074" lon="6.63101">
        <ele>2131</ele>
        <time>2020-07-21T09:47:14Z</time>
      </trkpt>
      <trkpt lat="45.34069" lon="6.63106">
        <ele>2132</ele>
        <time>2020-07-21T09:47:19Z</time>
      </trkpt>
      <trkpt lat="45.34063" lon="6.63112">
        <ele>2132</ele>
        <time>2020-07-21T09:47:26Z</time>
      </trkpt>
      <trkpt lat="45.34056" lon="6.63118">
        <ele>2133</ele>
        <time>2020-07-21T09:47:34Z</time>
      </trkpt>
      <trkpt lat="45.34049" lon="6.63122">
        <ele>2133</ele>
        <time>2020-07-21T09:47:41Z</time>
      </trkpt>
      <trkpt lat="45.34043" lon="6.63127">
        <ele>2133</ele>
        <time>2020-07-21T09:47:47Z</time>
      </trkpt>
      <trkpt lat="45.34038" lon="6.63133">
        <ele>2133</ele>
        <time>2020-07-21T09:47:53Z</time>
      </trkpt>
      <trkpt lat="45.34031" lon="6.63137">
        <ele>2133</ele>
        <time>2020-07-21T09:48:00Z</time>
      </trkpt>
      <trkpt lat="45.34025" lon="6.63143">
        <ele>2132</ele>
        <time>2020-07-21T09:48:06Z</time>
      </trkpt>
      <trkpt lat="45.3402" lon="6.63149">
        <ele>2132</ele>
        <time>2020-07-21T09:48:11Z</time>
      </trkpt>
      <trkpt lat="45.34013" lon="6.63151">
        <ele>2131</ele>
        <time>2020-07-21T09:48:40Z</time>
      </trkpt>
      <trkpt lat="45.34006" lon="6.63149">
        <ele>2131</ele>
        <time>2020-07-21T09:48:46Z</time>
      </trkpt>
      <trkpt lat="45.34" lon="6.63149">
        <ele>2135</ele>
        <time>2020-07-21T09:48:52Z</time>
      </trkpt>
      <trkpt lat="45.33993" lon="6.63149">
        <ele>2136</ele>
        <time>2020-07-21T09:48:57Z</time>
      </trkpt>
      <trkpt lat="45.33985" lon="6.63149">
        <ele>2137</ele>
        <time>2020-07-21T09:49:03Z</time>
      </trkpt>
      <trkpt lat="45.33979" lon="6.63149">
        <ele>2138</ele>
        <time>2020-07-21T09:49:47Z</time>
      </trkpt>
      <trkpt lat="45.33972" lon="6.6315">
        <ele>2139</ele>
        <time>2020-07-21T09:49:55Z</time>
      </trkpt>
      <trkpt lat="45.33965" lon="6.63151">
        <ele>2139</ele>
        <time>2020-07-21T09:50:02Z</time>
      </trkpt>
      <trkpt lat="45.33959" lon="6.63151">
        <ele>2140</ele>
        <time>2020-07-21T09:50:08Z</time>
      </trkpt>
      <trkpt lat="45.33952" lon="6.63152">
        <ele>2140</ele>
        <time>2020-07-21T09:50:16Z</time>
      </trkpt>
      <trkpt lat="45.33944" lon="6.63153">
        <ele>2140</ele>
        <time>2020-07-21T09:50:22Z</time>
      </trkpt>
      <trkpt lat="45.33937" lon="6.63154">
        <ele>2139</ele>
        <time>2020-07-21T09:50:27Z</time>
      </trkpt>
      <trkpt lat="45.3393" lon="6.63157">
        <ele>2138</ele>
        <time>2020-07-21T09:50:33Z</time>
      </trkpt>
      <trkpt lat="45.33923" lon="6.63159">
        <ele>2136</ele>
        <time>2020-07-21T09:50:41Z</time>
      </trkpt>
      <trkpt lat="45.33916" lon="6.63161">
        <ele>2135</ele>
        <time>2020-07-21T09:51:56Z</time>
      </trkpt>
      <trkpt lat="45.33909" lon="6.63162">
        <ele>2137</ele>
        <time>2020-07-21T09:52:03Z</time>
      </trkpt>
      <trkpt lat="45.33902" lon="6.63163">
        <ele>2139</ele>
        <time>2020-07-21T09:52:10Z</time>
      </trkpt>
      <trkpt lat="45.33896" lon="6.63165">
        <ele>2140</ele>
        <time>2020-07-21T09:52:17Z</time>
      </trkpt>
      <trkpt lat="45.3389" lon="6.63168">
        <ele>2130</ele>
        <time>2020-07-21T09:52:24Z</time>
      </trkpt>
      <trkpt lat="45.33883" lon="6.63174">
        <ele>2129</ele>
        <time>2020-07-21T09:52:31Z</time>
      </trkpt>
      <trkpt lat="45.33877" lon="6.63179">
        <ele>2129</ele>
        <time>2020-07-21T09:52:37Z</time>
      </trkpt>
      <trkpt lat="45.33871" lon="6.63183">
        <ele>2129</ele>
        <time>2020-07-21T09:52:43Z</time>
      </trkpt>
      <trkpt lat="45.33865" lon="6.63186">
        <ele>2129</ele>
        <time>2020-07-21T09:52:49Z</time>
      </trkpt>
      <trkpt lat="45.33858" lon="6.63189">
        <ele>2129</ele>
        <time>2020-07-21T09:52:56Z</time>
      </trkpt>
      <trkpt lat="45.33852" lon="6.63193">
        <ele>2129</ele>
        <time>2020-07-21T09:53:02Z</time>
      </trkpt>
      <trkpt lat="45.33846" lon="6.63197">
        <ele>2129</ele>
        <time>2020-07-21T09:53:09Z</time>
      </trkpt>
      <trkpt lat="45.33841" lon="6.63203">
        <ele>2128</ele>
        <time>2020-07-21T09:53:17Z</time>
      </trkpt>
      <trkpt lat="45.33836" lon="6.6321">
        <ele>2128</ele>
        <time>2020-07-21T09:54:21Z</time>
      </trkpt>
      <trkpt lat="45.33832" lon="6.63217">
        <ele>2128</ele>
        <time>2020-07-21T09:54:28Z</time>
      </trkpt>
      <trkpt lat="45.3383" lon="6.63226">
        <ele>2128</ele>
        <time>2020-07-21T09:54:36Z</time>
      </trkpt>
      <trkpt lat="45.33824" lon="6.63231">
        <ele>2127</ele>
        <time>2020-07-21T09:54:51Z</time>
      </trkpt>
      <trkpt lat="45.33818" lon="6.63236">
        <ele>2127</ele>
        <time>2020-07-21T09:54:59Z</time>
      </trkpt>
      <trkpt lat="45.33812" lon="6.63241">
        <ele>2127</ele>
        <time>2020-07-21T09:55:05Z</time>
      </trkpt>
      <trkpt lat="45.33805" lon="6.63245">
        <ele>2128</ele>
        <time>2020-07-21T09:55:12Z</time>
      </trkpt>
      <trkpt lat="45.33798" lon="6.63248">
        <ele>2128</ele>
        <time>2020-07-21T09:55:19Z</time>
      </trkpt>
      <trkpt lat="45.33792" lon="6.6325">
        <ele>2128</ele>
        <time>2020-07-21T09:55:25Z</time>
      </trkpt>
      <trkpt lat="45.33785" lon="6.63251">
        <ele>2127</ele>
        <time>2020-07-21T09:55:34Z</time>
      </trkpt>
      <trkpt lat="45.33778" lon="6.63252">
        <ele>2127</ele>
        <time>2020-07-21T09:55:40Z</time>
      </trkpt>
      <trkpt lat="45.33771" lon="6.63251">
        <ele>2127</ele>
        <time>2020-07-21T09:55:47Z</time>
      </trkpt>
      <trkpt lat="45.33764" lon="6.6325">
        <ele>2128</ele>
        <time>2020-07-21T09:55:58Z</time>
      </trkpt>
      <trkpt lat="45.33758" lon="6.63255">
        <ele>2127</ele>
        <time>2020-07-21T09:56:06Z</time>
      </trkpt>
      <trkpt lat="45.33751" lon="6.63255">
        <ele>2127</ele>
        <time>2020-07-21T09:56:16Z</time>
      </trkpt>
      <trkpt lat="45.33744" lon="6.63252">
        <ele>2127</ele>
        <time>2020-07-21T09:56:31Z</time>
      </trkpt>
      <trkpt lat="45.3374" lon="6.63245">
        <ele>2128</ele>
        <time>2020-07-21T09:56:37Z</time>
      </trkpt>
      <trkpt lat="45.33735" lon="6.6324">
        <ele>2129</ele>
        <time>2020-07-21T09:56:48Z</time>
      </trkpt>
      <trkpt lat="45.33729" lon="6.63234">
        <ele>2130</ele>
        <time>2020-07-21T09:56:56Z</time>
      </trkpt>
      <trkpt lat="45.33724" lon="6.63227">
        <ele>2130</ele>
        <time>2020-07-21T09:57:03Z</time>
      </trkpt>
      <trkpt lat="45.33719" lon="6.63222">
        <ele>2130</ele>
        <time>2020-07-21T09:57:09Z</time>
      </trkpt>
      <trkpt lat="45.33713" lon="6.63218">
        <ele>2131</ele>
        <time>2020-07-21T09:57:16Z</time>
      </trkpt>
      <trkpt lat="45.33706" lon="6.6322">
        <ele>2131</ele>
        <time>2020-07-21T09:57:23Z</time>
      </trkpt>
      <trkpt lat="45.33699" lon="6.6322">
        <ele>2131</ele>
        <time>2020-07-21T09:57:33Z</time>
      </trkpt>
      <trkpt lat="45.33734" lon="6.63241">
        <ele>2129</ele>
        <time>2020-07-21T11:31:31Z</time>
      </trkpt>
      <trkpt lat="45.33739" lon="6.63248">
        <ele>2128</ele>
        <time>2020-07-21T11:31:50Z</time>
      </trkpt>
      <trkpt lat="45.33744" lon="6.63253">
        <ele>2127</ele>
        <time>2020-07-21T11:31:57Z</time>
      </trkpt>
      <trkpt lat="45.33748" lon="6.63262">
        <ele>2127</ele>
        <time>2020-07-21T11:32:06Z</time>
      </trkpt>
      <trkpt lat="45.33747" lon="6.63271">
        <ele>2127</ele>
        <time>2020-07-21T11:32:11Z</time>
      </trkpt>
      <trkpt lat="45.33748" lon="6.63282">
        <ele>2127</ele>
        <time>2020-07-21T11:32:18Z</time>
      </trkpt>
      <trkpt lat="45.33749" lon="6.63292">
        <ele>2127</ele>
        <time>2020-07-21T11:32:24Z</time>
      </trkpt>
      <trkpt lat="45.3375" lon="6.63301">
        <ele>2127</ele>
        <time>2020-07-21T11:32:35Z</time>
      </trkpt>
      <trkpt lat="45.33753" lon="6.6331">
        <ele>2127</ele>
        <time>2020-07-21T11:32:42Z</time>
      </trkpt>
      <trkpt lat="45.33757" lon="6.63319">
        <ele>2127</ele>
        <time>2020-07-21T11:32:49Z</time>
      </trkpt>
      <trkpt lat="45.33759" lon="6.63328">
        <ele>2126</ele>
        <time>2020-07-21T11:32:57Z</time>
      </trkpt>
      <trkpt lat="45.33756" lon="6.63338">
        <ele>2127</ele>
        <time>2020-07-21T11:33:02Z</time>
      </trkpt>
      <trkpt lat="45.33753" lon="6.63346">
        <ele>2128</ele>
        <time>2020-07-21T11:33:08Z</time>
      </trkpt>
      <trkpt lat="45.33747" lon="6.63352">
        <ele>2127</ele>
        <time>2020-07-21T11:33:15Z</time>
      </trkpt>
      <trkpt lat="45.33741" lon="6.63359">
        <ele>2128</ele>
        <time>2020-07-21T11:33:21Z</time>
      </trkpt>
      <trkpt lat="45.33736" lon="6.63367">
        <ele>2128</ele>
        <time>2020-07-21T11:33:28Z</time>
      </trkpt>
      <trkpt lat="45.33733" lon="6.63375">
        <ele>2128</ele>
        <time>2020-07-21T11:33:34Z</time>
      </trkpt>
      <trkpt lat="45.3373" lon="6.63384">
        <ele>2128</ele>
        <time>2020-07-21T11:33:41Z</time>
      </trkpt>
      <trkpt lat="45.33728" lon="6.63394">
        <ele>2129</ele>
        <time>2020-07-21T11:33:48Z</time>
      </trkpt>
      <trkpt lat="45.33726" lon="6.63404">
        <ele>2129</ele>
        <time>2020-07-21T11:33:55Z</time>
      </trkpt>
      <trkpt lat="45.33724" lon="6.63414">
        <ele>2129</ele>
        <time>2020-07-21T11:34:02Z</time>
      </trkpt>
      <trkpt lat="45.33721" lon="6.63423">
        <ele>2134</ele>
        <time>2020-07-21T11:34:09Z</time>
      </trkpt>
      <trkpt lat="45.33717" lon="6.6343">
        <ele>2135</ele>
        <time>2020-07-21T11:34:16Z</time>
      </trkpt>
      <trkpt lat="45.33712" lon="6.63438">
        <ele>2135</ele>
        <time>2020-07-21T11:34:24Z</time>
      </trkpt>
      <trkpt lat="45.33707" lon="6.63445">
        <ele>2135</ele>
        <time>2020-07-21T11:34:31Z</time>
      </trkpt>
      <trkpt lat="45.33701" lon="6.6345">
        <ele>2136</ele>
        <time>2020-07-21T11:34:37Z</time>
      </trkpt>
      <trkpt lat="45.33694" lon="6.63452">
        <ele>2135</ele>
        <time>2020-07-21T11:34:42Z</time>
      </trkpt>
      <trkpt lat="45.33689" lon="6.63458">
        <ele>2136</ele>
        <time>2020-07-21T11:34:49Z</time>
      </trkpt>
      <trkpt lat="45.33685" lon="6.63466">
        <ele>2136</ele>
        <time>2020-07-21T11:34:56Z</time>
      </trkpt>
      <trkpt lat="45.33678" lon="6.6347">
        <ele>2136</ele>
        <time>2020-07-21T11:35:03Z</time>
      </trkpt>
      <trkpt lat="45.33673" lon="6.63475">
        <ele>2136</ele>
        <time>2020-07-21T11:35:10Z</time>
      </trkpt>
      <trkpt lat="45.33667" lon="6.63481">
        <ele>2136</ele>
        <time>2020-07-21T11:35:19Z</time>
      </trkpt>
      <trkpt lat="45.33661" lon="6.63487">
        <ele>2135</ele>
        <time>2020-07-21T11:35:26Z</time>
      </trkpt>
      <trkpt lat="45.33654" lon="6.63492">
        <ele>2136</ele>
        <time>2020-07-21T11:35:32Z</time>
      </trkpt>
      <trkpt lat="45.33648" lon="6.63495">
        <ele>2136</ele>
        <time>2020-07-21T11:35:40Z</time>
      </trkpt>
      <trkpt lat="45.33642" lon="6.63494">
        <ele>2136</ele>
        <time>2020-07-21T11:35:50Z</time>
      </trkpt>
      <trkpt lat="45.33635" lon="6.63497">
        <ele>2136</ele>
        <time>2020-07-21T11:35:57Z</time>
      </trkpt>
      <trkpt lat="45.3363" lon="6.63501">
        <ele>2146</ele>
        <time>2020-07-21T11:36:05Z</time>
      </trkpt>
      <trkpt lat="45.33622" lon="6.63504">
        <ele>2146</ele>
        <time>2020-07-21T11:36:15Z</time>
      </trkpt>
      <trkpt lat="45.33616" lon="6.63508">
        <ele>2146</ele>
        <time>2020-07-21T11:36:23Z</time>
      </trkpt>
      <trkpt lat="45.3361" lon="6.63512">
        <ele>2147</ele>
        <time>2020-07-21T11:36:31Z</time>
      </trkpt>
      <trkpt lat="45.33605" lon="6.63518">
        <ele>2147</ele>
        <time>2020-07-21T11:36:49Z</time>
      </trkpt>
      <trkpt lat="45.33599" lon="6.63524">
        <ele>2148</ele>
        <time>2020-07-21T11:37:01Z</time>
      </trkpt>
      <trkpt lat="45.33596" lon="6.63532">
        <ele>2149</ele>
        <time>2020-07-21T11:37:12Z</time>
      </trkpt>
      <trkpt lat="45.33596" lon="6.63541">
        <ele>2151</ele>
        <time>2020-07-21T11:37:18Z</time>
      </trkpt>
      <trkpt lat="45.33596" lon="6.63552">
        <ele>2152</ele>
        <time>2020-07-21T11:37:26Z</time>
      </trkpt>
      <trkpt lat="45.33594" lon="6.63561">
        <ele>2154</ele>
        <time>2020-07-21T11:37:35Z</time>
      </trkpt>
      <trkpt lat="45.33588" lon="6.63567">
        <ele>2156</ele>
        <time>2020-07-21T11:37:42Z</time>
      </trkpt>
      <trkpt lat="45.33583" lon="6.63574">
        <ele>2159</ele>
        <time>2020-07-21T11:37:50Z</time>
      </trkpt>
      <trkpt lat="45.33577" lon="6.63578">
        <ele>2159</ele>
        <time>2020-07-21T11:38:00Z</time>
      </trkpt>
      <trkpt lat="45.3357" lon="6.6358">
        <ele>2158</ele>
        <time>2020-07-21T11:38:08Z</time>
      </trkpt>
      <trkpt lat="45.33563" lon="6.6358">
        <ele>2157</ele>
        <time>2020-07-21T11:38:16Z</time>
      </trkpt>
      <trkpt lat="45.33557" lon="6.63585">
        <ele>2168</ele>
        <time>2020-07-21T11:38:25Z</time>
      </trkpt>
      <trkpt lat="45.33551" lon="6.63591">
        <ele>2168</ele>
        <time>2020-07-21T11:38:34Z</time>
      </trkpt>
      <trkpt lat="45.33547" lon="6.636">
        <ele>2169</ele>
        <time>2020-07-21T11:38:41Z</time>
      </trkpt>
      <trkpt lat="45.33545" lon="6.63609">
        <ele>2170</ele>
        <time>2020-07-21T11:38:53Z</time>
      </trkpt>
      <trkpt lat="45.33543" lon="6.63618">
        <ele>2172</ele>
        <time>2020-07-21T11:39:01Z</time>
      </trkpt>
      <trkpt lat="45.33539" lon="6.63626">
        <ele>2173</ele>
        <time>2020-07-21T11:39:13Z</time>
      </trkpt>
      <trkpt lat="45.33532" lon="6.63626">
        <ele>2172</ele>
        <time>2020-07-21T11:39:20Z</time>
      </trkpt>
      <trkpt lat="45.33525" lon="6.63626">
        <ele>2172</ele>
        <time>2020-07-21T11:39:29Z</time>
      </trkpt>
      <trkpt lat="45.33518" lon="6.63626">
        <ele>2172</ele>
        <time>2020-07-21T11:39:39Z</time>
      </trkpt>
      <trkpt lat="45.33512" lon="6.63626">
        <ele>2172</ele>
        <time>2020-07-21T11:39:52Z</time>
      </trkpt>
      <trkpt lat="45.33505" lon="6.63626">
        <ele>2172</ele>
        <time>2020-07-21T11:40:03Z</time>
      </trkpt>
      <trkpt lat="45.335" lon="6.63632">
        <ele>2174</ele>
        <time>2020-07-21T11:40:18Z</time>
      </trkpt>
      <trkpt lat="45.33494" lon="6.63636">
        <ele>2174</ele>
        <time>2020-07-21T11:40:34Z</time>
      </trkpt>
      <trkpt lat="45.33488" lon="6.63639">
        <ele>2175</ele>
        <time>2020-07-21T11:40:54Z</time>
      </trkpt>
      <trkpt lat="45.3348" lon="6.63639">
        <ele>2175</ele>
        <time>2020-07-21T11:41:05Z</time>
      </trkpt>
      <trkpt lat="45.33474" lon="6.63645">
        <ele>2176</ele>
        <time>2020-07-21T11:41:18Z</time>
      </trkpt>
      <trkpt lat="45.33469" lon="6.6365">
        <ele>2176</ele>
        <time>2020-07-21T11:41:33Z</time>
      </trkpt>
      <trkpt lat="45.33466" lon="6.63659">
        <ele>2177</ele>
        <time>2020-07-21T11:41:43Z</time>
      </trkpt>
      <trkpt lat="45.3346" lon="6.63662">
        <ele>2178</ele>
        <time>2020-07-21T11:41:57Z</time>
      </trkpt>
      <trkpt lat="45.33454" lon="6.63667">
        <ele>2196</ele>
        <time>2020-07-21T11:42:13Z</time>
      </trkpt>
      <trkpt lat="45.3346" lon="6.63672">
        <ele>2196</ele>
        <time>2020-07-21T11:42:38Z</time>
      </trkpt>
      <trkpt lat="45.33467" lon="6.63672">
        <ele>2195</ele>
        <time>2020-07-21T11:42:49Z</time>
      </trkpt>
      <trkpt lat="45.33473" lon="6.63676">
        <ele>2194</ele>
        <time>2020-07-21T11:43:00Z</time>
      </trkpt>
      <trkpt lat="45.33479" lon="6.63678">
        <ele>2193</ele>
        <time>2020-07-21T11:43:09Z</time>
      </trkpt>
      <trkpt lat="45.33481" lon="6.63688">
        <ele>2195</ele>
        <time>2020-07-21T11:45:07Z</time>
      </trkpt>
      <trkpt lat="45.33476" lon="6.63694">
        <ele>2197</ele>
        <time>2020-07-21T11:45:18Z</time>
      </trkpt>
      <trkpt lat="45.33468" lon="6.63697">
        <ele>2198</ele>
        <time>2020-07-21T11:45:28Z</time>
      </trkpt>
      <trkpt lat="45.33462" lon="6.63699">
        <ele>2199</ele>
        <time>2020-07-21T11:45:34Z</time>
      </trkpt>
      <trkpt lat="45.33455" lon="6.63703">
        <ele>2201</ele>
        <time>2020-07-21T11:45:44Z</time>
      </trkpt>
      <trkpt lat="45.3345" lon="6.63709">
        <ele>2202</ele>
        <time>2020-07-21T11:45:54Z</time>
      </trkpt>
      <trkpt lat="45.33444" lon="6.63712">
        <ele>2203</ele>
        <time>2020-07-21T11:46:04Z</time>
      </trkpt>
      <trkpt lat="45.33449" lon="6.63718">
        <ele>2204</ele>
        <time>2020-07-21T11:46:21Z</time>
      </trkpt>
      <trkpt lat="45.33454" lon="6.63724">
        <ele>2205</ele>
        <time>2020-07-21T11:46:29Z</time>
      </trkpt>
      <trkpt lat="45.3346" lon="6.63729">
        <ele>2205</ele>
        <time>2020-07-21T11:46:41Z</time>
      </trkpt>
      <trkpt lat="45.33466" lon="6.63735">
        <ele>2205</ele>
        <time>2020-07-21T11:46:53Z</time>
      </trkpt>
      <trkpt lat="45.33471" lon="6.63741">
        <ele>2205</ele>
        <time>2020-07-21T11:47:06Z</time>
      </trkpt>
      <trkpt lat="45.33465" lon="6.63747">
        <ele>2206</ele>
        <time>2020-07-21T11:48:35Z</time>
      </trkpt>
      <trkpt lat="45.33458" lon="6.63749">
        <ele>2207</ele>
        <time>2020-07-21T11:48:47Z</time>
      </trkpt>
      <trkpt lat="45.33452" lon="6.63755">
        <ele>2223</ele>
        <time>2020-07-21T11:49:04Z</time>
      </trkpt>
      <trkpt lat="45.33453" lon="6.63764">
        <ele>2224</ele>
        <time>2020-07-21T11:49:28Z</time>
      </trkpt>
      <trkpt lat="45.33447" lon="6.63768">
        <ele>2225</ele>
        <time>2020-07-21T11:49:43Z</time>
      </trkpt>
      <trkpt lat="45.33442" lon="6.63774">
        <ele>2226</ele>
        <time>2020-07-21T11:49:52Z</time>
      </trkpt>
      <trkpt lat="45.33437" lon="6.63779">
        <ele>2227</ele>
        <time>2020-07-21T11:50:02Z</time>
      </trkpt>
      <trkpt lat="45.33433" lon="6.63787">
        <ele>2228</ele>
        <time>2020-07-21T11:50:14Z</time>
      </trkpt>
      <trkpt lat="45.33426" lon="6.63791">
        <ele>2229</ele>
        <time>2020-07-21T11:50:25Z</time>
      </trkpt>
      <trkpt lat="45.33421" lon="6.63796">
        <ele>2230</ele>
        <time>2020-07-21T11:50:54Z</time>
      </trkpt>
      <trkpt lat="45.33417" lon="6.63803">
        <ele>2231</ele>
        <time>2020-07-21T11:51:03Z</time>
      </trkpt>
      <trkpt lat="45.33412" lon="6.6381">
        <ele>2242</ele>
        <time>2020-07-21T11:51:15Z</time>
      </trkpt>
      <trkpt lat="45.33407" lon="6.63816">
        <ele>2242</ele>
        <time>2020-07-21T11:51:41Z</time>
      </trkpt>
      <trkpt lat="45.33404" lon="6.63825">
        <ele>2243</ele>
        <time>2020-07-21T11:51:51Z</time>
      </trkpt>
      <trkpt lat="45.334" lon="6.63832">
        <ele>2244</ele>
        <time>2020-07-21T11:52:00Z</time>
      </trkpt>
      <trkpt lat="45.33395" lon="6.63839">
        <ele>2256</ele>
        <time>2020-07-21T11:52:08Z</time>
      </trkpt>
      <trkpt lat="45.3339" lon="6.63847">
        <ele>2258</ele>
        <time>2020-07-21T11:52:19Z</time>
      </trkpt>
      <trkpt lat="45.33385" lon="6.63853">
        <ele>2260</ele>
        <time>2020-07-21T11:52:26Z</time>
      </trkpt>
      <trkpt lat="45.33382" lon="6.63861">
        <ele>2262</ele>
        <time>2020-07-21T11:52:50Z</time>
      </trkpt>
      <trkpt lat="45.33376" lon="6.63866">
        <ele>2263</ele>
        <time>2020-07-21T11:52:59Z</time>
      </trkpt>
      <trkpt lat="45.3337" lon="6.63871">
        <ele>2265</ele>
        <time>2020-07-21T11:53:08Z</time>
      </trkpt>
      <trkpt lat="45.33364" lon="6.63876">
        <ele>2266</ele>
        <time>2020-07-21T11:53:17Z</time>
      </trkpt>
      <trkpt lat="45.33359" lon="6.63883">
        <ele>2268</ele>
        <time>2020-07-21T11:53:26Z</time>
      </trkpt>
      <trkpt lat="45.33352" lon="6.63885">
        <ele>2270</ele>
        <time>2020-07-21T11:53:35Z</time>
      </trkpt>
      <trkpt lat="45.33346" lon="6.63888">
        <ele>2272</ele>
        <time>2020-07-21T11:53:43Z</time>
      </trkpt>
      <trkpt lat="45.33339" lon="6.63889">
        <ele>2273</ele>
        <time>2020-07-21T11:54:56Z</time>
      </trkpt>
      <trkpt lat="45.33333" lon="6.63889">
        <ele>2288</ele>
        <time>2020-07-21T11:55:07Z</time>
      </trkpt>
      <trkpt lat="45.33326" lon="6.63886">
        <ele>2288</ele>
        <time>2020-07-21T11:55:17Z</time>
      </trkpt>
      <trkpt lat="45.33322" lon="6.63878">
        <ele>2287</ele>
        <time>2020-07-21T11:55:26Z</time>
      </trkpt>
      <trkpt lat="45.33317" lon="6.63884">
        <ele>2288</ele>
        <time>2020-07-21T11:55:35Z</time>
      </trkpt>
      <trkpt lat="45.33315" lon="6.63893">
        <ele>2289</ele>
        <time>2020-07-21T11:55:43Z</time>
      </trkpt>
      <trkpt lat="45.3332" lon="6.63901">
        <ele>2290</ele>
        <time>2020-07-21T11:55:52Z</time>
      </trkpt>
      <trkpt lat="45.33325" lon="6.63906">
        <ele>2290</ele>
        <time>2020-07-21T11:56:00Z</time>
      </trkpt>
      <trkpt lat="45.33329" lon="6.63914">
        <ele>2290</ele>
        <time>2020-07-21T11:56:11Z</time>
      </trkpt>
      <trkpt lat="45.33333" lon="6.6392">
        <ele>2289</ele>
        <time>2020-07-21T11:56:21Z</time>
      </trkpt>
      <trkpt lat="45.33339" lon="6.63926">
        <ele>2287</ele>
        <time>2020-07-21T11:56:29Z</time>
      </trkpt>
      <trkpt lat="45.33345" lon="6.63932">
        <ele>2286</ele>
        <time>2020-07-21T11:56:36Z</time>
      </trkpt>
      <trkpt lat="45.3335" lon="6.6394">
        <ele>2285</ele>
        <time>2020-07-21T11:56:44Z</time>
      </trkpt>
      <trkpt lat="45.33353" lon="6.63948">
        <ele>2285</ele>
        <time>2020-07-21T11:56:53Z</time>
      </trkpt>
      <trkpt lat="45.3336" lon="6.6395">
        <ele>2284</ele>
        <time>2020-07-21T11:57:02Z</time>
      </trkpt>
      <trkpt lat="45.33365" lon="6.63956">
        <ele>2284</ele>
        <time>2020-07-21T11:57:09Z</time>
      </trkpt>
      <trkpt lat="45.33372" lon="6.63958">
        <ele>2282</ele>
        <time>2020-07-21T11:57:17Z</time>
      </trkpt>
      <trkpt lat="45.33372" lon="6.63968">
        <ele>2283</ele>
        <time>2020-07-21T11:57:31Z</time>
      </trkpt>
      <trkpt lat="45.3337" lon="6.63977">
        <ele>2285</ele>
        <time>2020-07-21T11:58:32Z</time>
      </trkpt>
      <trkpt lat="45.33366" lon="6.63985">
        <ele>2287</ele>
        <time>2020-07-21T11:58:41Z</time>
      </trkpt>
      <trkpt lat="45.33365" lon="6.63994">
        <ele>2288</ele>
        <time>2020-07-21T11:58:48Z</time>
      </trkpt>
      <trkpt lat="45.33367" lon="6.64004">
        <ele>2299</ele>
        <time>2020-07-21T11:58:56Z</time>
      </trkpt>
      <trkpt lat="45.33369" lon="6.64015">
        <ele>2299</ele>
        <time>2020-07-21T11:59:05Z</time>
      </trkpt>
      <trkpt lat="45.33371" lon="6.64024">
        <ele>2300</ele>
        <time>2020-07-21T11:59:14Z</time>
      </trkpt>
      <trkpt lat="45.3337" lon="6.64033">
        <ele>2301</ele>
        <time>2020-07-21T11:59:23Z</time>
      </trkpt>
      <trkpt lat="45.3337" lon="6.64043">
        <ele>2302</ele>
        <time>2020-07-21T12:00:28Z</time>
      </trkpt>
      <trkpt lat="45.33365" lon="6.64049">
        <ele>2304</ele>
        <time>2020-07-21T12:00:39Z</time>
      </trkpt>
      <trkpt lat="45.3336" lon="6.64056">
        <ele>2307</ele>
        <time>2020-07-21T12:00:49Z</time>
      </trkpt>
      <trkpt lat="45.33355" lon="6.64061">
        <ele>2309</ele>
        <time>2020-07-21T12:01:00Z</time>
      </trkpt>
      <trkpt lat="45.3335" lon="6.64068">
        <ele>2313</ele>
        <time>2020-07-21T12:01:11Z</time>
      </trkpt>
      <trkpt lat="45.33343" lon="6.6407">
        <ele>2316</ele>
        <time>2020-07-21T12:01:23Z</time>
      </trkpt>
      <trkpt lat="45.33336" lon="6.6407">
        <ele>2318</ele>
        <time>2020-07-21T12:01:33Z</time>
      </trkpt>
      <trkpt lat="45.33338" lon="6.64078">
        <ele>2323</ele>
        <time>2020-07-21T12:01:42Z</time>
      </trkpt>
      <trkpt lat="45.33342" lon="6.64086">
        <ele>2326</ele>
        <time>2020-07-21T12:01:53Z</time>
      </trkpt>
      <trkpt lat="45.33345" lon="6.64095">
        <ele>2324</ele>
        <time>2020-07-21T12:02:06Z</time>
      </trkpt>
      <trkpt lat="45.33346" lon="6.64105">
        <ele>2322</ele>
        <time>2020-07-21T12:03:14Z</time>
      </trkpt>
      <trkpt lat="45.3334" lon="6.64109">
        <ele>2322</ele>
        <time>2020-07-21T12:03:25Z</time>
      </trkpt>
      <trkpt lat="45.33334" lon="6.64112">
        <ele>2323</ele>
        <time>2020-07-21T12:03:36Z</time>
      </trkpt>
      <trkpt lat="45.33327" lon="6.64115">
        <ele>2339</ele>
        <time>2020-07-21T12:03:46Z</time>
      </trkpt>
      <trkpt lat="45.33321" lon="6.64121">
        <ele>2340</ele>
        <time>2020-07-21T12:03:54Z</time>
      </trkpt>
      <trkpt lat="45.33317" lon="6.64129">
        <ele>2340</ele>
        <time>2020-07-21T12:04:03Z</time>
      </trkpt>
      <trkpt lat="45.33316" lon="6.64139">
        <ele>2340</ele>
        <time>2020-07-21T12:04:12Z</time>
      </trkpt>
      <trkpt lat="45.33313" lon="6.64148">
        <ele>2340</ele>
        <time>2020-07-21T12:04:21Z</time>
      </trkpt>
      <trkpt lat="45.33309" lon="6.64156">
        <ele>2340</ele>
        <time>2020-07-21T12:04:30Z</time>
      </trkpt>
      <trkpt lat="45.33309" lon="6.64165">
        <ele>2340</ele>
        <time>2020-07-21T12:04:37Z</time>
      </trkpt>
      <trkpt lat="45.33306" lon="6.64174">
        <ele>2340</ele>
        <time>2020-07-21T12:04:44Z</time>
      </trkpt>
      <trkpt lat="45.33305" lon="6.64184">
        <ele>2341</ele>
        <time>2020-07-21T12:04:52Z</time>
      </trkpt>
      <trkpt lat="45.33305" lon="6.64194">
        <ele>2342</ele>
        <time>2020-07-21T12:04:59Z</time>
      </trkpt>
      <trkpt lat="45.33303" lon="6.64204">
        <ele>2342</ele>
        <time>2020-07-21T12:05:06Z</time>
      </trkpt>
      <trkpt lat="45.33303" lon="6.64214">
        <ele>2342</ele>
        <time>2020-07-21T12:05:13Z</time>
      </trkpt>
      <trkpt lat="45.33298" lon="6.64222">
        <ele>2343</ele>
        <time>2020-07-21T12:05:20Z</time>
      </trkpt>
      <trkpt lat="45.33296" lon="6.64231">
        <ele>2343</ele>
        <time>2020-07-21T12:05:27Z</time>
      </trkpt>
      <trkpt lat="45.33296" lon="6.64242">
        <ele>2343</ele>
        <time>2020-07-21T12:05:34Z</time>
      </trkpt>
      <trkpt lat="45.33297" lon="6.64252">
        <ele>2342</ele>
        <time>2020-07-21T12:05:41Z</time>
      </trkpt>
      <trkpt lat="45.33295" lon="6.64261">
        <ele>2342</ele>
        <time>2020-07-21T12:05:47Z</time>
      </trkpt>
      <trkpt lat="45.33294" lon="6.64271">
        <ele>2343</ele>
        <time>2020-07-21T12:05:52Z</time>
      </trkpt>
      <trkpt lat="45.33294" lon="6.6428">
        <ele>2343</ele>
        <time>2020-07-21T12:05:59Z</time>
      </trkpt>
      <trkpt lat="45.33289" lon="6.64287">
        <ele>2344</ele>
        <time>2020-07-21T12:11:12Z</time>
      </trkpt>
      <trkpt lat="45.33288" lon="6.64296">
        <ele>2344</ele>
        <time>2020-07-21T12:11:17Z</time>
      </trkpt>
      <trkpt lat="45.33284" lon="6.64305">
        <ele>2344</ele>
        <time>2020-07-21T12:11:23Z</time>
      </trkpt>
      <trkpt lat="45.33281" lon="6.64313">
        <ele>2345</ele>
        <time>2020-07-21T12:11:29Z</time>
      </trkpt>
      <trkpt lat="45.3328" lon="6.64324">
        <ele>2345</ele>
        <time>2020-07-21T12:11:35Z</time>
      </trkpt>
      <trkpt lat="45.33279" lon="6.64334">
        <ele>2347</ele>
        <time>2020-07-21T12:11:42Z</time>
      </trkpt>
      <trkpt lat="45.33277" lon="6.64343">
        <ele>2347</ele>
        <time>2020-07-21T12:11:48Z</time>
      </trkpt>
      <trkpt lat="45.33275" lon="6.64353">
        <ele>2347</ele>
        <time>2020-07-21T12:11:55Z</time>
      </trkpt>
      <trkpt lat="45.33274" lon="6.64362">
        <ele>2347</ele>
        <time>2020-07-21T12:12:01Z</time>
      </trkpt>
      <trkpt lat="45.33273" lon="6.64371">
        <ele>2347</ele>
        <time>2020-07-21T12:12:06Z</time>
      </trkpt>
      <trkpt lat="45.33271" lon="6.64381">
        <ele>2347</ele>
        <time>2020-07-21T12:12:12Z</time>
      </trkpt>
      <trkpt lat="45.33268" lon="6.6439">
        <ele>2347</ele>
        <time>2020-07-21T12:12:17Z</time>
      </trkpt>
      <trkpt lat="45.33266" lon="6.64399">
        <ele>2347</ele>
        <time>2020-07-21T12:12:23Z</time>
      </trkpt>
      <trkpt lat="45.33263" lon="6.64408">
        <ele>2347</ele>
        <time>2020-07-21T12:12:29Z</time>
      </trkpt>
      <trkpt lat="45.33262" lon="6.64418">
        <ele>2350</ele>
        <time>2020-07-21T12:12:36Z</time>
      </trkpt>
      <trkpt lat="45.33259" lon="6.64427">
        <ele>2350</ele>
        <time>2020-07-21T12:12:42Z</time>
      </trkpt>
      <trkpt lat="45.33256" lon="6.64437">
        <ele>2350</ele>
        <time>2020-07-21T12:12:50Z</time>
      </trkpt>
      <trkpt lat="45.33255" lon="6.64446">
        <ele>2351</ele>
        <time>2020-07-21T12:12:56Z</time>
      </trkpt>
      <trkpt lat="45.33252" lon="6.64455">
        <ele>2351</ele>
        <time>2020-07-21T12:13:02Z</time>
      </trkpt>
      <trkpt lat="45.33249" lon="6.64463">
        <ele>2355</ele>
        <time>2020-07-21T12:13:09Z</time>
      </trkpt>
      <trkpt lat="45.33246" lon="6.64472">
        <ele>2355</ele>
        <time>2020-07-21T12:13:15Z</time>
      </trkpt>
      <trkpt lat="45.33242" lon="6.64481">
        <ele>2355</ele>
        <time>2020-07-21T12:13:21Z</time>
      </trkpt>
      <trkpt lat="45.3324" lon="6.64489">
        <ele>2354</ele>
        <time>2020-07-21T12:13:28Z</time>
      </trkpt>
      <trkpt lat="45.33235" lon="6.64497">
        <ele>2354</ele>
        <time>2020-07-21T12:13:36Z</time>
      </trkpt>
      <trkpt lat="45.33232" lon="6.64507">
        <ele>2356</ele>
        <time>2020-07-21T12:13:43Z</time>
      </trkpt>
      <trkpt lat="45.33231" lon="6.64517">
        <ele>2357</ele>
        <time>2020-07-21T12:13:49Z</time>
      </trkpt>
      <trkpt lat="45.33228" lon="6.64526">
        <ele>2358</ele>
        <time>2020-07-21T12:13:56Z</time>
      </trkpt>
      <trkpt lat="45.33226" lon="6.64536">
        <ele>2359</ele>
        <time>2020-07-21T12:14:02Z</time>
      </trkpt>
      <trkpt lat="45.33226" lon="6.64546">
        <ele>2359</ele>
        <time>2020-07-21T12:14:08Z</time>
      </trkpt>
      <trkpt lat="45.33225" lon="6.64556">
        <ele>2359</ele>
        <time>2020-07-21T12:14:14Z</time>
      </trkpt>
      <trkpt lat="45.33222" lon="6.64565">
        <ele>2359</ele>
        <time>2020-07-21T12:14:20Z</time>
      </trkpt>
      <trkpt lat="45.3322" lon="6.64575">
        <ele>2359</ele>
        <time>2020-07-21T12:14:26Z</time>
      </trkpt>
      <trkpt lat="45.33217" lon="6.64584">
        <ele>2360</ele>
        <time>2020-07-21T12:14:32Z</time>
      </trkpt>
      <trkpt lat="45.33215" lon="6.64593">
        <ele>2361</ele>
        <time>2020-07-21T12:14:38Z</time>
      </trkpt>
      <trkpt lat="45.33212" lon="6.64601">
        <ele>2361</ele>
        <time>2020-07-21T12:14:45Z</time>
      </trkpt>
      <trkpt lat="45.33208" lon="6.64611">
        <ele>2361</ele>
        <time>2020-07-21T12:15:24Z</time>
      </trkpt>
      <trkpt lat="45.33205" lon="6.64619">
        <ele>2361</ele>
        <time>2020-07-21T12:15:30Z</time>
      </trkpt>
      <trkpt lat="45.33201" lon="6.64627">
        <ele>2361</ele>
        <time>2020-07-21T12:15:37Z</time>
      </trkpt>
      <trkpt lat="45.33196" lon="6.64636">
        <ele>2361</ele>
        <time>2020-07-21T12:15:43Z</time>
      </trkpt>
      <trkpt lat="45.33192" lon="6.64644">
        <ele>2361</ele>
        <time>2020-07-21T12:15:48Z</time>
      </trkpt>
      <trkpt lat="45.33188" lon="6.64653">
        <ele>2361</ele>
        <time>2020-07-21T12:15:54Z</time>
      </trkpt>
      <trkpt lat="45.33185" lon="6.64662">
        <ele>2361</ele>
        <time>2020-07-21T12:16:00Z</time>
      </trkpt>
      <trkpt lat="45.33184" lon="6.64672">
        <ele>2361</ele>
        <time>2020-07-21T12:16:06Z</time>
      </trkpt>
      <trkpt lat="45.33181" lon="6.6468">
        <ele>2361</ele>
        <time>2020-07-21T12:16:12Z</time>
      </trkpt>
      <trkpt lat="45.33179" lon="6.64691">
        <ele>2360</ele>
        <time>2020-07-21T12:16:19Z</time>
      </trkpt>
      <trkpt lat="45.33177" lon="6.647">
        <ele>2360</ele>
        <time>2020-07-21T12:16:26Z</time>
      </trkpt>
      <trkpt lat="45.33179" lon="6.64691">
        <ele>2360</ele>
        <time>2020-07-21T12:22:43Z</time>
      </trkpt>
      <trkpt lat="45.33178" lon="6.6468">
        <ele>2361</ele>
        <time>2020-07-21T12:22:50Z</time>
      </trkpt>
      <trkpt lat="45.33182" lon="6.64671">
        <ele>2361</ele>
        <time>2020-07-21T12:22:59Z</time>
      </trkpt>
      <trkpt lat="45.33184" lon="6.64661">
        <ele>2361</ele>
        <time>2020-07-21T12:23:20Z</time>
      </trkpt>
      <trkpt lat="45.33182" lon="6.64651">
        <ele>2361</ele>
        <time>2020-07-21T12:23:29Z</time>
      </trkpt>
      <trkpt lat="45.33184" lon="6.64641">
        <ele>2362</ele>
        <time>2020-07-21T12:23:35Z</time>
      </trkpt>
      <trkpt lat="45.33184" lon="6.64632">
        <ele>2362</ele>
        <time>2020-07-21T12:23:42Z</time>
      </trkpt>
      <trkpt lat="45.33186" lon="6.64622">
        <ele>2362</ele>
        <time>2020-07-21T12:23:48Z</time>
      </trkpt>
      <trkpt lat="45.33188" lon="6.64613">
        <ele>2362</ele>
        <time>2020-07-21T12:23:55Z</time>
      </trkpt>
      <trkpt lat="45.3319" lon="6.64603">
        <ele>2362</ele>
        <time>2020-07-21T12:24:03Z</time>
      </trkpt>
      <trkpt lat="45.33191" lon="6.64592">
        <ele>2362</ele>
        <time>2020-07-21T12:24:13Z</time>
      </trkpt>
      <trkpt lat="45.33189" lon="6.64582">
        <ele>2362</ele>
        <time>2020-07-21T12:24:22Z</time>
      </trkpt>
      <trkpt lat="45.33189" lon="6.64573">
        <ele>2362</ele>
        <time>2020-07-21T12:24:29Z</time>
      </trkpt>
      <trkpt lat="45.33186" lon="6.64564">
        <ele>2362</ele>
        <time>2020-07-21T12:24:37Z</time>
      </trkpt>
      <trkpt lat="45.33184" lon="6.64555">
        <ele>2362</ele>
        <time>2020-07-21T12:24:45Z</time>
      </trkpt>
      <trkpt lat="45.3318" lon="6.64547">
        <ele>2362</ele>
        <time>2020-07-21T12:24:53Z</time>
      </trkpt>
      <trkpt lat="45.33177" lon="6.64538">
        <ele>2363</ele>
        <time>2020-07-21T12:24:59Z</time>
      </trkpt>
      <trkpt lat="45.33177" lon="6.64529">
        <ele>2363</ele>
        <time>2020-07-21T12:25:08Z</time>
      </trkpt>
      <trkpt lat="45.33175" lon="6.6452">
        <ele>2364</ele>
        <time>2020-07-21T12:25:16Z</time>
      </trkpt>
      <trkpt lat="45.33174" lon="6.6451">
        <ele>2366</ele>
        <time>2020-07-21T12:25:24Z</time>
      </trkpt>
      <trkpt lat="45.33169" lon="6.64502">
        <ele>2369</ele>
        <time>2020-07-21T12:25:31Z</time>
      </trkpt>
      <trkpt lat="45.3317" lon="6.64493">
        <ele>2367</ele>
        <time>2020-07-21T12:25:41Z</time>
      </trkpt>
      <trkpt lat="45.33169" lon="6.64483">
        <ele>2365</ele>
        <time>2020-07-21T12:25:47Z</time>
      </trkpt>
      <trkpt lat="45.33165" lon="6.64474">
        <ele>2376</ele>
        <time>2020-07-21T12:25:55Z</time>
      </trkpt>
      <trkpt lat="45.33161" lon="6.64467">
        <ele>2377</ele>
        <time>2020-07-21T12:26:01Z</time>
      </trkpt>
      <trkpt lat="45.33157" lon="6.64458">
        <ele>2377</ele>
        <time>2020-07-21T12:26:07Z</time>
      </trkpt>
      <trkpt lat="45.33159" lon="6.64449">
        <ele>2376</ele>
        <time>2020-07-21T12:26:22Z</time>
      </trkpt>
      <trkpt lat="45.33151" lon="6.64442">
        <ele>2376</ele>
        <time>2020-07-21T12:26:27Z</time>
      </trkpt>
      <trkpt lat="45.33147" lon="6.64434">
        <ele>2376</ele>
        <time>2020-07-21T12:26:33Z</time>
      </trkpt>
      <trkpt lat="45.33147" lon="6.64424">
        <ele>2375</ele>
        <time>2020-07-21T12:26:41Z</time>
      </trkpt>
      <trkpt lat="45.33143" lon="6.64415">
        <ele>2371</ele>
        <time>2020-07-21T12:26:48Z</time>
      </trkpt>
      <trkpt lat="45.33137" lon="6.6441">
        <ele>2372</ele>
        <time>2020-07-21T12:26:53Z</time>
      </trkpt>
      <trkpt lat="45.33132" lon="6.64402">
        <ele>2373</ele>
        <time>2020-07-21T12:27:00Z</time>
      </trkpt>
      <trkpt lat="45.3313" lon="6.64393">
        <ele>2373</ele>
        <time>2020-07-21T12:27:08Z</time>
      </trkpt>
      <trkpt lat="45.3313" lon="6.64383">
        <ele>2372</ele>
        <time>2020-07-21T12:27:16Z</time>
      </trkpt>
      <trkpt lat="45.33133" lon="6.64373">
        <ele>2372</ele>
        <time>2020-07-21T12:27:24Z</time>
      </trkpt>
      <trkpt lat="45.33136" lon="6.64365">
        <ele>2371</ele>
        <time>2020-07-21T12:27:31Z</time>
      </trkpt>
      <trkpt lat="45.33135" lon="6.64355">
        <ele>2371</ele>
        <time>2020-07-21T12:27:37Z</time>
      </trkpt>
      <trkpt lat="45.33133" lon="6.64345">
        <ele>2371</ele>
        <time>2020-07-21T12:27:43Z</time>
      </trkpt>
      <trkpt lat="45.33135" lon="6.64335">
        <ele>2370</ele>
        <time>2020-07-21T12:27:49Z</time>
      </trkpt>
      <trkpt lat="45.33134" lon="6.64324">
        <ele>2366</ele>
        <time>2020-07-21T12:27:56Z</time>
      </trkpt>
      <trkpt lat="45.3313" lon="6.64317">
        <ele>2366</ele>
        <time>2020-07-21T12:28:03Z</time>
      </trkpt>
      <trkpt lat="45.33126" lon="6.64308">
        <ele>2365</ele>
        <time>2020-07-21T12:28:11Z</time>
      </trkpt>
      <trkpt lat="45.33121" lon="6.643">
        <ele>2365</ele>
        <time>2020-07-21T12:28:20Z</time>
      </trkpt>
      <trkpt lat="45.33119" lon="6.64291">
        <ele>2365</ele>
        <time>2020-07-21T12:28:27Z</time>
      </trkpt>
      <trkpt lat="45.33113" lon="6.64285">
        <ele>2364</ele>
        <time>2020-07-21T12:29:10Z</time>
      </trkpt>
      <trkpt lat="45.3311" lon="6.64276">
        <ele>2364</ele>
        <time>2020-07-21T12:29:19Z</time>
      </trkpt>
      <trkpt lat="45.33111" lon="6.64267">
        <ele>2364</ele>
        <time>2020-07-21T12:29:27Z</time>
      </trkpt>
      <trkpt lat="45.3311" lon="6.64257">
        <ele>2363</ele>
        <time>2020-07-21T12:29:34Z</time>
      </trkpt>
      <trkpt lat="45.33111" lon="6.64247">
        <ele>2361</ele>
        <time>2020-07-21T12:29:43Z</time>
      </trkpt>
      <trkpt lat="45.3311" lon="6.64237">
        <ele>2360</ele>
        <time>2020-07-21T12:29:50Z</time>
      </trkpt>
      <trkpt lat="45.3311" lon="6.64228">
        <ele>2360</ele>
        <time>2020-07-21T12:29:57Z</time>
      </trkpt>
      <trkpt lat="45.33107" lon="6.64219">
        <ele>2360</ele>
        <time>2020-07-21T12:30:03Z</time>
      </trkpt>
      <trkpt lat="45.33108" lon="6.64208">
        <ele>2360</ele>
        <time>2020-07-21T12:30:10Z</time>
      </trkpt>
      <trkpt lat="45.33107" lon="6.64198">
        <ele>2360</ele>
        <time>2020-07-21T12:30:17Z</time>
      </trkpt>
      <trkpt lat="45.3311" lon="6.64189">
        <ele>2359</ele>
        <time>2020-07-21T12:30:23Z</time>
      </trkpt>
      <trkpt lat="45.33114" lon="6.6418">
        <ele>2359</ele>
        <time>2020-07-21T12:30:30Z</time>
      </trkpt>
      <trkpt lat="45.33118" lon="6.64172">
        <ele>2359</ele>
        <time>2020-07-21T12:30:38Z</time>
      </trkpt>
      <trkpt lat="45.33115" lon="6.64164">
        <ele>2358</ele>
        <time>2020-07-21T12:33:06Z</time>
      </trkpt>
      <trkpt lat="45.33122" lon="6.64165">
        <ele>2358</ele>
        <time>2020-07-21T12:34:40Z</time>
      </trkpt>
      <trkpt lat="45.33127" lon="6.64158">
        <ele>2358</ele>
        <time>2020-07-21T12:34:46Z</time>
      </trkpt>
      <trkpt lat="45.33132" lon="6.64152">
        <ele>2358</ele>
        <time>2020-07-21T12:35:09Z</time>
      </trkpt>
      <trkpt lat="45.33135" lon="6.64143">
        <ele>2358</ele>
        <time>2020-07-21T12:35:18Z</time>
      </trkpt>
      <trkpt lat="45.33138" lon="6.64133">
        <ele>2358</ele>
        <time>2020-07-21T12:35:25Z</time>
      </trkpt>
      <trkpt lat="45.33139" lon="6.64123">
        <ele>2358</ele>
        <time>2020-07-21T12:35:31Z</time>
      </trkpt>
      <trkpt lat="45.33142" lon="6.64112">
        <ele>2358</ele>
        <time>2020-07-21T12:35:38Z</time>
      </trkpt>
      <trkpt lat="45.33143" lon="6.64103">
        <ele>2358</ele>
        <time>2020-07-21T12:35:45Z</time>
      </trkpt>
      <trkpt lat="45.33145" lon="6.64093">
        <ele>2358</ele>
        <time>2020-07-21T12:36:01Z</time>
      </trkpt>
      <trkpt lat="45.33146" lon="6.64084">
        <ele>2358</ele>
        <time>2020-07-21T12:36:51Z</time>
      </trkpt>
      <trkpt lat="45.33147" lon="6.64074">
        <ele>2358</ele>
        <time>2020-07-21T12:36:58Z</time>
      </trkpt>
      <trkpt lat="45.33148" lon="6.64065">
        <ele>2358</ele>
        <time>2020-07-21T12:37:04Z</time>
      </trkpt>
      <trkpt lat="45.33148" lon="6.64055">
        <ele>2358</ele>
        <time>2020-07-21T12:37:10Z</time>
      </trkpt>
      <trkpt lat="45.33145" lon="6.64046">
        <ele>2358</ele>
        <time>2020-07-21T12:37:47Z</time>
      </trkpt>
      <trkpt lat="45.33153" lon="6.64044">
        <ele>2357</ele>
        <time>2020-07-21T12:38:15Z</time>
      </trkpt>
      <trkpt lat="45.33159" lon="6.64038">
        <ele>2357</ele>
        <time>2020-07-21T12:38:21Z</time>
      </trkpt>
      <trkpt lat="45.33165" lon="6.64032">
        <ele>2356</ele>
        <time>2020-07-21T12:38:30Z</time>
      </trkpt>
      <trkpt lat="45.33171" lon="6.64028">
        <ele>2350</ele>
        <time>2020-07-21T12:38:38Z</time>
      </trkpt>
      <trkpt lat="45.33171" lon="6.64018">
        <ele>2350</ele>
        <time>2020-07-21T12:38:51Z</time>
      </trkpt>
      <trkpt lat="45.33176" lon="6.64011">
        <ele>2349</ele>
        <time>2020-07-21T12:38:59Z</time>
      </trkpt>
      <trkpt lat="45.33181" lon="6.64004">
        <ele>2349</ele>
        <time>2020-07-21T12:39:07Z</time>
      </trkpt>
      <trkpt lat="45.33184" lon="6.63995">
        <ele>2342</ele>
        <time>2020-07-21T12:39:15Z</time>
      </trkpt>
      <trkpt lat="45.33185" lon="6.63986">
        <ele>2340</ele>
        <time>2020-07-21T12:39:22Z</time>
      </trkpt>
      <trkpt lat="45.33188" lon="6.63977">
        <ele>2339</ele>
        <time>2020-07-21T12:39:30Z</time>
      </trkpt>
      <trkpt lat="45.33194" lon="6.63972">
        <ele>2337</ele>
        <time>2020-07-21T12:39:40Z</time>
      </trkpt>
      <trkpt lat="45.33198" lon="6.63964">
        <ele>2336</ele>
        <time>2020-07-21T12:39:49Z</time>
      </trkpt>
      <trkpt lat="45.33203" lon="6.63958">
        <ele>2335</ele>
        <time>2020-07-21T12:39:57Z</time>
      </trkpt>
      <trkpt lat="45.3321" lon="6.63955">
        <ele>2334</ele>
        <time>2020-07-21T12:40:16Z</time>
      </trkpt>
      <trkpt lat="45.33217" lon="6.63951">
        <ele>2333</ele>
        <time>2020-07-21T12:40:23Z</time>
      </trkpt>
      <trkpt lat="45.33223" lon="6.63955">
        <ele>2332</ele>
        <time>2020-07-21T12:40:33Z</time>
      </trkpt>
      <trkpt lat="45.3323" lon="6.63956">
        <ele>2332</ele>
        <time>2020-07-21T12:40:42Z</time>
      </trkpt>
      <trkpt lat="45.33234" lon="6.63949">
        <ele>2330</ele>
        <time>2020-07-21T12:40:54Z</time>
      </trkpt>
      <trkpt lat="45.33241" lon="6.63951">
        <ele>2330</ele>
        <time>2020-07-21T12:41:04Z</time>
      </trkpt>
      <trkpt lat="45.33244" lon="6.63943">
        <ele>2328</ele>
        <time>2020-07-21T12:41:21Z</time>
      </trkpt>
      <trkpt lat="45.33251" lon="6.63944">
        <ele>2316</ele>
        <time>2020-07-21T12:41:53Z</time>
      </trkpt>
      <trkpt lat="45.33258" lon="6.63941">
        <ele>2315</ele>
        <time>2020-07-21T12:42:03Z</time>
      </trkpt>
      <trkpt lat="45.33265" lon="6.63941">
        <ele>2315</ele>
        <time>2020-07-21T12:42:26Z</time>
      </trkpt>
      <trkpt lat="45.33271" lon="6.63936">
        <ele>2314</ele>
        <time>2020-07-21T12:42:40Z</time>
      </trkpt>
      <trkpt lat="45.33274" lon="6.63928">
        <ele>2313</ele>
        <time>2020-07-21T12:43:13Z</time>
      </trkpt>
      <trkpt lat="45.33276" lon="6.63919">
        <ele>2312</ele>
        <time>2020-07-21T12:43:23Z</time>
      </trkpt>
      <trkpt lat="45.33279" lon="6.63909">
        <ele>2297</ele>
        <time>2020-07-21T12:43:34Z</time>
      </trkpt>
      <trkpt lat="45.33284" lon="6.63902">
        <ele>2295</ele>
        <time>2020-07-21T12:43:43Z</time>
      </trkpt>
      <trkpt lat="45.33289" lon="6.63896">
        <ele>2293</ele>
        <time>2020-07-21T12:44:00Z</time>
      </trkpt>
      <trkpt lat="45.33296" lon="6.63896">
        <ele>2292</ele>
        <time>2020-07-21T12:44:13Z</time>
      </trkpt>
      <trkpt lat="45.33303" lon="6.63897">
        <ele>2291</ele>
        <time>2020-07-21T12:44:23Z</time>
      </trkpt>
      <trkpt lat="45.33309" lon="6.63891">
        <ele>2290</ele>
        <time>2020-07-21T12:44:32Z</time>
      </trkpt>
      <trkpt lat="45.33314" lon="6.63897">
        <ele>2290</ele>
        <time>2020-07-21T12:44:39Z</time>
      </trkpt>
      <trkpt lat="45.33314" lon="6.63887">
        <ele>2289</ele>
        <time>2020-07-21T12:45:37Z</time>
      </trkpt>
      <trkpt lat="45.33316" lon="6.63878">
        <ele>2287</ele>
        <time>2020-07-21T12:45:44Z</time>
      </trkpt>
      <trkpt lat="45.33321" lon="6.63884">
        <ele>2288</ele>
        <time>2020-07-21T12:45:56Z</time>
      </trkpt>
      <trkpt lat="45.33328" lon="6.63885">
        <ele>2287</ele>
        <time>2020-07-21T12:46:03Z</time>
      </trkpt>
      <trkpt lat="45.33335" lon="6.63889">
        <ele>2273</ele>
        <time>2020-07-21T12:46:09Z</time>
      </trkpt>
      <trkpt lat="45.33342" lon="6.63888">
        <ele>2272</ele>
        <time>2020-07-21T12:46:15Z</time>
      </trkpt>
      <trkpt lat="45.33349" lon="6.63888">
        <ele>2271</ele>
        <time>2020-07-21T12:46:21Z</time>
      </trkpt>
      <trkpt lat="45.33355" lon="6.63883">
        <ele>2269</ele>
        <time>2020-07-21T12:46:28Z</time>
      </trkpt>
      <trkpt lat="45.33361" lon="6.63879">
        <ele>2267</ele>
        <time>2020-07-21T12:46:35Z</time>
      </trkpt>
      <trkpt lat="45.33365" lon="6.63872">
        <ele>2266</ele>
        <time>2020-07-21T12:46:41Z</time>
      </trkpt>
      <trkpt lat="45.33372" lon="6.63869">
        <ele>2264</ele>
        <time>2020-07-21T12:46:47Z</time>
      </trkpt>
      <trkpt lat="45.33378" lon="6.63865">
        <ele>2263</ele>
        <time>2020-07-21T12:46:54Z</time>
      </trkpt>
      <trkpt lat="45.33384" lon="6.6386">
        <ele>2261</ele>
        <time>2020-07-21T12:47:00Z</time>
      </trkpt>
      <trkpt lat="45.33387" lon="6.63852">
        <ele>2260</ele>
        <time>2020-07-21T12:47:05Z</time>
      </trkpt>
      <trkpt lat="45.33392" lon="6.63845">
        <ele>2258</ele>
        <time>2020-07-21T12:47:11Z</time>
      </trkpt>
      <trkpt lat="45.33395" lon="6.63837">
        <ele>2256</ele>
        <time>2020-07-21T12:47:16Z</time>
      </trkpt>
      <trkpt lat="45.334" lon="6.63829">
        <ele>2243</ele>
        <time>2020-07-21T12:47:22Z</time>
      </trkpt>
      <trkpt lat="45.33406" lon="6.63824">
        <ele>2243</ele>
        <time>2020-07-21T12:47:30Z</time>
      </trkpt>
      <trkpt lat="45.33406" lon="6.63814">
        <ele>2242</ele>
        <time>2020-07-21T12:47:38Z</time>
      </trkpt>
      <trkpt lat="45.3341" lon="6.63807">
        <ele>2241</ele>
        <time>2020-07-21T12:47:47Z</time>
      </trkpt>
      <trkpt lat="45.33417" lon="6.63802">
        <ele>2231</ele>
        <time>2020-07-21T12:47:54Z</time>
      </trkpt>
      <trkpt lat="45.33423" lon="6.63795">
        <ele>2230</ele>
        <time>2020-07-21T12:48:00Z</time>
      </trkpt>
      <trkpt lat="45.33429" lon="6.63789">
        <ele>2228</ele>
        <time>2020-07-21T12:48:09Z</time>
      </trkpt>
      <trkpt lat="45.33434" lon="6.63783">
        <ele>2227</ele>
        <time>2020-07-21T12:48:18Z</time>
      </trkpt>
      <trkpt lat="45.33439" lon="6.63777">
        <ele>2226</ele>
        <time>2020-07-21T12:48:26Z</time>
      </trkpt>
      <trkpt lat="45.33444" lon="6.6377">
        <ele>2225</ele>
        <time>2020-07-21T12:49:17Z</time>
      </trkpt>
      <trkpt lat="45.3345" lon="6.63767">
        <ele>2224</ele>
        <time>2020-07-21T12:49:24Z</time>
      </trkpt>
      <trkpt lat="45.33448" lon="6.63758">
        <ele>2224</ele>
        <time>2020-07-21T12:49:39Z</time>
      </trkpt>
      <trkpt lat="45.33453" lon="6.63751">
        <ele>2223</ele>
        <time>2020-07-21T12:49:49Z</time>
      </trkpt>
      <trkpt lat="45.33459" lon="6.63747">
        <ele>2207</ele>
        <time>2020-07-21T12:49:58Z</time>
      </trkpt>
      <trkpt lat="45.33466" lon="6.63748">
        <ele>2206</ele>
        <time>2020-07-21T12:50:07Z</time>
      </trkpt>
      <trkpt lat="45.33472" lon="6.63742">
        <ele>2205</ele>
        <time>2020-07-21T12:50:14Z</time>
      </trkpt>
      <trkpt lat="45.33469" lon="6.63732">
        <ele>2204</ele>
        <time>2020-07-21T12:50:22Z</time>
      </trkpt>
      <trkpt lat="45.33462" lon="6.63729">
        <ele>2204</ele>
        <time>2020-07-21T12:50:30Z</time>
      </trkpt>
      <trkpt lat="45.33456" lon="6.63725">
        <ele>2205</ele>
        <time>2020-07-21T12:50:37Z</time>
      </trkpt>
      <trkpt lat="45.3345" lon="6.6372">
        <ele>2205</ele>
        <time>2020-07-21T12:50:45Z</time>
      </trkpt>
      <trkpt lat="45.33443" lon="6.63717">
        <ele>2205</ele>
        <time>2020-07-21T12:50:54Z</time>
      </trkpt>
      <trkpt lat="45.33448" lon="6.63709">
        <ele>2202</ele>
        <time>2020-07-21T12:51:07Z</time>
      </trkpt>
      <trkpt lat="45.33454" lon="6.63705">
        <ele>2201</ele>
        <time>2020-07-21T12:51:13Z</time>
      </trkpt>
      <trkpt lat="45.33459" lon="6.63698">
        <ele>2199</ele>
        <time>2020-07-21T12:52:00Z</time>
      </trkpt>
      <trkpt lat="45.33466" lon="6.63695">
        <ele>2198</ele>
        <time>2020-07-21T12:52:08Z</time>
      </trkpt>
      <trkpt lat="45.33472" lon="6.63691">
        <ele>2197</ele>
        <time>2020-07-21T12:52:21Z</time>
      </trkpt>
      <trkpt lat="45.33478" lon="6.63686">
        <ele>2195</ele>
        <time>2020-07-21T12:52:30Z</time>
      </trkpt>
      <trkpt lat="45.33484" lon="6.63682">
        <ele>2193</ele>
        <time>2020-07-21T12:52:38Z</time>
      </trkpt>
      <trkpt lat="45.33479" lon="6.63675">
        <ele>2192</ele>
        <time>2020-07-21T12:52:50Z</time>
      </trkpt>
      <trkpt lat="45.33472" lon="6.63674">
        <ele>2194</ele>
        <time>2020-07-21T12:52:58Z</time>
      </trkpt>
      <trkpt lat="45.33466" lon="6.6367">
        <ele>2195</ele>
        <time>2020-07-21T12:53:08Z</time>
      </trkpt>
      <trkpt lat="45.33459" lon="6.63668">
        <ele>2195</ele>
        <time>2020-07-21T12:53:19Z</time>
      </trkpt>
      <trkpt lat="45.3346" lon="6.63658">
        <ele>2177</ele>
        <time>2020-07-21T12:53:48Z</time>
      </trkpt>
      <trkpt lat="45.33465" lon="6.63652">
        <ele>2177</ele>
        <time>2020-07-21T12:54:10Z</time>
      </trkpt>
      <trkpt lat="45.33471" lon="6.63646">
        <ele>2176</ele>
        <time>2020-07-21T12:54:20Z</time>
      </trkpt>
      <trkpt lat="45.33477" lon="6.63642">
        <ele>2175</ele>
        <time>2020-07-21T12:54:30Z</time>
      </trkpt>
      <trkpt lat="45.33484" lon="6.63639">
        <ele>2175</ele>
        <time>2020-07-21T12:54:40Z</time>
      </trkpt>
      <trkpt lat="45.3349" lon="6.63638">
        <ele>2175</ele>
        <time>2020-07-21T12:54:49Z</time>
      </trkpt>
      <trkpt lat="45.33496" lon="6.63632">
        <ele>2174</ele>
        <time>2020-07-21T12:54:56Z</time>
      </trkpt>
      <trkpt lat="45.33501" lon="6.63627">
        <ele>2172</ele>
        <time>2020-07-21T12:55:10Z</time>
      </trkpt>
      <trkpt lat="45.33508" lon="6.63624">
        <ele>2171</ele>
        <time>2020-07-21T12:55:22Z</time>
      </trkpt>
      <trkpt lat="45.33515" lon="6.63626">
        <ele>2172</ele>
        <time>2020-07-21T12:55:31Z</time>
      </trkpt>
      <trkpt lat="45.33521" lon="6.63627">
        <ele>2172</ele>
        <time>2020-07-21T12:55:39Z</time>
      </trkpt>
      <trkpt lat="45.33528" lon="6.63625">
        <ele>2172</ele>
        <time>2020-07-21T12:55:47Z</time>
      </trkpt>
      <trkpt lat="45.33534" lon="6.63623">
        <ele>2172</ele>
        <time>2020-07-21T12:56:18Z</time>
      </trkpt>
      <trkpt lat="45.33539" lon="6.63616">
        <ele>2171</ele>
        <time>2020-07-21T12:56:26Z</time>
      </trkpt>
      <trkpt lat="45.33541" lon="6.63607">
        <ele>2170</ele>
        <time>2020-07-21T12:56:37Z</time>
      </trkpt>
      <trkpt lat="45.33545" lon="6.63598">
        <ele>2169</ele>
        <time>2020-07-21T12:56:47Z</time>
      </trkpt>
      <trkpt lat="45.33549" lon="6.6359">
        <ele>2168</ele>
        <time>2020-07-21T12:56:56Z</time>
      </trkpt>
      <trkpt lat="45.33554" lon="6.63584">
        <ele>2168</ele>
        <time>2020-07-21T12:57:02Z</time>
      </trkpt>
      <trkpt lat="45.33561" lon="6.63582">
        <ele>2156</ele>
        <time>2020-07-21T12:57:09Z</time>
      </trkpt>
      <trkpt lat="45.33567" lon="6.63576">
        <ele>2157</ele>
        <time>2020-07-21T12:57:17Z</time>
      </trkpt>
      <trkpt lat="45.33574" lon="6.63573">
        <ele>2158</ele>
        <time>2020-07-21T12:57:26Z</time>
      </trkpt>
      <trkpt lat="45.3358" lon="6.63569">
        <ele>2157</ele>
        <time>2020-07-21T12:57:33Z</time>
      </trkpt>
      <trkpt lat="45.33586" lon="6.63562">
        <ele>2155</ele>
        <time>2020-07-21T12:57:39Z</time>
      </trkpt>
      <trkpt lat="45.33592" lon="6.63557">
        <ele>2154</ele>
        <time>2020-07-21T12:57:46Z</time>
      </trkpt>
      <trkpt lat="45.33595" lon="6.63548">
        <ele>2152</ele>
        <time>2020-07-21T12:57:53Z</time>
      </trkpt>
      <trkpt lat="45.33595" lon="6.63538">
        <ele>2150</ele>
        <time>2020-07-21T12:58:00Z</time>
      </trkpt>
      <trkpt lat="45.33597" lon="6.63529">
        <ele>2148</ele>
        <time>2020-07-21T12:58:06Z</time>
      </trkpt>
      <trkpt lat="45.336" lon="6.6352">
        <ele>2147</ele>
        <time>2020-07-21T12:58:14Z</time>
      </trkpt>
      <trkpt lat="45.33607" lon="6.63516">
        <ele>2147</ele>
        <time>2020-07-21T12:58:23Z</time>
      </trkpt>
      <trkpt lat="45.33613" lon="6.6351">
        <ele>2147</ele>
        <time>2020-07-21T12:58:31Z</time>
      </trkpt>
      <trkpt lat="45.33619" lon="6.63508">
        <ele>2146</ele>
        <time>2020-07-21T12:58:37Z</time>
      </trkpt>
      <trkpt lat="45.33626" lon="6.63505">
        <ele>2146</ele>
        <time>2020-07-21T12:58:44Z</time>
      </trkpt>
      <trkpt lat="45.33633" lon="6.63502">
        <ele>2145</ele>
        <time>2020-07-21T12:58:52Z</time>
      </trkpt>
      <trkpt lat="45.3364" lon="6.635">
        <ele>2136</ele>
        <time>2020-07-21T12:59:00Z</time>
      </trkpt>
      <trkpt lat="45.33646" lon="6.63498">
        <ele>2136</ele>
        <time>2020-07-21T12:59:08Z</time>
      </trkpt>
      <trkpt lat="45.33653" lon="6.635">
        <ele>2136</ele>
        <time>2020-07-21T12:59:15Z</time>
      </trkpt>
      <trkpt lat="45.33659" lon="6.63493">
        <ele>2136</ele>
        <time>2020-07-21T12:59:21Z</time>
      </trkpt>
      <trkpt lat="45.33666" lon="6.6349">
        <ele>2136</ele>
        <time>2020-07-21T12:59:27Z</time>
      </trkpt>
      <trkpt lat="45.33671" lon="6.63484">
        <ele>2136</ele>
        <time>2020-07-21T12:59:33Z</time>
      </trkpt>
      <trkpt lat="45.33676" lon="6.63477">
        <ele>2136</ele>
        <time>2020-07-21T12:59:38Z</time>
      </trkpt>
      <trkpt lat="45.33681" lon="6.6347">
        <ele>2136</ele>
        <time>2020-07-21T12:59:45Z</time>
      </trkpt>
      <trkpt lat="45.33686" lon="6.63465">
        <ele>2136</ele>
        <time>2020-07-21T12:59:51Z</time>
      </trkpt>
      <trkpt lat="45.33693" lon="6.6346">
        <ele>2136</ele>
        <time>2020-07-21T12:59:57Z</time>
      </trkpt>
      <trkpt lat="45.33699" lon="6.63455">
        <ele>2136</ele>
        <time>2020-07-21T13:00:03Z</time>
      </trkpt>
      <trkpt lat="45.33707" lon="6.63453">
        <ele>2136</ele>
        <time>2020-07-21T13:00:08Z</time>
      </trkpt>
      <trkpt lat="45.33712" lon="6.63446">
        <ele>2136</ele>
        <time>2020-07-21T13:00:14Z</time>
      </trkpt>
      <trkpt lat="45.33717" lon="6.63441">
        <ele>2135</ele>
        <time>2020-07-21T13:00:21Z</time>
      </trkpt>
      <trkpt lat="45.33723" lon="6.63434">
        <ele>2135</ele>
        <time>2020-07-21T13:00:28Z</time>
      </trkpt>
      <trkpt lat="45.33728" lon="6.63428">
        <ele>2134</ele>
        <time>2020-07-21T13:00:34Z</time>
      </trkpt>
      <trkpt lat="45.3373" lon="6.63418">
        <ele>2134</ele>
        <time>2020-07-21T13:00:41Z</time>
      </trkpt>
      <trkpt lat="45.33731" lon="6.63408">
        <ele>2129</ele>
        <time>2020-07-21T13:00:48Z</time>
      </trkpt>
      <trkpt lat="45.33732" lon="6.63398">
        <ele>2129</ele>
        <time>2020-07-21T13:00:54Z</time>
      </trkpt>
      <trkpt lat="45.33732" lon="6.63389">
        <ele>2129</ele>
        <time>2020-07-21T13:01:01Z</time>
      </trkpt>
      <trkpt lat="45.33734" lon="6.6338">
        <ele>2128</ele>
        <time>2020-07-21T13:01:07Z</time>
      </trkpt>
      <trkpt lat="45.33737" lon="6.63371">
        <ele>2128</ele>
        <time>2020-07-21T13:01:14Z</time>
      </trkpt>
      <trkpt lat="45.33741" lon="6.63363">
        <ele>2128</ele>
        <time>2020-07-21T13:01:21Z</time>
      </trkpt>
      <trkpt lat="45.33744" lon="6.63354">
        <ele>2127</ele>
        <time>2020-07-21T13:01:27Z</time>
      </trkpt>
      <trkpt lat="45.3375" lon="6.63348">
        <ele>2127</ele>
        <time>2020-07-21T13:01:34Z</time>
      </trkpt>
      <trkpt lat="45.33755" lon="6.63341">
        <ele>2128</ele>
        <time>2020-07-21T13:01:41Z</time>
      </trkpt>
      <trkpt lat="45.33758" lon="6.63332">
        <ele>2126</ele>
        <time>2020-07-21T13:01:47Z</time>
      </trkpt>
      <trkpt lat="45.33758" lon="6.63323">
        <ele>2127</ele>
        <time>2020-07-21T13:01:54Z</time>
      </trkpt>
      <trkpt lat="45.33755" lon="6.63314">
        <ele>2127</ele>
        <time>2020-07-21T13:02:01Z</time>
      </trkpt>
      <trkpt lat="45.33752" lon="6.63305">
        <ele>2127</ele>
        <time>2020-07-21T13:02:07Z</time>
      </trkpt>
      <trkpt lat="45.33751" lon="6.63295">
        <ele>2127</ele>
        <time>2020-07-21T13:02:14Z</time>
      </trkpt>
      <trkpt lat="45.33747" lon="6.63287">
        <ele>2127</ele>
        <time>2020-07-21T13:04:59Z</time>
      </trkpt>
      <trkpt lat="45.33749" lon="6.63277">
        <ele>2127</ele>
        <time>2020-07-21T13:05:06Z</time>
      </trkpt>
      <trkpt lat="45.33751" lon="6.63268">
        <ele>2127</ele>
        <time>2020-07-21T13:05:12Z</time>
      </trkpt>
      <trkpt lat="45.33752" lon="6.63259">
        <ele>2127</ele>
        <time>2020-07-21T13:05:20Z</time>
      </trkpt>
      <trkpt lat="45.33759" lon="6.63261">
        <ele>2127</ele>
        <time>2020-07-21T13:05:35Z</time>
      </trkpt>
      <trkpt lat="45.33754" lon="6.63254">
        <ele>2127</ele>
        <time>2020-07-21T13:08:28Z</time>
      </trkpt>
      <trkpt lat="45.33748" lon="6.63249">
        <ele>2127</ele>
        <time>2020-07-21T13:08:35Z</time>
      </trkpt>
      <trkpt lat="45.33742" lon="6.63245">
        <ele>2128</ele>
        <time>2020-07-21T13:08:41Z</time>
      </trkpt>
      <trkpt lat="45.33736" lon="6.63242">
        <ele>2129</ele>
        <time>2020-07-21T13:08:46Z</time>
      </trkpt>
      <trkpt lat="45.3373" lon="6.63236">
        <ele>2129</ele>
        <time>2020-07-21T13:08:53Z</time>
      </trkpt>
      <trkpt lat="45.33725" lon="6.6323">
        <ele>2130</ele>
        <time>2020-07-21T13:09:00Z</time>
      </trkpt>
      <trkpt lat="45.3372" lon="6.63225">
        <ele>2130</ele>
        <time>2020-07-21T13:09:09Z</time>
      </trkpt>
      <trkpt lat="45.33723" lon="6.63233">
        <ele>2130</ele>
        <time>2020-07-21T13:09:38Z</time>
      </trkpt>
      <trkpt lat="45.3373" lon="6.63237">
        <ele>2129</ele>
        <time>2020-07-21T13:09:47Z</time>
      </trkpt>
      <trkpt lat="45.33736" lon="6.63242">
        <ele>2129</ele>
        <time>2020-07-21T13:09:55Z</time>
      </trkpt>
      <trkpt lat="45.33741" lon="6.63249">
        <ele>2128</ele>
        <time>2020-07-21T13:10:02Z</time>
      </trkpt>
      <trkpt lat="45.33746" lon="6.63256">
        <ele>2127</ele>
        <time>2020-07-21T13:10:09Z</time>
      </trkpt>
      <trkpt lat="45.33752" lon="6.63261">
        <ele>2127</ele>
        <time>2020-07-21T13:10:14Z</time>
      </trkpt>
      <trkpt lat="45.33759" lon="6.63261">
        <ele>2127</ele>
        <time>2020-07-21T13:10:21Z</time>
      </trkpt>
      <trkpt lat="45.33765" lon="6.63257">
        <ele>2127</ele>
        <time>2020-07-21T13:11:42Z</time>
      </trkpt>
      <trkpt lat="45.33772" lon="6.63256">
        <ele>2127</ele>
        <time>2020-07-21T13:11:59Z</time>
      </trkpt>
      <trkpt lat="45.33779" lon="6.63258">
        <ele>2127</ele>
        <time>2020-07-21T13:12:06Z</time>
      </trkpt>
      <trkpt lat="45.33786" lon="6.63257">
        <ele>2127</ele>
        <time>2020-07-21T13:12:13Z</time>
      </trkpt>
      <trkpt lat="45.33793" lon="6.63254">
        <ele>2127</ele>
        <time>2020-07-21T13:12:19Z</time>
      </trkpt>
      <trkpt lat="45.338" lon="6.63251">
        <ele>2126</ele>
        <time>2020-07-21T13:12:29Z</time>
      </trkpt>
      <trkpt lat="45.33807" lon="6.63246">
        <ele>2127</ele>
        <time>2020-07-21T13:12:35Z</time>
      </trkpt>
      <trkpt lat="45.33813" lon="6.63241">
        <ele>2127</ele>
        <time>2020-07-21T13:12:41Z</time>
      </trkpt>
      <trkpt lat="45.33819" lon="6.63236">
        <ele>2127</ele>
        <time>2020-07-21T13:12:47Z</time>
      </trkpt>
      <trkpt lat="45.33825" lon="6.63231">
        <ele>2127</ele>
        <time>2020-07-21T13:12:53Z</time>
      </trkpt>
      <trkpt lat="45.3383" lon="6.63224">
        <ele>2128</ele>
        <time>2020-07-21T13:12:59Z</time>
      </trkpt>
      <trkpt lat="45.33835" lon="6.63217">
        <ele>2128</ele>
        <time>2020-07-21T13:13:05Z</time>
      </trkpt>
      <trkpt lat="45.3384" lon="6.63211">
        <ele>2128</ele>
        <time>2020-07-21T13:13:10Z</time>
      </trkpt>
      <trkpt lat="45.33846" lon="6.63205">
        <ele>2128</ele>
        <time>2020-07-21T13:13:16Z</time>
      </trkpt>
      <trkpt lat="45.33852" lon="6.632">
        <ele>2128</ele>
        <time>2020-07-21T13:13:23Z</time>
      </trkpt>
      <trkpt lat="45.33858" lon="6.63194">
        <ele>2129</ele>
        <time>2020-07-21T13:13:30Z</time>
      </trkpt>
      <trkpt lat="45.33864" lon="6.63192">
        <ele>2129</ele>
        <time>2020-07-21T13:13:36Z</time>
      </trkpt>
      <trkpt lat="45.33871" lon="6.63187">
        <ele>2129</ele>
        <time>2020-07-21T13:13:42Z</time>
      </trkpt>
      <trkpt lat="45.33877" lon="6.63184">
        <ele>2129</ele>
        <time>2020-07-21T13:13:48Z</time>
      </trkpt>
      <trkpt lat="45.33884" lon="6.6318">
        <ele>2129</ele>
        <time>2020-07-21T13:13:55Z</time>
      </trkpt>
      <trkpt lat="45.3389" lon="6.63176">
        <ele>2129</ele>
        <time>2020-07-21T13:14:01Z</time>
      </trkpt>
      <trkpt lat="45.33896" lon="6.63173">
        <ele>2130</ele>
        <time>2020-07-21T13:14:07Z</time>
      </trkpt>
      <trkpt lat="45.33903" lon="6.63171">
        <ele>2130</ele>
        <time>2020-07-21T13:14:13Z</time>
      </trkpt>
      <trkpt lat="45.33911" lon="6.63169">
        <ele>2131</ele>
        <time>2020-07-21T13:14:19Z</time>
      </trkpt>
      <trkpt lat="45.33917" lon="6.63166">
        <ele>2132</ele>
        <time>2020-07-21T13:14:24Z</time>
      </trkpt>
      <trkpt lat="45.33925" lon="6.63164">
        <ele>2135</ele>
        <time>2020-07-21T13:14:32Z</time>
      </trkpt>
      <trkpt lat="45.33932" lon="6.63163">
        <ele>2137</ele>
        <time>2020-07-21T13:14:39Z</time>
      </trkpt>
      <trkpt lat="45.33939" lon="6.63163">
        <ele>2138</ele>
        <time>2020-07-21T13:14:44Z</time>
      </trkpt>
      <trkpt lat="45.33946" lon="6.63162">
        <ele>2139</ele>
        <time>2020-07-21T13:14:50Z</time>
      </trkpt>
      <trkpt lat="45.33953" lon="6.63161">
        <ele>2139</ele>
        <time>2020-07-21T13:14:55Z</time>
      </trkpt>
      <trkpt lat="45.33959" lon="6.63157">
        <ele>2139</ele>
        <time>2020-07-21T13:15:00Z</time>
      </trkpt>
      <trkpt lat="45.33967" lon="6.63156">
        <ele>2138</ele>
        <time>2020-07-21T13:15:06Z</time>
      </trkpt>
      <trkpt lat="45.33974" lon="6.63155">
        <ele>2138</ele>
        <time>2020-07-21T13:15:12Z</time>
      </trkpt>
      <trkpt lat="45.33981" lon="6.63155">
        <ele>2136</ele>
        <time>2020-07-21T13:15:18Z</time>
      </trkpt>
      <trkpt lat="45.33989" lon="6.63156">
        <ele>2134</ele>
        <time>2020-07-21T13:15:24Z</time>
      </trkpt>
      <trkpt lat="45.33995" lon="6.63154">
        <ele>2134</ele>
        <time>2020-07-21T13:15:30Z</time>
      </trkpt>
      <trkpt lat="45.34002" lon="6.63155">
        <ele>2130</ele>
        <time>2020-07-21T13:15:36Z</time>
      </trkpt>
      <trkpt lat="45.34009" lon="6.63154">
        <ele>2130</ele>
        <time>2020-07-21T13:15:43Z</time>
      </trkpt>
      <trkpt lat="45.34016" lon="6.63154">
        <ele>2131</ele>
        <time>2020-07-21T13:15:49Z</time>
      </trkpt>
      <trkpt lat="45.34023" lon="6.63149">
        <ele>2132</ele>
        <time>2020-07-21T13:15:56Z</time>
      </trkpt>
      <trkpt lat="45.34028" lon="6.63143">
        <ele>2132</ele>
        <time>2020-07-21T13:16:01Z</time>
      </trkpt>
      <trkpt lat="45.34034" lon="6.63137">
        <ele>2133</ele>
        <time>2020-07-21T13:16:07Z</time>
      </trkpt>
      <trkpt lat="45.34039" lon="6.63132">
        <ele>2133</ele>
        <time>2020-07-21T13:16:13Z</time>
      </trkpt>
      <trkpt lat="45.34046" lon="6.63129">
        <ele>2133</ele>
        <time>2020-07-21T13:16:19Z</time>
      </trkpt>
      <trkpt lat="45.34051" lon="6.63124">
        <ele>2133</ele>
        <time>2020-07-21T13:16:25Z</time>
      </trkpt>
      <trkpt lat="45.34057" lon="6.63119">
        <ele>2133</ele>
        <time>2020-07-21T13:17:16Z</time>
      </trkpt>
      <trkpt lat="45.34063" lon="6.63114">
        <ele>2132</ele>
        <time>2020-07-21T13:17:55Z</time>
      </trkpt>
      <trkpt lat="45.34067" lon="6.63107">
        <ele>2132</ele>
        <time>2020-07-21T13:18:01Z</time>
      </trkpt>
      <trkpt lat="45.34072" lon="6.63101">
        <ele>2131</ele>
        <time>2020-07-21T13:18:07Z</time>
      </trkpt>
      <trkpt lat="45.34077" lon="6.63094">
        <ele>2130</ele>
        <time>2020-07-21T13:18:13Z</time>
      </trkpt>
      <trkpt lat="45.34083" lon="6.6309">
        <ele>2129</ele>
        <time>2020-07-21T13:18:19Z</time>
      </trkpt>
      <trkpt lat="45.3409" lon="6.63086">
        <ele>2129</ele>
        <time>2020-07-21T13:18:25Z</time>
      </trkpt>
      <trkpt lat="45.34097" lon="6.63084">
        <ele>2130</ele>
        <time>2020-07-21T13:18:31Z</time>
      </trkpt>
      <trkpt lat="45.34104" lon="6.63082">
        <ele>2130</ele>
        <time>2020-07-21T13:18:38Z</time>
      </trkpt>
      <trkpt lat="45.34111" lon="6.63079">
        <ele>2130</ele>
        <time>2020-07-21T13:18:44Z</time>
      </trkpt>
      <trkpt lat="45.34118" lon="6.63073">
        <ele>2130</ele>
        <time>2020-07-21T13:18:49Z</time>
      </trkpt>
      <trkpt lat="45.34123" lon="6.63069">
        <ele>2130</ele>
        <time>2020-07-21T13:18:54Z</time>
      </trkpt>
      <trkpt lat="45.34129" lon="6.63064">
        <ele>2129</ele>
        <time>2020-07-21T13:18:59Z</time>
      </trkpt>
      <trkpt lat="45.34136" lon="6.6306">
        <ele>2129</ele>
        <time>2020-07-21T13:19:05Z</time>
      </trkpt>
      <trkpt lat="45.34143" lon="6.63057">
        <ele>2128</ele>
        <time>2020-07-21T13:19:11Z</time>
      </trkpt>
      <trkpt lat="45.3415" lon="6.63052">
        <ele>2128</ele>
        <time>2020-07-21T13:19:16Z</time>
      </trkpt>
      <trkpt lat="45.34157" lon="6.63049">
        <ele>2128</ele>
        <time>2020-07-21T13:19:24Z</time>
      </trkpt>
      <trkpt lat="45.34163" lon="6.63047">
        <ele>2127</ele>
        <time>2020-07-21T13:19:30Z</time>
      </trkpt>
      <trkpt lat="45.3417" lon="6.63044">
        <ele>2127</ele>
        <time>2020-07-21T13:19:36Z</time>
      </trkpt>
      <trkpt lat="45.34175" lon="6.63036">
        <ele>2127</ele>
        <time>2020-07-21T13:19:43Z</time>
      </trkpt>
      <trkpt lat="45.34181" lon="6.6303">
        <ele>2127</ele>
        <time>2020-07-21T13:19:49Z</time>
      </trkpt>
      <trkpt lat="45.34185" lon="6.63022">
        <ele>2127</ele>
        <time>2020-07-21T13:19:54Z</time>
      </trkpt>
      <trkpt lat="45.34188" lon="6.63014">
        <ele>2126</ele>
        <time>2020-07-21T13:19:59Z</time>
      </trkpt>
      <trkpt lat="45.34189" lon="6.63004">
        <ele>2126</ele>
        <time>2020-07-21T13:20:05Z</time>
      </trkpt>
      <trkpt lat="45.34189" lon="6.62994">
        <ele>2123</ele>
        <time>2020-07-21T13:20:11Z</time>
      </trkpt>
      <trkpt lat="45.34188" lon="6.62984">
        <ele>2123</ele>
        <time>2020-07-21T13:20:17Z</time>
      </trkpt>
      <trkpt lat="45.34188" lon="6.62974">
        <ele>2123</ele>
        <time>2020-07-21T13:20:28Z</time>
      </trkpt>
      <trkpt lat="45.34188" lon="6.62963">
        <ele>2124</ele>
        <time>2020-07-21T13:20:35Z</time>
      </trkpt>
      <trkpt lat="45.34187" lon="6.62953">
        <ele>2124</ele>
        <time>2020-07-21T13:20:40Z</time>
      </trkpt>
      <trkpt lat="45.34187" lon="6.62942">
        <ele>2124</ele>
        <time>2020-07-21T13:20:46Z</time>
      </trkpt>
      <trkpt lat="45.34187" lon="6.62933">
        <ele>2125</ele>
        <time>2020-07-21T13:20:52Z</time>
      </trkpt>
      <trkpt lat="45.34189" lon="6.62924">
        <ele>2125</ele>
        <time>2020-07-21T13:20:58Z</time>
      </trkpt>
      <trkpt lat="45.34191" lon="6.62914">
        <ele>2126</ele>
        <time>2020-07-21T13:21:04Z</time>
      </trkpt>
      <trkpt lat="45.34192" lon="6.62904">
        <ele>2125</ele>
        <time>2020-07-21T13:21:09Z</time>
      </trkpt>
      <trkpt lat="45.34192" lon="6.62895">
        <ele>2125</ele>
        <time>2020-07-21T13:21:14Z</time>
      </trkpt>
      <trkpt lat="45.34194" lon="6.62885">
        <ele>2125</ele>
        <time>2020-07-21T13:21:21Z</time>
      </trkpt>
      <trkpt lat="45.34196" lon="6.62875">
        <ele>2125</ele>
        <time>2020-07-21T13:21:27Z</time>
      </trkpt>
      <trkpt lat="45.34198" lon="6.62865">
        <ele>2125</ele>
        <time>2020-07-21T13:21:33Z</time>
      </trkpt>
      <trkpt lat="45.34202" lon="6.62855">
        <ele>2125</ele>
        <time>2020-07-21T13:21:39Z</time>
      </trkpt>
      <trkpt lat="45.34205" lon="6.62846">
        <ele>2125</ele>
        <time>2020-07-21T13:21:45Z</time>
      </trkpt>
      <trkpt lat="45.34208" lon="6.62836">
        <ele>2124</ele>
        <time>2020-07-21T13:21:51Z</time>
      </trkpt>
      <trkpt lat="45.34211" lon="6.62827">
        <ele>2125</ele>
        <time>2020-07-21T13:21:56Z</time>
      </trkpt>
      <trkpt lat="45.34213" lon="6.62817">
        <ele>2125</ele>
        <time>2020-07-21T13:22:01Z</time>
      </trkpt>
      <trkpt lat="45.34218" lon="6.6281">
        <ele>2125</ele>
        <time>2020-07-21T13:22:07Z</time>
      </trkpt>
      <trkpt lat="45.34223" lon="6.62803">
        <ele>2124</ele>
        <time>2020-07-21T13:22:12Z</time>
      </trkpt>
      <trkpt lat="45.34227" lon="6.62795">
        <ele>2124</ele>
        <time>2020-07-21T13:22:18Z</time>
      </trkpt>
      <trkpt lat="45.3423" lon="6.62785">
        <ele>2124</ele>
        <time>2020-07-21T13:22:25Z</time>
      </trkpt>
      <trkpt lat="45.34234" lon="6.62776">
        <ele>2123</ele>
        <time>2020-07-21T13:22:32Z</time>
      </trkpt>
      <trkpt lat="45.34238" lon="6.62767">
        <ele>2122</ele>
        <time>2020-07-21T13:22:38Z</time>
      </trkpt>
      <trkpt lat="45.34242" lon="6.62758">
        <ele>2120</ele>
        <time>2020-07-21T13:22:45Z</time>
      </trkpt>
      <trkpt lat="45.34246" lon="6.62751">
        <ele>2117</ele>
        <time>2020-07-21T13:22:51Z</time>
      </trkpt>
      <trkpt lat="45.34251" lon="6.62742">
        <ele>2116</ele>
        <time>2020-07-21T13:22:58Z</time>
      </trkpt>
      <trkpt lat="45.34253" lon="6.62733">
        <ele>2115</ele>
        <time>2020-07-21T13:23:05Z</time>
      </trkpt>
      <trkpt lat="45.34257" lon="6.62725">
        <ele>2115</ele>
        <time>2020-07-21T13:23:10Z</time>
      </trkpt>
      <trkpt lat="45.34262" lon="6.62717">
        <ele>2115</ele>
        <time>2020-07-21T13:23:17Z</time>
      </trkpt>
      <trkpt lat="45.34267" lon="6.62711">
        <ele>2115</ele>
        <time>2020-07-21T13:23:23Z</time>
      </trkpt>
      <trkpt lat="45.34273" lon="6.62704">
        <ele>2114</ele>
        <time>2020-07-21T13:23:30Z</time>
      </trkpt>
      <trkpt lat="45.34279" lon="6.62698">
        <ele>2114</ele>
        <time>2020-07-21T13:23:37Z</time>
      </trkpt>
      <trkpt lat="45.34285" lon="6.62691">
        <ele>2113</ele>
        <time>2020-07-21T13:23:44Z</time>
      </trkpt>
      <trkpt lat="45.3429" lon="6.62684">
        <ele>2113</ele>
        <time>2020-07-21T13:23:50Z</time>
      </trkpt>
      <trkpt lat="45.34292" lon="6.62675">
        <ele>2112</ele>
        <time>2020-07-21T13:23:57Z</time>
      </trkpt>
      <trkpt lat="45.34292" lon="6.62665">
        <ele>2110</ele>
        <time>2020-07-21T13:24:03Z</time>
      </trkpt>
      <trkpt lat="45.34294" lon="6.62655">
        <ele>2110</ele>
        <time>2020-07-21T13:24:09Z</time>
      </trkpt>
      <trkpt lat="45.34297" lon="6.62646">
        <ele>2109</ele>
        <time>2020-07-21T13:24:16Z</time>
      </trkpt>
      <trkpt lat="45.34303" lon="6.62641">
        <ele>2108</ele>
        <time>2020-07-21T13:24:24Z</time>
      </trkpt>
      <trkpt lat="45.34306" lon="6.62633">
        <ele>2107</ele>
        <time>2020-07-21T13:24:44Z</time>
      </trkpt>
      <trkpt lat="45.34312" lon="6.62626">
        <ele>2106</ele>
        <time>2020-07-21T13:24:53Z</time>
      </trkpt>
      <trkpt lat="45.34316" lon="6.62619">
        <ele>2105</ele>
        <time>2020-07-21T13:25:02Z</time>
      </trkpt>
      <trkpt lat="45.34316" lon="6.62608">
        <ele>2104</ele>
        <time>2020-07-21T13:25:09Z</time>
      </trkpt>
      <trkpt lat="45.34315" lon="6.62599">
        <ele>2102</ele>
        <time>2020-07-21T13:25:21Z</time>
      </trkpt>
      <trkpt lat="45.34319" lon="6.62591">
        <ele>2099</ele>
        <time>2020-07-21T13:25:30Z</time>
      </trkpt>
      <trkpt lat="45.34326" lon="6.62586">
        <ele>2094</ele>
        <time>2020-07-21T13:25:38Z</time>
      </trkpt>
      <trkpt lat="45.3433" lon="6.62578">
        <ele>2092</ele>
        <time>2020-07-21T13:25:47Z</time>
      </trkpt>
      <trkpt lat="45.34334" lon="6.62571">
        <ele>2086</ele>
        <time>2020-07-21T13:26:00Z</time>
      </trkpt>
      <trkpt lat="45.34337" lon="6.62562">
        <ele>2085</ele>
        <time>2020-07-21T13:26:07Z</time>
      </trkpt>
      <trkpt lat="45.34333" lon="6.62553">
        <ele>2084</ele>
        <time>2020-07-21T13:26:15Z</time>
      </trkpt>
      <trkpt lat="45.3433" lon="6.62543">
        <ele>2098</ele>
        <time>2020-07-21T13:26:22Z</time>
      </trkpt>
      <trkpt lat="45.34337" lon="6.62542">
        <ele>2083</ele>
        <time>2020-07-21T13:27:47Z</time>
      </trkpt>
      <trkpt lat="45.34345" lon="6.62544">
        <ele>2083</ele>
        <time>2020-07-21T13:27:54Z</time>
      </trkpt>
      <trkpt lat="45.34352" lon="6.62542">
        <ele>2083</ele>
        <time>2020-07-21T13:28:01Z</time>
      </trkpt>
      <trkpt lat="45.34355" lon="6.62533">
        <ele>2082</ele>
        <time>2020-07-21T13:28:10Z</time>
      </trkpt>
      <trkpt lat="45.34356" lon="6.62523">
        <ele>2082</ele>
        <time>2020-07-21T13:28:17Z</time>
      </trkpt>
      <trkpt lat="45.34356" lon="6.62514">
        <ele>2081</ele>
        <time>2020-07-21T13:28:22Z</time>
      </trkpt>
      <trkpt lat="45.34355" lon="6.62503">
        <ele>2080</ele>
        <time>2020-07-21T13:28:28Z</time>
      </trkpt>
      <trkpt lat="45.34352" lon="6.62493">
        <ele>2073</ele>
        <time>2020-07-21T13:28:36Z</time>
      </trkpt>
      <trkpt lat="45.34353" lon="6.62484">
        <ele>2073</ele>
        <time>2020-07-21T13:28:42Z</time>
      </trkpt>
      <trkpt lat="45.34356" lon="6.62475">
        <ele>2071</ele>
        <time>2020-07-21T13:28:48Z</time>
      </trkpt>
      <trkpt lat="45.34357" lon="6.62465">
        <ele>2070</ele>
        <time>2020-07-21T13:28:54Z</time>
      </trkpt>
      <trkpt lat="45.34357" lon="6.62455">
        <ele>2070</ele>
        <time>2020-07-21T13:29:00Z</time>
      </trkpt>
      <trkpt lat="45.34356" lon="6.62445">
        <ele>2069</ele>
        <time>2020-07-21T13:29:06Z</time>
      </trkpt>
      <trkpt lat="45.34356" lon="6.62436">
        <ele>2068</ele>
        <time>2020-07-21T13:29:12Z</time>
      </trkpt>
      <trkpt lat="45.34359" lon="6.62427">
        <ele>2068</ele>
        <time>2020-07-21T13:29:18Z</time>
      </trkpt>
      <trkpt lat="45.34363" lon="6.62419">
        <ele>2067</ele>
        <time>2020-07-21T13:29:24Z</time>
      </trkpt>
      <trkpt lat="45.34365" lon="6.62409">
        <ele>2061</ele>
        <time>2020-07-21T13:29:29Z</time>
      </trkpt>
      <trkpt lat="45.34365" lon="6.62399">
        <ele>2061</ele>
        <time>2020-07-21T13:29:34Z</time>
      </trkpt>
      <trkpt lat="45.34367" lon="6.62391">
        <ele>2060</ele>
        <time>2020-07-21T13:29:40Z</time>
      </trkpt>
      <trkpt lat="45.3437" lon="6.62382">
        <ele>2060</ele>
        <time>2020-07-21T13:29:47Z</time>
      </trkpt>
      <trkpt lat="45.34372" lon="6.62373">
        <ele>2059</ele>
        <time>2020-07-21T13:29:52Z</time>
      </trkpt>
      <trkpt lat="45.34372" lon="6.62362">
        <ele>2059</ele>
        <time>2020-07-21T13:29:58Z</time>
      </trkpt>
      <trkpt lat="45.34374" lon="6.62353">
        <ele>2058</ele>
        <time>2020-07-21T13:30:03Z</time>
      </trkpt>
      <trkpt lat="45.34377" lon="6.62344">
        <ele>2058</ele>
        <time>2020-07-21T13:30:08Z</time>
      </trkpt>
      <trkpt lat="45.3438" lon="6.62334">
        <ele>2057</ele>
        <time>2020-07-21T13:30:14Z</time>
      </trkpt>
      <trkpt lat="45.34381" lon="6.62324">
        <ele>2054</ele>
        <time>2020-07-21T13:30:19Z</time>
      </trkpt>
      <trkpt lat="45.34383" lon="6.62314">
        <ele>2054</ele>
        <time>2020-07-21T13:30:25Z</time>
      </trkpt>
      <trkpt lat="45.34385" lon="6.62304">
        <ele>2053</ele>
        <time>2020-07-21T13:30:31Z</time>
      </trkpt>
      <trkpt lat="45.34386" lon="6.62294">
        <ele>2053</ele>
        <time>2020-07-21T13:30:36Z</time>
      </trkpt>
      <trkpt lat="45.34388" lon="6.62284">
        <ele>2053</ele>
        <time>2020-07-21T13:30:42Z</time>
      </trkpt>
      <trkpt lat="45.34391" lon="6.62275">
        <ele>2052</ele>
        <time>2020-07-21T13:30:47Z</time>
      </trkpt>
      <trkpt lat="45.34393" lon="6.62267">
        <ele>2051</ele>
        <time>2020-07-21T13:30:53Z</time>
      </trkpt>
      <trkpt lat="45.34396" lon="6.62258">
        <ele>2049</ele>
        <time>2020-07-21T13:30:58Z</time>
      </trkpt>
      <trkpt lat="45.34399" lon="6.62249">
        <ele>2047</ele>
        <time>2020-07-21T13:31:04Z</time>
      </trkpt>
      <trkpt lat="45.34403" lon="6.62239">
        <ele>2047</ele>
        <time>2020-07-21T13:31:09Z</time>
      </trkpt>
      <trkpt lat="45.34405" lon="6.6223">
        <ele>2048</ele>
        <time>2020-07-21T13:31:14Z</time>
      </trkpt>
      <trkpt lat="45.34407" lon="6.6222">
        <ele>2049</ele>
        <time>2020-07-21T13:31:20Z</time>
      </trkpt>
      <trkpt lat="45.34408" lon="6.6221">
        <ele>2049</ele>
        <time>2020-07-21T13:31:25Z</time>
      </trkpt>
      <trkpt lat="45.34409" lon="6.62199">
        <ele>2049</ele>
        <time>2020-07-21T13:31:31Z</time>
      </trkpt>
      <trkpt lat="45.34413" lon="6.6219">
        <ele>2048</ele>
        <time>2020-07-21T13:31:36Z</time>
      </trkpt>
      <trkpt lat="45.34418" lon="6.62182">
        <ele>2040</ele>
        <time>2020-07-21T13:31:42Z</time>
      </trkpt>
      <trkpt lat="45.34422" lon="6.62173">
        <ele>2040</ele>
        <time>2020-07-21T13:31:48Z</time>
      </trkpt>
      <trkpt lat="45.34425" lon="6.62165">
        <ele>2040</ele>
        <time>2020-07-21T13:31:54Z</time>
      </trkpt>
      <trkpt lat="45.34429" lon="6.62157">
        <ele>2040</ele>
        <time>2020-07-21T13:31:59Z</time>
      </trkpt>
      <trkpt lat="45.34434" lon="6.62148">
        <ele>2040</ele>
        <time>2020-07-21T13:32:05Z</time>
      </trkpt>
      <trkpt lat="45.34437" lon="6.6214">
        <ele>2039</ele>
        <time>2020-07-21T13:32:11Z</time>
      </trkpt>
      <trkpt lat="45.34442" lon="6.62132">
        <ele>2039</ele>
        <time>2020-07-21T13:32:23Z</time>
      </trkpt>
      <trkpt lat="45.34447" lon="6.62127">
        <ele>2039</ele>
        <time>2020-07-21T13:32:29Z</time>
      </trkpt>
      <trkpt lat="45.34451" lon="6.62117">
        <ele>2039</ele>
        <time>2020-07-21T13:32:35Z</time>
      </trkpt>
      <trkpt lat="45.34455" lon="6.62108">
        <ele>2039</ele>
        <time>2020-07-21T13:32:40Z</time>
      </trkpt>
      <trkpt lat="45.34459" lon="6.62098">
        <ele>2039</ele>
        <time>2020-07-21T13:32:45Z</time>
      </trkpt>
      <trkpt lat="45.34464" lon="6.62091">
        <ele>2039</ele>
        <time>2020-07-21T13:32:51Z</time>
      </trkpt>
      <trkpt lat="45.34469" lon="6.62083">
        <ele>2038</ele>
        <time>2020-07-21T13:32:57Z</time>
      </trkpt>
      <trkpt lat="45.34475" lon="6.62075">
        <ele>2038</ele>
        <time>2020-07-21T13:33:03Z</time>
      </trkpt>
      <trkpt lat="45.34479" lon="6.62068">
        <ele>2038</ele>
        <time>2020-07-21T13:33:08Z</time>
      </trkpt>
      <trkpt lat="45.34483" lon="6.6206">
        <ele>2038</ele>
        <time>2020-07-21T13:33:13Z</time>
      </trkpt>
      <trkpt lat="45.34488" lon="6.62054">
        <ele>2038</ele>
        <time>2020-07-21T13:33:19Z</time>
      </trkpt>
      <trkpt lat="45.34493" lon="6.62046">
        <ele>2037</ele>
        <time>2020-07-21T13:33:24Z</time>
      </trkpt>
      <trkpt lat="45.34498" lon="6.62038">
        <ele>2037</ele>
        <time>2020-07-21T13:33:29Z</time>
      </trkpt>
      <trkpt lat="45.34504" lon="6.62032">
        <ele>2033</ele>
        <time>2020-07-21T13:33:35Z</time>
      </trkpt>
      <trkpt lat="45.34508" lon="6.62024">
        <ele>2033</ele>
        <time>2020-07-21T13:33:40Z</time>
      </trkpt>
      <trkpt lat="45.34511" lon="6.62016">
        <ele>2033</ele>
        <time>2020-07-21T13:33:47Z</time>
      </trkpt>
      <trkpt lat="45.34514" lon="6.62006">
        <ele>2033</ele>
        <time>2020-07-21T13:33:53Z</time>
      </trkpt>
      <trkpt lat="45.34518" lon="6.61996">
        <ele>2032</ele>
        <time>2020-07-21T13:34:42Z</time>
      </trkpt>
      <trkpt lat="45.34523" lon="6.61985">
        <ele>2032</ele>
        <time>2020-07-21T13:34:47Z</time>
      </trkpt>
      <trkpt lat="45.34527" lon="6.61977">
        <ele>2032</ele>
        <time>2020-07-21T13:34:52Z</time>
      </trkpt>
      <trkpt lat="45.34531" lon="6.61968">
        <ele>2031</ele>
        <time>2020-07-21T13:34:59Z</time>
      </trkpt>
      <trkpt lat="45.34534" lon="6.6196">
        <ele>2031</ele>
        <time>2020-07-21T13:35:05Z</time>
      </trkpt>
      <trkpt lat="45.34538" lon="6.61953">
        <ele>2031</ele>
        <time>2020-07-21T13:35:10Z</time>
      </trkpt>
      <trkpt lat="45.34543" lon="6.61944">
        <ele>2031</ele>
        <time>2020-07-21T13:35:16Z</time>
      </trkpt>
      <trkpt lat="45.34547" lon="6.61935">
        <ele>2031</ele>
        <time>2020-07-21T13:35:22Z</time>
      </trkpt>
      <trkpt lat="45.3455" lon="6.61927">
        <ele>2030</ele>
        <time>2020-07-21T13:35:28Z</time>
      </trkpt>
      <trkpt lat="45.34555" lon="6.61918">
        <ele>2030</ele>
        <time>2020-07-21T13:36:08Z</time>
      </trkpt>
      <trkpt lat="45.34559" lon="6.61911">
        <ele>2029</ele>
        <time>2020-07-21T13:36:14Z</time>
      </trkpt>
      <trkpt lat="45.34562" lon="6.61902">
        <ele>2029</ele>
        <time>2020-07-21T13:36:20Z</time>
      </trkpt>
      <trkpt lat="45.34565" lon="6.61892">
        <ele>2029</ele>
        <time>2020-07-21T13:36:26Z</time>
      </trkpt>
      <trkpt lat="45.34566" lon="6.61883">
        <ele>2028</ele>
        <time>2020-07-21T13:36:31Z</time>
      </trkpt>
      <trkpt lat="45.34569" lon="6.61873">
        <ele>2028</ele>
        <time>2020-07-21T13:36:37Z</time>
      </trkpt>
      <trkpt lat="45.34573" lon="6.61865">
        <ele>2028</ele>
        <time>2020-07-21T13:36:42Z</time>
      </trkpt>
      <trkpt lat="45.34578" lon="6.61859">
        <ele>2028</ele>
        <time>2020-07-21T13:36:47Z</time>
      </trkpt>
      <trkpt lat="45.34582" lon="6.61852">
        <ele>2027</ele>
        <time>2020-07-21T13:36:53Z</time>
      </trkpt>
      <trkpt lat="45.34586" lon="6.61844">
        <ele>2025</ele>
        <time>2020-07-21T13:36:58Z</time>
      </trkpt>
      <trkpt lat="45.34592" lon="6.61838">
        <ele>2025</ele>
        <time>2020-07-21T13:37:04Z</time>
      </trkpt>
      <trkpt lat="45.34597" lon="6.61832">
        <ele>2024</ele>
        <time>2020-07-21T13:37:09Z</time>
      </trkpt>
      <trkpt lat="45.34605" lon="6.61829">
        <ele>2024</ele>
        <time>2020-07-21T13:37:14Z</time>
      </trkpt>
      <trkpt lat="45.34611" lon="6.61823">
        <ele>2024</ele>
        <time>2020-07-21T13:37:20Z</time>
      </trkpt>
      <trkpt lat="45.34616" lon="6.61818">
        <ele>2024</ele>
        <time>2020-07-21T13:37:26Z</time>
      </trkpt>
      <trkpt lat="45.34622" lon="6.61813">
        <ele>2024</ele>
        <time>2020-07-21T13:37:31Z</time>
      </trkpt>
      <trkpt lat="45.34628" lon="6.61808">
        <ele>2024</ele>
        <time>2020-07-21T13:37:36Z</time>
      </trkpt>
      <trkpt lat="45.34634" lon="6.61802">
        <ele>2024</ele>
        <time>2020-07-21T13:37:42Z</time>
      </trkpt>
      <trkpt lat="45.34639" lon="6.61797">
        <ele>2023</ele>
        <time>2020-07-21T13:37:47Z</time>
      </trkpt>
      <trkpt lat="45.34646" lon="6.61791">
        <ele>2023</ele>
        <time>2020-07-21T13:37:53Z</time>
      </trkpt>
      <trkpt lat="45.34653" lon="6.61787">
        <ele>2023</ele>
        <time>2020-07-21T13:37:58Z</time>
      </trkpt>
      <trkpt lat="45.34658" lon="6.61781">
        <ele>2023</ele>
        <time>2020-07-21T13:38:05Z</time>
      </trkpt>
      <trkpt lat="45.34665" lon="6.61777">
        <ele>2023</ele>
        <time>2020-07-21T13:38:11Z</time>
      </trkpt>
      <trkpt lat="45.34671" lon="6.61772">
        <ele>2022</ele>
        <time>2020-07-21T13:38:17Z</time>
      </trkpt>
      <trkpt lat="45.34679" lon="6.6177">
        <ele>2022</ele>
        <time>2020-07-21T13:38:23Z</time>
      </trkpt>
      <trkpt lat="45.34687" lon="6.61766">
        <ele>2022</ele>
        <time>2020-07-21T13:38:28Z</time>
      </trkpt>
      <trkpt lat="45.34693" lon="6.61762">
        <ele>2022</ele>
        <time>2020-07-21T13:38:34Z</time>
      </trkpt>
      <trkpt lat="45.34699" lon="6.61754">
        <ele>2022</ele>
        <time>2020-07-21T13:38:40Z</time>
      </trkpt>
      <trkpt lat="45.34705" lon="6.6175">
        <ele>2021</ele>
        <time>2020-07-21T13:38:45Z</time>
      </trkpt>
      <trkpt lat="45.34711" lon="6.61746">
        <ele>2020</ele>
        <time>2020-07-21T13:38:51Z</time>
      </trkpt>
      <trkpt lat="45.34718" lon="6.61743">
        <ele>2020</ele>
        <time>2020-07-21T13:38:57Z</time>
      </trkpt>
      <trkpt lat="45.34725" lon="6.61741">
        <ele>2020</ele>
        <time>2020-07-21T13:39:02Z</time>
      </trkpt>
      <trkpt lat="45.34732" lon="6.61739">
        <ele>2020</ele>
        <time>2020-07-21T13:39:09Z</time>
      </trkpt>
      <trkpt lat="45.34739" lon="6.61738">
        <ele>2020</ele>
        <time>2020-07-21T13:39:15Z</time>
      </trkpt>
      <trkpt lat="45.34746" lon="6.61734">
        <ele>2019</ele>
        <time>2020-07-21T13:39:20Z</time>
      </trkpt>
      <trkpt lat="45.34753" lon="6.6173">
        <ele>2019</ele>
        <time>2020-07-21T13:39:26Z</time>
      </trkpt>
      <trkpt lat="45.34758" lon="6.61722">
        <ele>2018</ele>
        <time>2020-07-21T13:39:31Z</time>
      </trkpt>
      <trkpt lat="45.34764" lon="6.61716">
        <ele>2018</ele>
        <time>2020-07-21T13:39:37Z</time>
      </trkpt>
      <trkpt lat="45.34768" lon="6.61709">
        <ele>2018</ele>
        <time>2020-07-21T13:39:42Z</time>
      </trkpt>
      <trkpt lat="45.34773" lon="6.61701">
        <ele>2018</ele>
        <time>2020-07-21T13:39:48Z</time>
      </trkpt>
      <trkpt lat="45.34777" lon="6.61693">
        <ele>2018</ele>
        <time>2020-07-21T13:39:53Z</time>
      </trkpt>
      <trkpt lat="45.34777" lon="6.61684">
        <ele>2018</ele>
        <time>2020-07-21T13:39:58Z</time>
      </trkpt>
      <trkpt lat="45.34781" lon="6.61676">
        <ele>2018</ele>
        <time>2020-07-21T13:40:05Z</time>
      </trkpt>
      <trkpt lat="45.34786" lon="6.61669">
        <ele>2018</ele>
        <time>2020-07-21T13:40:11Z</time>
      </trkpt>
      <trkpt lat="45.34788" lon="6.61659">
        <ele>2018</ele>
        <time>2020-07-21T13:40:17Z</time>
      </trkpt>
      <trkpt lat="45.34794" lon="6.61653">
        <ele>2017</ele>
        <time>2020-07-21T13:40:22Z</time>
      </trkpt>
      <trkpt lat="45.34796" lon="6.61644">
        <ele>2017</ele>
        <time>2020-07-21T13:40:29Z</time>
      </trkpt>
      <trkpt lat="45.34792" lon="6.61635">
        <ele>2017</ele>
        <time>2020-07-21T13:40:44Z</time>
      </trkpt>
      <trkpt lat="45.34795" lon="6.61627">
        <ele>2017</ele>
        <time>2020-07-21T13:41:35Z</time>
      </trkpt>
      <trkpt lat="45.34802" lon="6.61621">
        <ele>2017</ele>
        <time>2020-07-21T13:41:48Z</time>
      </trkpt>
      <trkpt lat="45.34808" lon="6.61616">
        <ele>2017</ele>
        <time>2020-07-21T13:41:54Z</time>
      </trkpt>
      <trkpt lat="45.34815" lon="6.61612">
        <ele>2017</ele>
        <time>2020-07-21T13:42:00Z</time>
      </trkpt>
      <trkpt lat="45.34822" lon="6.61609">
        <ele>2017</ele>
        <time>2020-07-21T13:42:06Z</time>
      </trkpt>
      <trkpt lat="45.34829" lon="6.61607">
        <ele>2017</ele>
        <time>2020-07-21T13:42:11Z</time>
      </trkpt>
      <trkpt lat="45.34836" lon="6.61603">
        <ele>2015</ele>
        <time>2020-07-21T13:42:16Z</time>
      </trkpt>
      <trkpt lat="45.34843" lon="6.616">
        <ele>2015</ele>
        <time>2020-07-21T13:42:22Z</time>
      </trkpt>
      <trkpt lat="45.3485" lon="6.61598">
        <ele>2015</ele>
        <time>2020-07-21T13:42:28Z</time>
      </trkpt>
      <trkpt lat="45.34858" lon="6.61597">
        <ele>2014</ele>
        <time>2020-07-21T13:42:33Z</time>
      </trkpt>
      <trkpt lat="45.34864" lon="6.61592">
        <ele>2014</ele>
        <time>2020-07-21T13:42:39Z</time>
      </trkpt>
      <trkpt lat="45.34871" lon="6.61587">
        <ele>2014</ele>
        <time>2020-07-21T13:42:45Z</time>
      </trkpt>
      <trkpt lat="45.34877" lon="6.61582">
        <ele>2014</ele>
        <time>2020-07-21T13:42:50Z</time>
      </trkpt>
      <trkpt lat="45.34882" lon="6.61576">
        <ele>2014</ele>
        <time>2020-07-21T13:42:56Z</time>
      </trkpt>
      <trkpt lat="45.34889" lon="6.61574">
        <ele>2014</ele>
        <time>2020-07-21T13:43:02Z</time>
      </trkpt>
      <trkpt lat="45.34896" lon="6.61572">
        <ele>2013</ele>
        <time>2020-07-21T13:43:08Z</time>
      </trkpt>
      <trkpt lat="45.34903" lon="6.61569">
        <ele>2013</ele>
        <time>2020-07-21T13:43:13Z</time>
      </trkpt>
      <trkpt lat="45.3491" lon="6.61567">
        <ele>2013</ele>
        <time>2020-07-21T13:43:18Z</time>
      </trkpt>
      <trkpt lat="45.34914" lon="6.6156">
        <ele>2013</ele>
        <time>2020-07-21T13:43:24Z</time>
      </trkpt>
      <trkpt lat="45.34919" lon="6.61551">
        <ele>2011</ele>
        <time>2020-07-21T13:43:29Z</time>
      </trkpt>
      <trkpt lat="45.34923" lon="6.61543">
        <ele>2011</ele>
        <time>2020-07-21T13:43:35Z</time>
      </trkpt>
      <trkpt lat="45.34927" lon="6.61535">
        <ele>2011</ele>
        <time>2020-07-21T13:43:40Z</time>
      </trkpt>
      <trkpt lat="45.34931" lon="6.61528">
        <ele>2011</ele>
        <time>2020-07-21T13:43:46Z</time>
      </trkpt>
      <trkpt lat="45.34937" lon="6.61522">
        <ele>2011</ele>
        <time>2020-07-21T13:43:52Z</time>
      </trkpt>
      <trkpt lat="45.34944" lon="6.61521">
        <ele>2011</ele>
        <time>2020-07-21T13:43:58Z</time>
      </trkpt>
      <trkpt lat="45.34951" lon="6.61523">
        <ele>2011</ele>
        <time>2020-07-21T13:44:03Z</time>
      </trkpt>
      <trkpt lat="45.34958" lon="6.61523">
        <ele>2011</ele>
        <time>2020-07-21T13:44:09Z</time>
      </trkpt>
      <trkpt lat="45.34964" lon="6.61517">
        <ele>2011</ele>
        <time>2020-07-21T13:44:15Z</time>
      </trkpt>
      <trkpt lat="45.3497" lon="6.6151">
        <ele>2011</ele>
        <time>2020-07-21T13:44:22Z</time>
      </trkpt>
      <trkpt lat="45.34976" lon="6.61505">
        <ele>2010</ele>
        <time>2020-07-21T13:45:07Z</time>
      </trkpt>
      <trkpt lat="45.34981" lon="6.615">
        <ele>2010</ele>
        <time>2020-07-21T13:45:13Z</time>
      </trkpt>
      <trkpt lat="45.34988" lon="6.61495">
        <ele>2010</ele>
        <time>2020-07-21T13:45:19Z</time>
      </trkpt>
      <trkpt lat="45.34995" lon="6.61493">
        <ele>2010</ele>
        <time>2020-07-21T13:45:25Z</time>
      </trkpt>
      <trkpt lat="45.35002" lon="6.61491">
        <ele>2009</ele>
        <time>2020-07-21T13:45:30Z</time>
      </trkpt>
      <trkpt lat="45.35009" lon="6.61487">
        <ele>2008</ele>
        <time>2020-07-21T13:45:36Z</time>
      </trkpt>
      <trkpt lat="45.35015" lon="6.61484">
        <ele>2008</ele>
        <time>2020-07-21T13:45:42Z</time>
      </trkpt>
      <trkpt lat="45.35021" lon="6.6148">
        <ele>2008</ele>
        <time>2020-07-21T13:45:48Z</time>
      </trkpt>
      <trkpt lat="45.35027" lon="6.61474">
        <ele>2008</ele>
        <time>2020-07-21T13:46:00Z</time>
      </trkpt>
      <trkpt lat="45.35034" lon="6.61468">
        <ele>2008</ele>
        <time>2020-07-21T13:46:05Z</time>
      </trkpt>
      <trkpt lat="45.35039" lon="6.6146">
        <ele>2008</ele>
        <time>2020-07-21T13:46:11Z</time>
      </trkpt>
      <trkpt lat="45.35043" lon="6.61452">
        <ele>2007</ele>
        <time>2020-07-21T13:46:17Z</time>
      </trkpt>
      <trkpt lat="45.35048" lon="6.61444">
        <ele>2007</ele>
        <time>2020-07-21T13:46:27Z</time>
      </trkpt>
      <trkpt lat="45.35052" lon="6.61436">
        <ele>2007</ele>
        <time>2020-07-21T13:46:33Z</time>
      </trkpt>
      <trkpt lat="45.35057" lon="6.6143">
        <ele>2007</ele>
        <time>2020-07-21T13:47:18Z</time>
      </trkpt>
      <trkpt lat="45.35063" lon="6.61425">
        <ele>2007</ele>
        <time>2020-07-21T13:47:24Z</time>
      </trkpt>
      <trkpt lat="45.35069" lon="6.61419">
        <ele>2007</ele>
        <time>2020-07-21T13:47:30Z</time>
      </trkpt>
      <trkpt lat="45.35074" lon="6.61414">
        <ele>2007</ele>
        <time>2020-07-21T13:47:36Z</time>
      </trkpt>
      <trkpt lat="45.35081" lon="6.6141">
        <ele>2007</ele>
        <time>2020-07-21T13:47:42Z</time>
      </trkpt>
      <trkpt lat="45.35087" lon="6.61404">
        <ele>2006</ele>
        <time>2020-07-21T13:47:48Z</time>
      </trkpt>
      <trkpt lat="45.35093" lon="6.614">
        <ele>2007</ele>
        <time>2020-07-21T13:47:55Z</time>
      </trkpt>
      <trkpt lat="45.351" lon="6.61398">
        <ele>2007</ele>
        <time>2020-07-21T13:48:00Z</time>
      </trkpt>
      <trkpt lat="45.35106" lon="6.61393">
        <ele>2007</ele>
        <time>2020-07-21T13:48:07Z</time>
      </trkpt>
      <trkpt lat="45.35113" lon="6.6139">
        <ele>2007</ele>
        <time>2020-07-21T13:48:13Z</time>
      </trkpt>
      <trkpt lat="45.3512" lon="6.61388">
        <ele>2007</ele>
        <time>2020-07-21T13:48:18Z</time>
      </trkpt>
      <trkpt lat="45.35127" lon="6.61386">
        <ele>2007</ele>
        <time>2020-07-21T13:48:24Z</time>
      </trkpt>
      <trkpt lat="45.35135" lon="6.61384">
        <ele>2007</ele>
        <time>2020-07-21T13:48:30Z</time>
      </trkpt>
      <trkpt lat="45.35142" lon="6.61382">
        <ele>2007</ele>
        <time>2020-07-21T13:48:37Z</time>
      </trkpt>
      <trkpt lat="45.35149" lon="6.6138">
        <ele>2007</ele>
        <time>2020-07-21T13:48:43Z</time>
      </trkpt>
      <trkpt lat="45.35155" lon="6.61376">
        <ele>2007</ele>
        <time>2020-07-21T13:48:48Z</time>
      </trkpt>
      <trkpt lat="45.35162" lon="6.61375">
        <ele>2007</ele>
        <time>2020-07-21T13:48:54Z</time>
      </trkpt>
      <trkpt lat="45.35169" lon="6.61372">
        <ele>2006</ele>
        <time>2020-07-21T13:49:01Z</time>
      </trkpt>
      <trkpt lat="45.35175" lon="6.6137">
        <ele>2006</ele>
        <time>2020-07-21T13:49:06Z</time>
      </trkpt>
      <trkpt lat="45.35182" lon="6.61368">
        <ele>2006</ele>
        <time>2020-07-21T13:49:12Z</time>
      </trkpt>
      <trkpt lat="45.35188" lon="6.61363">
        <ele>2006</ele>
        <time>2020-07-21T13:49:18Z</time>
      </trkpt>
      <trkpt lat="45.35191" lon="6.61355">
        <ele>2006</ele>
        <time>2020-07-21T13:49:23Z</time>
      </trkpt>
      <trkpt lat="45.35194" lon="6.61346">
        <ele>2006</ele>
        <time>2020-07-21T13:49:29Z</time>
      </trkpt>
      <trkpt lat="45.35197" lon="6.61337">
        <ele>2006</ele>
        <time>2020-07-21T13:49:34Z</time>
      </trkpt>
      <trkpt lat="45.35202" lon="6.61329">
        <ele>2008</ele>
        <time>2020-07-21T13:49:40Z</time>
      </trkpt>
      <trkpt lat="45.35209" lon="6.61325">
        <ele>2008</ele>
        <time>2020-07-21T13:49:46Z</time>
      </trkpt>
      <trkpt lat="45.35216" lon="6.61323">
        <ele>2008</ele>
        <time>2020-07-21T13:49:52Z</time>
      </trkpt>
      <trkpt lat="45.35222" lon="6.61321">
        <ele>2007</ele>
        <time>2020-07-21T13:49:59Z</time>
      </trkpt>
      <trkpt lat="45.35228" lon="6.61314">
        <ele>2007</ele>
        <time>2020-07-21T13:50:04Z</time>
      </trkpt>
      <trkpt lat="45.35235" lon="6.6131">
        <ele>2007</ele>
        <time>2020-07-21T13:50:10Z</time>
      </trkpt>
      <trkpt lat="45.35243" lon="6.61308">
        <ele>2007</ele>
        <time>2020-07-21T13:50:16Z</time>
      </trkpt>
      <trkpt lat="45.3525" lon="6.61306">
        <ele>2006</ele>
        <time>2020-07-21T13:50:21Z</time>
      </trkpt>
      <trkpt lat="45.35257" lon="6.61304">
        <ele>2006</ele>
        <time>2020-07-21T13:50:27Z</time>
      </trkpt>
      <trkpt lat="45.35264" lon="6.61302">
        <ele>2006</ele>
        <time>2020-07-21T13:50:33Z</time>
      </trkpt>
      <trkpt lat="45.35271" lon="6.61299">
        <ele>2006</ele>
        <time>2020-07-21T13:50:39Z</time>
      </trkpt>
      <trkpt lat="45.35278" lon="6.61298">
        <ele>2006</ele>
        <time>2020-07-21T13:50:44Z</time>
      </trkpt>
      <trkpt lat="45.35284" lon="6.61298">
        <ele>2005</ele>
        <time>2020-07-21T13:50:51Z</time>
      </trkpt>
      <trkpt lat="45.35292" lon="6.61297">
        <ele>2005</ele>
        <time>2020-07-21T13:50:57Z</time>
      </trkpt>
      <trkpt lat="45.35299" lon="6.61297">
        <ele>2005</ele>
        <time>2020-07-21T13:51:02Z</time>
      </trkpt>
      <trkpt lat="45.35307" lon="6.61296">
        <ele>2005</ele>
        <time>2020-07-21T13:51:08Z</time>
      </trkpt>
      <trkpt lat="45.35313" lon="6.61294">
        <ele>2005</ele>
        <time>2020-07-21T13:51:14Z</time>
      </trkpt>
      <trkpt lat="45.3532" lon="6.6129">
        <ele>2005</ele>
        <time>2020-07-21T13:51:23Z</time>
      </trkpt>
      <trkpt lat="45.35327" lon="6.61287">
        <ele>2005</ele>
        <time>2020-07-21T13:51:29Z</time>
      </trkpt>
      <trkpt lat="45.35333" lon="6.61282">
        <ele>2005</ele>
        <time>2020-07-21T13:51:35Z</time>
      </trkpt>
      <trkpt lat="45.35339" lon="6.61278">
        <ele>2004</ele>
        <time>2020-07-21T13:51:41Z</time>
      </trkpt>
      <trkpt lat="45.35344" lon="6.61272">
        <ele>2004</ele>
        <time>2020-07-21T13:51:46Z</time>
      </trkpt>
      <trkpt lat="45.3535" lon="6.61268">
        <ele>2004</ele>
        <time>2020-07-21T13:51:51Z</time>
      </trkpt>
      <trkpt lat="45.35356" lon="6.61266">
        <ele>2004</ele>
        <time>2020-07-21T13:51:56Z</time>
      </trkpt>
      <trkpt lat="45.35363" lon="6.61264">
        <ele>2004</ele>
        <time>2020-07-21T13:52:01Z</time>
      </trkpt>
      <trkpt lat="45.35369" lon="6.61259">
        <ele>2004</ele>
        <time>2020-07-21T13:52:07Z</time>
      </trkpt>
      <trkpt lat="45.35376" lon="6.61258">
        <ele>2003</ele>
        <time>2020-07-21T13:52:12Z</time>
      </trkpt>
      <trkpt lat="45.35382" lon="6.6126">
        <ele>2003</ele>
        <time>2020-07-21T13:52:17Z</time>
      </trkpt>
      <trkpt lat="45.35389" lon="6.61262">
        <ele>2003</ele>
        <time>2020-07-21T13:52:23Z</time>
      </trkpt>
      <trkpt lat="45.35396" lon="6.61262">
        <ele>2003</ele>
        <time>2020-07-21T13:52:28Z</time>
      </trkpt>
      <trkpt lat="45.35404" lon="6.61259">
        <ele>2003</ele>
        <time>2020-07-21T13:52:34Z</time>
      </trkpt>
      <trkpt lat="45.3541" lon="6.61256">
        <ele>2002</ele>
        <time>2020-07-21T13:52:40Z</time>
      </trkpt>
      <trkpt lat="45.35416" lon="6.6125">
        <ele>2002</ele>
        <time>2020-07-21T13:52:46Z</time>
      </trkpt>
      <trkpt lat="45.35421" lon="6.61243">
        <ele>2003</ele>
        <time>2020-07-21T13:52:52Z</time>
      </trkpt>
      <trkpt lat="45.35425" lon="6.61236">
        <ele>2004</ele>
        <time>2020-07-21T13:52:58Z</time>
      </trkpt>
      <trkpt lat="45.35432" lon="6.6123">
        <ele>2005</ele>
        <time>2020-07-21T13:53:05Z</time>
      </trkpt>
      <trkpt lat="45.35439" lon="6.61229">
        <ele>2005</ele>
        <time>2020-07-21T13:53:10Z</time>
      </trkpt>
      <trkpt lat="45.35444" lon="6.61221">
        <ele>2005</ele>
        <time>2020-07-21T13:53:16Z</time>
      </trkpt>
      <trkpt lat="45.35449" lon="6.61215">
        <ele>2005</ele>
        <time>2020-07-21T13:53:21Z</time>
      </trkpt>
      <trkpt lat="45.35454" lon="6.61208">
        <ele>2005</ele>
        <time>2020-07-21T13:53:27Z</time>
      </trkpt>
      <trkpt lat="45.35459" lon="6.612">
        <ele>2005</ele>
        <time>2020-07-21T13:53:33Z</time>
      </trkpt>
      <trkpt lat="45.35464" lon="6.61195">
        <ele>2005</ele>
        <time>2020-07-21T13:53:39Z</time>
      </trkpt>
      <trkpt lat="45.3547" lon="6.61189">
        <ele>2005</ele>
        <time>2020-07-21T13:53:45Z</time>
      </trkpt>
      <trkpt lat="45.35476" lon="6.61185">
        <ele>2004</ele>
        <time>2020-07-21T13:53:51Z</time>
      </trkpt>
      <trkpt lat="45.35482" lon="6.61179">
        <ele>2004</ele>
        <time>2020-07-21T13:53:56Z</time>
      </trkpt>
      <trkpt lat="45.35487" lon="6.61171">
        <ele>2003</ele>
        <time>2020-07-21T13:54:02Z</time>
      </trkpt>
      <trkpt lat="45.3549" lon="6.61163">
        <ele>2004</ele>
        <time>2020-07-21T13:54:07Z</time>
      </trkpt>
      <trkpt lat="45.35495" lon="6.61157">
        <ele>2005</ele>
        <time>2020-07-21T13:54:12Z</time>
      </trkpt>
      <trkpt lat="45.35501" lon="6.6115">
        <ele>2002</ele>
        <time>2020-07-21T13:54:18Z</time>
      </trkpt>
      <trkpt lat="45.35507" lon="6.61144">
        <ele>2002</ele>
        <time>2020-07-21T13:54:24Z</time>
      </trkpt>
      <trkpt lat="45.35513" lon="6.61139">
        <ele>2003</ele>
        <time>2020-07-21T13:54:30Z</time>
      </trkpt>
      <trkpt lat="45.35519" lon="6.61134">
        <ele>2003</ele>
        <time>2020-07-21T13:54:36Z</time>
      </trkpt>
      <trkpt lat="45.35526" lon="6.61132">
        <ele>2003</ele>
        <time>2020-07-21T13:54:42Z</time>
      </trkpt>
      <trkpt lat="45.35533" lon="6.61132">
        <ele>2003</ele>
        <time>2020-07-21T13:54:47Z</time>
      </trkpt>
      <trkpt lat="45.3554" lon="6.61131">
        <ele>2002</ele>
        <time>2020-07-21T13:54:53Z</time>
      </trkpt>
      <trkpt lat="45.35547" lon="6.61132">
        <ele>2002</ele>
        <time>2020-07-21T13:55:00Z</time>
      </trkpt>
      <trkpt lat="45.35554" lon="6.61135">
        <ele>2002</ele>
        <time>2020-07-21T13:55:06Z</time>
      </trkpt>
      <trkpt lat="45.35561" lon="6.61134">
        <ele>2001</ele>
        <time>2020-07-21T13:55:14Z</time>
      </trkpt>
      <trkpt lat="45.35567" lon="6.61128">
        <ele>2001</ele>
        <time>2020-07-21T13:55:19Z</time>
      </trkpt>
      <trkpt lat="45.35571" lon="6.61121">
        <ele>2001</ele>
        <time>2020-07-21T13:55:26Z</time>
      </trkpt>
      <trkpt lat="45.35578" lon="6.61118">
        <ele>2001</ele>
        <time>2020-07-21T13:55:33Z</time>
      </trkpt>
      <trkpt lat="45.35585" lon="6.61114">
        <ele>1996</ele>
        <time>2020-07-21T13:55:40Z</time>
      </trkpt>
      <trkpt lat="45.35591" lon="6.61113">
        <ele>1996</ele>
        <time>2020-07-21T13:57:37Z</time>
      </trkpt>
      <trkpt lat="45.35595" lon="6.61104">
        <ele>1996</ele>
        <time>2020-07-21T13:57:45Z</time>
      </trkpt>
      <trkpt lat="45.35601" lon="6.611">
        <ele>1996</ele>
        <time>2020-07-21T13:58:20Z</time>
      </trkpt>
      <trkpt lat="45.35607" lon="6.61094">
        <ele>1996</ele>
        <time>2020-07-21T13:58:33Z</time>
      </trkpt>
      <trkpt lat="45.35603" lon="6.61103">
        <ele>1996</ele>
        <time>2020-07-21T13:59:26Z</time>
      </trkpt>
      <trkpt lat="45.35609" lon="6.61098">
        <ele>1996</ele>
        <time>2020-07-21T14:00:07Z</time>
      </trkpt>
      <trkpt lat="45.35611" lon="6.61089">
        <ele>1996</ele>
        <time>2020-07-21T14:00:20Z</time>
      </trkpt>
      <trkpt lat="45.35617" lon="6.61086">
        <ele>1995</ele>
        <time>2020-07-21T14:00:41Z</time>
      </trkpt>
      <trkpt lat="45.35624" lon="6.61083">
        <ele>1998</ele>
        <time>2020-07-21T14:00:51Z</time>
      </trkpt>
      <trkpt lat="45.35625" lon="6.61093">
        <ele>1994</ele>
        <time>2020-07-21T14:02:14Z</time>
      </trkpt>
      <trkpt lat="45.35621" lon="6.611">
        <ele>1995</ele>
        <time>2020-07-21T14:02:26Z</time>
      </trkpt>
      <trkpt lat="45.35619" lon="6.61109">
        <ele>1995</ele>
        <time>2020-07-21T14:02:36Z</time>
      </trkpt>
      <trkpt lat="45.35615" lon="6.61117">
        <ele>1995</ele>
        <time>2020-07-21T14:02:43Z</time>
      </trkpt>
      <trkpt lat="45.3561" lon="6.61126">
        <ele>1996</ele>
        <time>2020-07-21T14:02:50Z</time>
      </trkpt>
      <trkpt lat="45.35608" lon="6.61135">
        <ele>1996</ele>
        <time>2020-07-21T14:02:56Z</time>
      </trkpt>
      <trkpt lat="45.3561" lon="6.61145">
        <ele>1996</ele>
        <time>2020-07-21T14:03:02Z</time>
      </trkpt>
      <trkpt lat="45.35615" lon="6.61152">
        <ele>1996</ele>
        <time>2020-07-21T14:03:09Z</time>
      </trkpt>
      <trkpt lat="45.35623" lon="6.61152">
        <ele>1996</ele>
        <time>2020-07-21T14:03:15Z</time>
      </trkpt>
      <trkpt lat="45.3563" lon="6.6115">
        <ele>1995</ele>
        <time>2020-07-21T14:03:21Z</time>
      </trkpt>
      <trkpt lat="45.35636" lon="6.61148">
        <ele>1995</ele>
        <time>2020-07-21T14:03:28Z</time>
      </trkpt>
      <trkpt lat="45.35643" lon="6.61142">
        <ele>1995</ele>
        <time>2020-07-21T14:03:34Z</time>
      </trkpt>
      <trkpt lat="45.35649" lon="6.61138">
        <ele>1995</ele>
        <time>2020-07-21T14:03:40Z</time>
      </trkpt>
      <trkpt lat="45.35655" lon="6.61133">
        <ele>1994</ele>
        <time>2020-07-21T14:03:47Z</time>
      </trkpt>
      <trkpt lat="45.35661" lon="6.61127">
        <ele>1994</ele>
        <time>2020-07-21T14:03:52Z</time>
      </trkpt>
      <trkpt lat="45.35668" lon="6.61125">
        <ele>1990</ele>
        <time>2020-07-21T14:03:57Z</time>
      </trkpt>
      <trkpt lat="45.35675" lon="6.61127">
        <ele>1990</ele>
        <time>2020-07-21T14:04:03Z</time>
      </trkpt>
      <trkpt lat="45.35681" lon="6.61132">
        <ele>1991</ele>
        <time>2020-07-21T14:04:09Z</time>
      </trkpt>
      <trkpt lat="45.35688" lon="6.61135">
        <ele>1991</ele>
        <time>2020-07-21T14:04:14Z</time>
      </trkpt>
      <trkpt lat="45.35694" lon="6.6114">
        <ele>1991</ele>
        <time>2020-07-21T14:04:20Z</time>
      </trkpt>
      <trkpt lat="45.35701" lon="6.61145">
        <ele>1991</ele>
        <time>2020-07-21T14:04:26Z</time>
      </trkpt>
      <trkpt lat="45.35706" lon="6.61152">
        <ele>1991</ele>
        <time>2020-07-21T14:04:31Z</time>
      </trkpt>
      <trkpt lat="45.35713" lon="6.61157">
        <ele>1991</ele>
        <time>2020-07-21T14:04:38Z</time>
      </trkpt>
      <trkpt lat="45.35718" lon="6.61165">
        <ele>1991</ele>
        <time>2020-07-21T14:04:44Z</time>
      </trkpt>
      <trkpt lat="45.35723" lon="6.61173">
        <ele>1998</ele>
        <time>2020-07-21T14:04:51Z</time>
      </trkpt>
      <trkpt lat="45.35727" lon="6.61182">
        <ele>1998</ele>
        <time>2020-07-21T14:04:59Z</time>
      </trkpt>
      <trkpt lat="45.35732" lon="6.61189">
        <ele>1999</ele>
        <time>2020-07-21T14:05:14Z</time>
      </trkpt>
      <trkpt lat="45.35739" lon="6.61191">
        <ele>1999</ele>
        <time>2020-07-21T14:05:21Z</time>
      </trkpt>
      <trkpt lat="45.35745" lon="6.6119">
        <ele>1998</ele>
        <time>2020-07-21T14:05:31Z</time>
      </trkpt>
      <trkpt lat="45.35753" lon="6.61191">
        <ele>2004</ele>
        <time>2020-07-21T14:05:51Z</time>
      </trkpt>
      <trkpt lat="45.35761" lon="6.61191">
        <ele>2005</ele>
        <time>2020-07-21T14:05:58Z</time>
      </trkpt>
      <trkpt lat="45.35768" lon="6.61194">
        <ele>2007</ele>
        <time>2020-07-21T14:06:07Z</time>
      </trkpt>
      <trkpt lat="45.35774" lon="6.6119">
        <ele>2007</ele>
        <time>2020-07-21T14:06:16Z</time>
      </trkpt>
      <trkpt lat="45.35777" lon="6.61182">
        <ele>2006</ele>
        <time>2020-07-21T14:06:26Z</time>
      </trkpt>
      <trkpt lat="45.35782" lon="6.61176">
        <ele>2007</ele>
        <time>2020-07-21T14:06:33Z</time>
      </trkpt>
      <trkpt lat="45.35789" lon="6.61173">
        <ele>2008</ele>
        <time>2020-07-21T14:06:39Z</time>
      </trkpt>
      <trkpt lat="45.35796" lon="6.61171">
        <ele>2009</ele>
        <time>2020-07-21T14:06:45Z</time>
      </trkpt>
      <trkpt lat="45.35801" lon="6.61165">
        <ele>2000</ele>
        <time>2020-07-21T14:06:51Z</time>
      </trkpt>
      <trkpt lat="45.35801" lon="6.61155">
        <ele>2000</ele>
        <time>2020-07-21T14:07:00Z</time>
      </trkpt>
      <trkpt lat="45.35802" lon="6.61145">
        <ele>1999</ele>
        <time>2020-07-21T14:07:06Z</time>
      </trkpt>
      <trkpt lat="45.35806" lon="6.61137">
        <ele>1999</ele>
        <time>2020-07-21T14:07:13Z</time>
      </trkpt>
      <trkpt lat="45.35805" lon="6.61126">
        <ele>1998</ele>
        <time>2020-07-21T14:07:21Z</time>
      </trkpt>
      <trkpt lat="45.35803" lon="6.61117">
        <ele>1997</ele>
        <time>2020-07-21T14:07:27Z</time>
      </trkpt>
      <trkpt lat="45.35809" lon="6.61111">
        <ele>1997</ele>
        <time>2020-07-21T14:07:33Z</time>
      </trkpt>
      <trkpt lat="45.3581" lon="6.61102">
        <ele>1996</ele>
        <time>2020-07-21T14:07:39Z</time>
      </trkpt>
      <trkpt lat="45.35816" lon="6.61099">
        <ele>1996</ele>
        <time>2020-07-21T14:07:45Z</time>
      </trkpt>
      <trkpt lat="45.35822" lon="6.61093">
        <ele>1996</ele>
        <time>2020-07-21T14:07:52Z</time>
      </trkpt>
      <trkpt lat="45.35823" lon="6.61083">
        <ele>1994</ele>
        <time>2020-07-21T14:07:59Z</time>
      </trkpt>
      <trkpt lat="45.35827" lon="6.61074">
        <ele>1994</ele>
        <time>2020-07-21T14:08:05Z</time>
      </trkpt>
      <trkpt lat="45.35831" lon="6.61067">
        <ele>1993</ele>
        <time>2020-07-21T14:08:11Z</time>
      </trkpt>
      <trkpt lat="45.35836" lon="6.61059">
        <ele>2007</ele>
        <time>2020-07-21T14:08:17Z</time>
      </trkpt>
      <trkpt lat="45.3584" lon="6.61051">
        <ele>2008</ele>
        <time>2020-07-21T14:08:25Z</time>
      </trkpt>
      <trkpt lat="45.35843" lon="6.61042">
        <ele>2009</ele>
        <time>2020-07-21T14:08:32Z</time>
      </trkpt>
      <trkpt lat="45.35846" lon="6.61033">
        <ele>2009</ele>
        <time>2020-07-21T14:08:42Z</time>
      </trkpt>
      <trkpt lat="45.35852" lon="6.61026">
        <ele>2009</ele>
        <time>2020-07-21T14:08:50Z</time>
      </trkpt>
      <trkpt lat="45.35857" lon="6.61019">
        <ele>2009</ele>
        <time>2020-07-21T14:09:00Z</time>
      </trkpt>
      <trkpt lat="45.35862" lon="6.61013">
        <ele>2010</ele>
        <time>2020-07-21T14:09:10Z</time>
      </trkpt>
      <trkpt lat="45.35863" lon="6.61003">
        <ele>2010</ele>
        <time>2020-07-21T14:09:15Z</time>
      </trkpt>
      <trkpt lat="45.35867" lon="6.60996">
        <ele>2008</ele>
        <time>2020-07-21T14:09:22Z</time>
      </trkpt>
      <trkpt lat="45.35869" lon="6.60987">
        <ele>2008</ele>
        <time>2020-07-21T14:09:31Z</time>
      </trkpt>
      <trkpt lat="45.35873" lon="6.60978">
        <ele>2010</ele>
        <time>2020-07-21T14:09:38Z</time>
      </trkpt>
      <trkpt lat="45.35876" lon="6.6097">
        <ele>2010</ele>
        <time>2020-07-21T14:09:48Z</time>
      </trkpt>
      <trkpt lat="45.35875" lon="6.6096">
        <ele>2010</ele>
        <time>2020-07-21T14:09:59Z</time>
      </trkpt>
      <trkpt lat="45.35879" lon="6.60952">
        <ele>2010</ele>
        <time>2020-07-21T14:10:48Z</time>
      </trkpt>
      <trkpt lat="45.35883" lon="6.60943">
        <ele>2011</ele>
        <time>2020-07-21T14:10:58Z</time>
      </trkpt>
      <trkpt lat="45.35886" lon="6.60935">
        <ele>2012</ele>
        <time>2020-07-21T14:11:06Z</time>
      </trkpt>
      <trkpt lat="45.35887" lon="6.60925">
        <ele>2012</ele>
        <time>2020-07-21T14:11:15Z</time>
      </trkpt>
      <trkpt lat="45.3589" lon="6.60917">
        <ele>2009</ele>
        <time>2020-07-21T14:11:25Z</time>
      </trkpt>
      <trkpt lat="45.35895" lon="6.6091">
        <ele>2010</ele>
        <time>2020-07-21T14:12:07Z</time>
      </trkpt>
      <trkpt lat="45.35901" lon="6.60908">
        <ele>2012</ele>
        <time>2020-07-21T14:12:18Z</time>
      </trkpt>
      <trkpt lat="45.35905" lon="6.609">
        <ele>2012</ele>
        <time>2020-07-21T14:12:27Z</time>
      </trkpt>
      <trkpt lat="45.3591" lon="6.60895">
        <ele>2011</ele>
        <time>2020-07-21T14:12:36Z</time>
      </trkpt>
      <trkpt lat="45.35915" lon="6.60887">
        <ele>2010</ele>
        <time>2020-07-21T14:12:47Z</time>
      </trkpt>
      <trkpt lat="45.35915" lon="6.60877">
        <ele>2009</ele>
        <time>2020-07-21T14:12:55Z</time>
      </trkpt>
      <trkpt lat="45.35917" lon="6.60868">
        <ele>2033</ele>
        <time>2020-07-21T14:13:38Z</time>
      </trkpt>
      <trkpt lat="45.3592" lon="6.6086">
        <ele>2031</ele>
        <time>2020-07-21T14:13:45Z</time>
      </trkpt>
      <trkpt lat="45.35921" lon="6.6085">
        <ele>2027</ele>
        <time>2020-07-21T14:13:52Z</time>
      </trkpt>
      <trkpt lat="45.35927" lon="6.60845">
        <ele>2027</ele>
        <time>2020-07-21T14:13:59Z</time>
      </trkpt>
      <trkpt lat="45.35932" lon="6.60837">
        <ele>2027</ele>
        <time>2020-07-21T14:14:05Z</time>
      </trkpt>
      <trkpt lat="45.35933" lon="6.60827">
        <ele>2024</ele>
        <time>2020-07-21T14:14:11Z</time>
      </trkpt>
      <trkpt lat="45.35933" lon="6.60818">
        <ele>2026</ele>
        <time>2020-07-21T14:14:17Z</time>
      </trkpt>
      <trkpt lat="45.35936" lon="6.60808">
        <ele>2028</ele>
        <time>2020-07-21T14:14:23Z</time>
      </trkpt>
      <trkpt lat="45.35939" lon="6.60799">
        <ele>2029</ele>
        <time>2020-07-21T14:14:30Z</time>
      </trkpt>
      <trkpt lat="45.3594" lon="6.60789">
        <ele>2029</ele>
        <time>2020-07-21T14:14:36Z</time>
      </trkpt>
      <trkpt lat="45.35939" lon="6.60778">
        <ele>2028</ele>
        <time>2020-07-21T14:14:42Z</time>
      </trkpt>
      <trkpt lat="45.3594" lon="6.60768">
        <ele>2026</ele>
        <time>2020-07-21T14:14:50Z</time>
      </trkpt>
      <trkpt lat="45.3594" lon="6.60758">
        <ele>2025</ele>
        <time>2020-07-21T14:15:33Z</time>
      </trkpt>
      <trkpt lat="45.35938" lon="6.60749">
        <ele>2020</ele>
        <time>2020-07-21T14:15:39Z</time>
      </trkpt>
      <trkpt lat="45.35939" lon="6.60739">
        <ele>2021</ele>
        <time>2020-07-21T14:15:45Z</time>
      </trkpt>
      <trkpt lat="45.35937" lon="6.60729">
        <ele>2021</ele>
        <time>2020-07-21T14:15:52Z</time>
      </trkpt>
      <trkpt lat="45.35939" lon="6.60718">
        <ele>2022</ele>
        <time>2020-07-21T14:16:05Z</time>
      </trkpt>
      <trkpt lat="45.35944" lon="6.60712">
        <ele>2023</ele>
        <time>2020-07-21T14:16:11Z</time>
      </trkpt>
      <trkpt lat="45.35949" lon="6.60706">
        <ele>2024</ele>
        <time>2020-07-21T14:16:17Z</time>
      </trkpt>
      <trkpt lat="45.35949" lon="6.60696">
        <ele>2023</ele>
        <time>2020-07-21T14:16:23Z</time>
      </trkpt>
      <trkpt lat="45.35951" lon="6.60687">
        <ele>2023</ele>
        <time>2020-07-21T14:16:28Z</time>
      </trkpt>
      <trkpt lat="45.35954" lon="6.60678">
        <ele>2023</ele>
        <time>2020-07-21T14:16:34Z</time>
      </trkpt>
      <trkpt lat="45.35957" lon="6.60669">
        <ele>2024</ele>
        <time>2020-07-21T14:16:41Z</time>
      </trkpt>
      <trkpt lat="45.35959" lon="6.6066">
        <ele>2020</ele>
        <time>2020-07-21T14:16:48Z</time>
      </trkpt>
      <trkpt lat="45.35963" lon="6.60651">
        <ele>2022</ele>
        <time>2020-07-21T14:16:56Z</time>
      </trkpt>
      <trkpt lat="45.35966" lon="6.60642">
        <ele>2022</ele>
        <time>2020-07-21T14:17:03Z</time>
      </trkpt>
      <trkpt lat="45.35968" lon="6.60633">
        <ele>2022</ele>
        <time>2020-07-21T14:17:19Z</time>
      </trkpt>
      <trkpt lat="45.35968" lon="6.60624">
        <ele>2022</ele>
        <time>2020-07-21T14:17:26Z</time>
      </trkpt>
      <trkpt lat="45.35966" lon="6.60615">
        <ele>2021</ele>
        <time>2020-07-21T14:17:31Z</time>
      </trkpt>
      <trkpt lat="45.35967" lon="6.60606">
        <ele>2021</ele>
        <time>2020-07-21T14:17:38Z</time>
      </trkpt>
      <trkpt lat="45.3597" lon="6.60596">
        <ele>2022</ele>
        <time>2020-07-21T14:17:44Z</time>
      </trkpt>
      <trkpt lat="45.3597" lon="6.60586">
        <ele>2023</ele>
        <time>2020-07-21T14:17:50Z</time>
      </trkpt>
      <trkpt lat="45.35966" lon="6.60579">
        <ele>2018</ele>
        <time>2020-07-21T14:17:57Z</time>
      </trkpt>
      <trkpt lat="45.3596" lon="6.60573">
        <ele>2016</ele>
        <time>2020-07-21T14:18:03Z</time>
      </trkpt>
      <trkpt lat="45.3596" lon="6.60564">
        <ele>2016</ele>
        <time>2020-07-21T14:18:10Z</time>
      </trkpt>
      <trkpt lat="45.35961" lon="6.60555">
        <ele>2016</ele>
        <time>2020-07-21T14:20:15Z</time>
      </trkpt>
      <trkpt lat="45.35961" lon="6.60545">
        <ele>2016</ele>
        <time>2020-07-21T14:20:31Z</time>
      </trkpt>
      <trkpt lat="45.35961" lon="6.60535">
        <ele>2015</ele>
        <time>2020-07-21T14:20:38Z</time>
      </trkpt>
      <trkpt lat="45.35961" lon="6.60525">
        <ele>2015</ele>
        <time>2020-07-21T14:20:47Z</time>
      </trkpt>
      <trkpt lat="45.35957" lon="6.60518">
        <ele>2014</ele>
        <time>2020-07-21T14:20:52Z</time>
      </trkpt>
      <trkpt lat="45.35955" lon="6.60507">
        <ele>2013</ele>
        <time>2020-07-21T14:20:59Z</time>
      </trkpt>
      <trkpt lat="45.35956" lon="6.60498">
        <ele>2011</ele>
        <time>2020-07-21T14:21:09Z</time>
      </trkpt>
      <trkpt lat="45.35954" lon="6.60488">
        <ele>2010</ele>
        <time>2020-07-21T14:21:14Z</time>
      </trkpt>
      <trkpt lat="45.35954" lon="6.60476">
        <ele>2010</ele>
        <time>2020-07-21T14:21:23Z</time>
      </trkpt>
      <trkpt lat="45.35958" lon="6.60467">
        <ele>2011</ele>
        <time>2020-07-21T14:21:30Z</time>
      </trkpt>
      <trkpt lat="45.35963" lon="6.6046">
        <ele>2012</ele>
        <time>2020-07-21T14:21:37Z</time>
      </trkpt>
      <trkpt lat="45.35968" lon="6.60455">
        <ele>2014</ele>
        <time>2020-07-21T14:21:45Z</time>
      </trkpt>
      <trkpt lat="45.3597" lon="6.60445">
        <ele>2014</ele>
        <time>2020-07-21T14:21:53Z</time>
      </trkpt>
      <trkpt lat="45.35972" lon="6.60435">
        <ele>2015</ele>
        <time>2020-07-21T14:22:02Z</time>
      </trkpt>
      <trkpt lat="45.3598" lon="6.60428">
        <ele>2019</ele>
        <time>2020-07-21T14:22:15Z</time>
      </trkpt>
      <trkpt lat="45.35982" lon="6.60419">
        <ele>2020</ele>
        <time>2020-07-21T14:22:24Z</time>
      </trkpt>
      <trkpt lat="45.35983" lon="6.60409">
        <ele>2017</ele>
        <time>2020-07-21T14:22:32Z</time>
      </trkpt>
      <trkpt lat="45.35985" lon="6.60399">
        <ele>2015</ele>
        <time>2020-07-21T14:22:38Z</time>
      </trkpt>
      <trkpt lat="45.35985" lon="6.60389">
        <ele>2013</ele>
        <time>2020-07-21T14:22:45Z</time>
      </trkpt>
      <trkpt lat="45.35984" lon="6.60378">
        <ele>2011</ele>
        <time>2020-07-21T14:22:54Z</time>
      </trkpt>
      <trkpt lat="45.35985" lon="6.60363">
        <ele>2011</ele>
        <time>2020-07-21T14:22:59Z</time>
      </trkpt>
      <trkpt lat="45.35987" lon="6.60354">
        <ele>2012</ele>
        <time>2020-07-21T14:23:06Z</time>
      </trkpt>
      <trkpt lat="45.35986" lon="6.60343">
        <ele>2014</ele>
        <time>2020-07-21T14:23:13Z</time>
      </trkpt>
      <trkpt lat="45.35988" lon="6.60334">
        <ele>2016</ele>
        <time>2020-07-21T14:23:20Z</time>
      </trkpt>
      <trkpt lat="45.35993" lon="6.60327">
        <ele>2014</ele>
        <time>2020-07-21T14:23:28Z</time>
      </trkpt>
      <trkpt lat="45.35997" lon="6.60319">
        <ele>2012</ele>
        <time>2020-07-21T14:23:36Z</time>
      </trkpt>
      <trkpt lat="45.35998" lon="6.60309">
        <ele>2008</ele>
        <time>2020-07-21T14:23:44Z</time>
      </trkpt>
      <trkpt lat="45.36001" lon="6.60299">
        <ele>2035</ele>
        <time>2020-07-21T14:23:54Z</time>
      </trkpt>
      <trkpt lat="45.35998" lon="6.60289">
        <ele>2005</ele>
        <time>2020-07-21T14:24:01Z</time>
      </trkpt>
      <trkpt lat="45.35998" lon="6.60279">
        <ele>2006</ele>
        <time>2020-07-21T14:24:08Z</time>
      </trkpt>
      <trkpt lat="45.36" lon="6.60269">
        <ele>2030</ele>
        <time>2020-07-21T14:24:15Z</time>
      </trkpt>
      <trkpt lat="45.36003" lon="6.60259">
        <ele>2026</ele>
        <time>2020-07-21T14:24:23Z</time>
      </trkpt>
      <trkpt lat="45.35999" lon="6.60249">
        <ele>2016</ele>
        <time>2020-07-21T14:24:31Z</time>
      </trkpt>
      <trkpt lat="45.36" lon="6.60239">
        <ele>2009</ele>
        <time>2020-07-21T14:24:37Z</time>
      </trkpt>
      <trkpt lat="45.36002" lon="6.60229">
        <ele>2028</ele>
        <time>2020-07-21T14:24:44Z</time>
      </trkpt>
      <trkpt lat="45.36007" lon="6.60221">
        <ele>2030</ele>
        <time>2020-07-21T14:24:49Z</time>
      </trkpt>
      <trkpt lat="45.36009" lon="6.60212">
        <ele>2031</ele>
        <time>2020-07-21T14:24:58Z</time>
      </trkpt>
      <trkpt lat="45.36006" lon="6.60204">
        <ele>2030</ele>
        <time>2020-07-21T14:25:05Z</time>
      </trkpt>
      <trkpt lat="45.36004" lon="6.60193">
        <ele>2028</ele>
        <time>2020-07-21T14:25:11Z</time>
      </trkpt>
      <trkpt lat="45.36002" lon="6.60184">
        <ele>2025</ele>
        <time>2020-07-21T14:25:17Z</time>
      </trkpt>
      <trkpt lat="45.35999" lon="6.60175">
        <ele>2008</ele>
        <time>2020-07-21T14:25:26Z</time>
      </trkpt>
      <trkpt lat="45.36" lon="6.60165">
        <ele>2012</ele>
        <time>2020-07-21T14:25:34Z</time>
      </trkpt>
      <trkpt lat="45.36" lon="6.60156">
        <ele>2005</ele>
        <time>2020-07-21T14:25:42Z</time>
      </trkpt>
      <trkpt lat="45.35999" lon="6.60145">
        <ele>2000</ele>
        <time>2020-07-21T14:25:48Z</time>
      </trkpt>
      <trkpt lat="45.36001" lon="6.60134">
        <ele>2023</ele>
        <time>2020-07-21T14:25:55Z</time>
      </trkpt>
      <trkpt lat="45.36005" lon="6.60126">
        <ele>2024</ele>
        <time>2020-07-21T14:26:03Z</time>
      </trkpt>
      <trkpt lat="45.36009" lon="6.60117">
        <ele>2023</ele>
        <time>2020-07-21T14:26:10Z</time>
      </trkpt>
      <trkpt lat="45.36012" lon="6.60107">
        <ele>2022</ele>
        <time>2020-07-21T14:26:18Z</time>
      </trkpt>
      <trkpt lat="45.36012" lon="6.60097">
        <ele>2019</ele>
        <time>2020-07-21T14:26:25Z</time>
      </trkpt>
      <trkpt lat="45.36015" lon="6.60088">
        <ele>2019</ele>
        <time>2020-07-21T14:26:32Z</time>
      </trkpt>
      <trkpt lat="45.36018" lon="6.60078">
        <ele>2015</ele>
        <time>2020-07-21T14:26:39Z</time>
      </trkpt>
      <trkpt lat="45.3602" lon="6.6007">
        <ele>2017</ele>
        <time>2020-07-21T14:26:46Z</time>
      </trkpt>
      <trkpt lat="45.36023" lon="6.60061">
        <ele>2018</ele>
        <time>2020-07-21T14:26:53Z</time>
      </trkpt>
      <trkpt lat="45.36026" lon="6.60052">
        <ele>2018</ele>
        <time>2020-07-21T14:26:59Z</time>
      </trkpt>
      <trkpt lat="45.36029" lon="6.60044">
        <ele>2019</ele>
        <time>2020-07-21T14:27:06Z</time>
      </trkpt>
      <trkpt lat="45.36034" lon="6.60037">
        <ele>2019</ele>
        <time>2020-07-21T14:27:14Z</time>
      </trkpt>
      <trkpt lat="45.36038" lon="6.60029">
        <ele>2020</ele>
        <time>2020-07-21T14:27:22Z</time>
      </trkpt>
      <trkpt lat="45.36041" lon="6.6002">
        <ele>2020</ele>
        <time>2020-07-21T14:27:30Z</time>
      </trkpt>
      <trkpt lat="45.36047" lon="6.60015">
        <ele>2021</ele>
        <time>2020-07-21T14:27:39Z</time>
      </trkpt>
      <trkpt lat="45.36045" lon="6.60003">
        <ele>2021</ele>
        <time>2020-07-21T14:27:44Z</time>
      </trkpt>
      <trkpt lat="45.36044" lon="6.59993">
        <ele>2012</ele>
        <time>2020-07-21T14:27:49Z</time>
      </trkpt>
      <trkpt lat="45.36046" lon="6.59984">
        <ele>2011</ele>
        <time>2020-07-21T14:27:58Z</time>
      </trkpt>
      <trkpt lat="45.36051" lon="6.59976">
        <ele>2012</ele>
        <time>2020-07-21T14:28:06Z</time>
      </trkpt>
      <trkpt lat="45.36053" lon="6.59966">
        <ele>2011</ele>
        <time>2020-07-21T14:28:13Z</time>
      </trkpt>
      <trkpt lat="45.36056" lon="6.59958">
        <ele>2011</ele>
        <time>2020-07-21T14:28:21Z</time>
      </trkpt>
      <trkpt lat="45.36061" lon="6.59951">
        <ele>2012</ele>
        <time>2020-07-21T14:28:28Z</time>
      </trkpt>
      <trkpt lat="45.36066" lon="6.59944">
        <ele>2012</ele>
        <time>2020-07-21T14:28:33Z</time>
      </trkpt>
      <trkpt lat="45.36069" lon="6.59935">
        <ele>2013</ele>
        <time>2020-07-21T14:28:40Z</time>
      </trkpt>
      <trkpt lat="45.36073" lon="6.59927">
        <ele>2015</ele>
        <time>2020-07-21T14:28:46Z</time>
      </trkpt>
      <trkpt lat="45.36079" lon="6.59922">
        <ele>2017</ele>
        <time>2020-07-21T14:28:53Z</time>
      </trkpt>
      <trkpt lat="45.36085" lon="6.59917">
        <ele>2021</ele>
        <time>2020-07-21T14:29:02Z</time>
      </trkpt>
      <trkpt lat="45.36092" lon="6.59915">
        <ele>2021</ele>
        <time>2020-07-21T14:29:09Z</time>
      </trkpt>
      <trkpt lat="45.36098" lon="6.59912">
        <ele>2022</ele>
        <time>2020-07-21T14:29:15Z</time>
      </trkpt>
      <trkpt lat="45.36105" lon="6.59912">
        <ele>2023</ele>
        <time>2020-07-21T14:29:22Z</time>
      </trkpt>
      <trkpt lat="45.36111" lon="6.59908">
        <ele>2023</ele>
        <time>2020-07-21T14:29:29Z</time>
      </trkpt>
      <trkpt lat="45.36115" lon="6.59899">
        <ele>2023</ele>
        <time>2020-07-21T14:29:36Z</time>
      </trkpt>
      <trkpt lat="45.36117" lon="6.5989">
        <ele>2023</ele>
        <time>2020-07-21T14:29:43Z</time>
      </trkpt>
      <trkpt lat="45.3612" lon="6.59881">
        <ele>2022</ele>
        <time>2020-07-21T14:29:49Z</time>
      </trkpt>
      <trkpt lat="45.36125" lon="6.59875">
        <ele>2022</ele>
        <time>2020-07-21T14:29:55Z</time>
      </trkpt>
      <trkpt lat="45.36131" lon="6.5987">
        <ele>2022</ele>
        <time>2020-07-21T14:30:03Z</time>
      </trkpt>
      <trkpt lat="45.36127" lon="6.59862">
        <ele>2021</ele>
        <time>2020-07-21T14:30:17Z</time>
      </trkpt>
      <trkpt lat="45.36126" lon="6.59852">
        <ele>2019</ele>
        <time>2020-07-21T14:30:32Z</time>
      </trkpt>
      <trkpt lat="45.36127" lon="6.59842">
        <ele>2019</ele>
        <time>2020-07-21T14:30:41Z</time>
      </trkpt>
      <trkpt lat="45.36131" lon="6.59833">
        <ele>2019</ele>
        <time>2020-07-21T14:30:51Z</time>
      </trkpt>
      <trkpt lat="45.36131" lon="6.59824">
        <ele>2003</ele>
        <time>2020-07-21T14:31:02Z</time>
      </trkpt>
      <trkpt lat="45.36135" lon="6.59816">
        <ele>2002</ele>
        <time>2020-07-21T14:31:14Z</time>
      </trkpt>
      <trkpt lat="45.36135" lon="6.59804">
        <ele>2001</ele>
        <time>2020-07-21T14:31:23Z</time>
      </trkpt>
      <trkpt lat="45.36139" lon="6.59797">
        <ele>2000</ele>
        <time>2020-07-21T14:31:31Z</time>
      </trkpt>
      <trkpt lat="45.36142" lon="6.59788">
        <ele>1998</ele>
        <time>2020-07-21T14:33:03Z</time>
      </trkpt>
      <trkpt lat="45.36144" lon="6.59779">
        <ele>1997</ele>
        <time>2020-07-21T14:33:11Z</time>
      </trkpt>
      <trkpt lat="45.36147" lon="6.5977">
        <ele>1996</ele>
        <time>2020-07-21T14:33:22Z</time>
      </trkpt>
      <trkpt lat="45.3615" lon="6.59761">
        <ele>1995</ele>
        <time>2020-07-21T14:33:32Z</time>
      </trkpt>
      <trkpt lat="45.36154" lon="6.59753">
        <ele>1995</ele>
        <time>2020-07-21T14:33:49Z</time>
      </trkpt>
      <trkpt lat="45.36158" lon="6.59745">
        <ele>1986</ele>
        <time>2020-07-21T14:33:56Z</time>
      </trkpt>
      <trkpt lat="45.36166" lon="6.5974">
        <ele>1985</ele>
        <time>2020-07-21T14:34:01Z</time>
      </trkpt>
      <trkpt lat="45.36172" lon="6.59735">
        <ele>1994</ele>
        <time>2020-07-21T14:34:10Z</time>
      </trkpt>
      <trkpt lat="45.36171" lon="6.59725">
        <ele>1993</ele>
        <time>2020-07-21T14:34:18Z</time>
      </trkpt>
      <trkpt lat="45.36174" lon="6.59717">
        <ele>1992</ele>
        <time>2020-07-21T14:34:31Z</time>
      </trkpt>
      <trkpt lat="45.36176" lon="6.59707">
        <ele>1990</ele>
        <time>2020-07-21T14:34:38Z</time>
      </trkpt>
      <trkpt lat="45.3618" lon="6.59699">
        <ele>1989</ele>
        <time>2020-07-21T14:34:44Z</time>
      </trkpt>
      <trkpt lat="45.36185" lon="6.59692">
        <ele>1988</ele>
        <time>2020-07-21T14:34:50Z</time>
      </trkpt>
      <trkpt lat="45.36191" lon="6.59689">
        <ele>1989</ele>
        <time>2020-07-21T14:34:58Z</time>
      </trkpt>
      <trkpt lat="45.36198" lon="6.59685">
        <ele>1990</ele>
        <time>2020-07-21T14:35:06Z</time>
      </trkpt>
      <trkpt lat="45.36204" lon="6.59681">
        <ele>1991</ele>
        <time>2020-07-21T14:35:14Z</time>
      </trkpt>
      <trkpt lat="45.36206" lon="6.59671">
        <ele>1991</ele>
        <time>2020-07-21T14:35:20Z</time>
      </trkpt>
      <trkpt lat="45.36206" lon="6.59661">
        <ele>1975</ele>
        <time>2020-07-21T14:35:27Z</time>
      </trkpt>
      <trkpt lat="45.36209" lon="6.59653">
        <ele>1975</ele>
        <time>2020-07-21T14:35:33Z</time>
      </trkpt>
      <trkpt lat="45.36213" lon="6.59644">
        <ele>1975</ele>
        <time>2020-07-21T14:35:39Z</time>
      </trkpt>
      <trkpt lat="45.36217" lon="6.59637">
        <ele>1975</ele>
        <time>2020-07-21T14:35:46Z</time>
      </trkpt>
      <trkpt lat="45.36218" lon="6.59627">
        <ele>1973</ele>
        <time>2020-07-21T14:36:01Z</time>
      </trkpt>
      <trkpt lat="45.36216" lon="6.59617">
        <ele>1972</ele>
        <time>2020-07-21T14:36:11Z</time>
      </trkpt>
      <trkpt lat="45.36215" lon="6.59608">
        <ele>1970</ele>
        <time>2020-07-21T14:36:23Z</time>
      </trkpt>
      <trkpt lat="45.36214" lon="6.59599">
        <ele>1969</ele>
        <time>2020-07-21T14:36:33Z</time>
      </trkpt>
      <trkpt lat="45.36218" lon="6.5959">
        <ele>1969</ele>
        <time>2020-07-21T14:36:40Z</time>
      </trkpt>
      <trkpt lat="45.3622" lon="6.5958">
        <ele>1955</ele>
        <time>2020-07-21T14:36:53Z</time>
      </trkpt>
      <trkpt lat="45.36219" lon="6.5957">
        <ele>1953</ele>
        <time>2020-07-21T14:37:08Z</time>
      </trkpt>
      <trkpt lat="45.3622" lon="6.5956">
        <ele>1952</ele>
        <time>2020-07-21T14:37:15Z</time>
      </trkpt>
      <trkpt lat="45.36225" lon="6.59553">
        <ele>1951</ele>
        <time>2020-07-21T14:37:22Z</time>
      </trkpt>
      <trkpt lat="45.36229" lon="6.59545">
        <ele>1950</ele>
        <time>2020-07-21T14:37:31Z</time>
      </trkpt>
      <trkpt lat="45.36231" lon="6.59536">
        <ele>1949</ele>
        <time>2020-07-21T14:37:42Z</time>
      </trkpt>
      <trkpt lat="45.36234" lon="6.59528">
        <ele>1948</ele>
        <time>2020-07-21T14:37:57Z</time>
      </trkpt>
      <trkpt lat="45.36239" lon="6.59519">
        <ele>1948</ele>
        <time>2020-07-21T14:38:05Z</time>
      </trkpt>
      <trkpt lat="45.36237" lon="6.59509">
        <ele>1947</ele>
        <time>2020-07-21T14:38:22Z</time>
      </trkpt>
      <trkpt lat="45.3623" lon="6.59511">
        <ele>1946</ele>
        <time>2020-07-21T14:38:31Z</time>
      </trkpt>
      <trkpt lat="45.36224" lon="6.59506">
        <ele>1945</ele>
        <time>2020-07-21T14:38:44Z</time>
      </trkpt>
      <trkpt lat="45.36225" lon="6.59497">
        <ele>1930</ele>
        <time>2020-07-21T14:38:54Z</time>
      </trkpt>
      <trkpt lat="45.36229" lon="6.59489">
        <ele>1931</ele>
        <time>2020-07-21T14:39:02Z</time>
      </trkpt>
      <trkpt lat="45.36233" lon="6.59483">
        <ele>1931</ele>
        <time>2020-07-21T14:39:13Z</time>
      </trkpt>
      <trkpt lat="45.36238" lon="6.59476">
        <ele>1929</ele>
        <time>2020-07-21T14:39:18Z</time>
      </trkpt>
      <trkpt lat="45.36243" lon="6.59469">
        <ele>1928</ele>
        <time>2020-07-21T14:39:23Z</time>
      </trkpt>
      <trkpt lat="45.3625" lon="6.59465">
        <ele>1927</ele>
        <time>2020-07-21T14:39:31Z</time>
      </trkpt>
      <trkpt lat="45.36255" lon="6.59456">
        <ele>1942</ele>
        <time>2020-07-21T14:39:38Z</time>
      </trkpt>
      <trkpt lat="45.36258" lon="6.59446">
        <ele>1939</ele>
        <time>2020-07-21T14:39:43Z</time>
      </trkpt>
      <trkpt lat="45.36263" lon="6.59438">
        <ele>1938</ele>
        <time>2020-07-21T14:39:51Z</time>
      </trkpt>
      <trkpt lat="45.36268" lon="6.59432">
        <ele>1937</ele>
        <time>2020-07-21T14:39:57Z</time>
      </trkpt>
      <trkpt lat="45.36274" lon="6.59427">
        <ele>1938</ele>
        <time>2020-07-21T14:40:04Z</time>
      </trkpt>
      <trkpt lat="45.36279" lon="6.59419">
        <ele>1939</ele>
        <time>2020-07-21T14:40:11Z</time>
      </trkpt>
      <trkpt lat="45.36284" lon="6.59412">
        <ele>1925</ele>
        <time>2020-07-21T14:40:19Z</time>
      </trkpt>
      <trkpt lat="45.36289" lon="6.59405">
        <ele>1925</ele>
        <time>2020-07-21T14:40:26Z</time>
      </trkpt>
      <trkpt lat="45.36293" lon="6.59395">
        <ele>1925</ele>
        <time>2020-07-21T14:40:34Z</time>
      </trkpt>
      <trkpt lat="45.36296" lon="6.59387">
        <ele>1925</ele>
        <time>2020-07-21T14:40:40Z</time>
      </trkpt>
      <trkpt lat="45.36298" lon="6.59378">
        <ele>1924</ele>
        <time>2020-07-21T14:40:46Z</time>
      </trkpt>
      <trkpt lat="45.363" lon="6.59369">
        <ele>1923</ele>
        <time>2020-07-21T14:40:52Z</time>
      </trkpt>
      <trkpt lat="45.36302" lon="6.5936">
        <ele>1922</ele>
        <time>2020-07-21T14:40:59Z</time>
      </trkpt>
      <trkpt lat="45.36305" lon="6.59351">
        <ele>1922</ele>
        <time>2020-07-21T14:41:07Z</time>
      </trkpt>
      <trkpt lat="45.36309" lon="6.59344">
        <ele>1923</ele>
        <time>2020-07-21T14:41:13Z</time>
      </trkpt>
      <trkpt lat="45.36311" lon="6.59335">
        <ele>1923</ele>
        <time>2020-07-21T14:41:19Z</time>
      </trkpt>
      <trkpt lat="45.36315" lon="6.59326">
        <ele>1914</ele>
        <time>2020-07-21T14:41:26Z</time>
      </trkpt>
      <trkpt lat="45.36319" lon="6.59317">
        <ele>1913</ele>
        <time>2020-07-21T14:41:34Z</time>
      </trkpt>
      <trkpt lat="45.36321" lon="6.59309">
        <ele>1911</ele>
        <time>2020-07-21T14:41:42Z</time>
      </trkpt>
      <trkpt lat="45.36324" lon="6.593">
        <ele>1909</ele>
        <time>2020-07-21T14:41:48Z</time>
      </trkpt>
      <trkpt lat="45.36326" lon="6.5929">
        <ele>1907</ele>
        <time>2020-07-21T14:41:54Z</time>
      </trkpt>
      <trkpt lat="45.36329" lon="6.59282">
        <ele>1906</ele>
        <time>2020-07-21T14:42:02Z</time>
      </trkpt>
      <trkpt lat="45.36331" lon="6.59271">
        <ele>1906</ele>
        <time>2020-07-21T14:42:10Z</time>
      </trkpt>
      <trkpt lat="45.36333" lon="6.59262">
        <ele>1906</ele>
        <time>2020-07-21T14:42:17Z</time>
      </trkpt>
      <trkpt lat="45.36337" lon="6.59253">
        <ele>1911</ele>
        <time>2020-07-21T14:42:24Z</time>
      </trkpt>
      <trkpt lat="45.36344" lon="6.59239">
        <ele>1905</ele>
        <time>2020-07-21T14:42:29Z</time>
      </trkpt>
      <trkpt lat="45.36349" lon="6.59233">
        <ele>1904</ele>
        <time>2020-07-21T14:42:38Z</time>
      </trkpt>
      <trkpt lat="45.36356" lon="6.59221">
        <ele>1903</ele>
        <time>2020-07-21T14:42:44Z</time>
      </trkpt>
      <trkpt lat="45.3636" lon="6.59212">
        <ele>1902</ele>
        <time>2020-07-21T14:42:49Z</time>
      </trkpt>
      <trkpt lat="45.36365" lon="6.59206">
        <ele>1901</ele>
        <time>2020-07-21T14:42:55Z</time>
      </trkpt>
      <trkpt lat="45.36371" lon="6.592">
        <ele>1900</ele>
        <time>2020-07-21T14:43:02Z</time>
      </trkpt>
      <trkpt lat="45.36376" lon="6.59193">
        <ele>1900</ele>
        <time>2020-07-21T14:43:10Z</time>
      </trkpt>
      <trkpt lat="45.36377" lon="6.59183">
        <ele>1898</ele>
        <time>2020-07-21T14:43:39Z</time>
      </trkpt>
      <trkpt lat="45.36382" lon="6.59176">
        <ele>1898</ele>
        <time>2020-07-21T14:45:53Z</time>
      </trkpt>
      <trkpt lat="45.36389" lon="6.59177">
        <ele>1899</ele>
        <time>2020-07-21T14:46:01Z</time>
      </trkpt>
      <trkpt lat="45.36398" lon="6.59187">
        <ele>1900</ele>
        <time>2020-07-21T14:46:06Z</time>
      </trkpt>
      <trkpt lat="45.36404" lon="6.59184">
        <ele>1899</ele>
        <time>2020-07-21T14:46:13Z</time>
      </trkpt>
      <trkpt lat="45.36411" lon="6.5918">
        <ele>1898</ele>
        <time>2020-07-21T14:46:19Z</time>
      </trkpt>
      <trkpt lat="45.36414" lon="6.59171">
        <ele>1896</ele>
        <time>2020-07-21T14:46:27Z</time>
      </trkpt>
      <trkpt lat="45.36418" lon="6.59163">
        <ele>1892</ele>
        <time>2020-07-21T14:46:33Z</time>
      </trkpt>
      <trkpt lat="45.36424" lon="6.59159">
        <ele>1890</ele>
        <time>2020-07-21T14:46:40Z</time>
      </trkpt>
      <trkpt lat="45.36429" lon="6.59154">
        <ele>1888</ele>
        <time>2020-07-21T14:46:45Z</time>
      </trkpt>
      <trkpt lat="45.36436" lon="6.5915">
        <ele>1887</ele>
        <time>2020-07-21T14:46:50Z</time>
      </trkpt>
      <trkpt lat="45.36441" lon="6.59143">
        <ele>1886</ele>
        <time>2020-07-21T14:46:56Z</time>
      </trkpt>
      <trkpt lat="45.36449" lon="6.59138">
        <ele>1885</ele>
        <time>2020-07-21T14:47:01Z</time>
      </trkpt>
      <trkpt lat="45.36457" lon="6.5914">
        <ele>1886</ele>
        <time>2020-07-21T14:47:08Z</time>
      </trkpt>
      <trkpt lat="45.36463" lon="6.59145">
        <ele>1887</ele>
        <time>2020-07-21T14:47:14Z</time>
      </trkpt>
      <trkpt lat="45.36469" lon="6.59154">
        <ele>1890</ele>
        <time>2020-07-21T14:47:21Z</time>
      </trkpt>
      <trkpt lat="45.36475" lon="6.59158">
        <ele>1892</ele>
        <time>2020-07-21T14:47:28Z</time>
      </trkpt>
      <trkpt lat="45.36481" lon="6.59164">
        <ele>1894</ele>
        <time>2020-07-21T14:47:37Z</time>
      </trkpt>
      <trkpt lat="45.36487" lon="6.59165">
        <ele>1897</ele>
        <time>2020-07-21T14:47:45Z</time>
      </trkpt>
      <trkpt lat="45.36494" lon="6.5916">
        <ele>1898</ele>
        <time>2020-07-21T14:47:53Z</time>
      </trkpt>
      <trkpt lat="45.36499" lon="6.59153">
        <ele>1896</ele>
        <time>2020-07-21T14:48:00Z</time>
      </trkpt>
      <trkpt lat="45.36507" lon="6.59145">
        <ele>1899</ele>
        <time>2020-07-21T14:48:05Z</time>
      </trkpt>
      <trkpt lat="45.36512" lon="6.59138">
        <ele>1898</ele>
        <time>2020-07-21T14:48:12Z</time>
      </trkpt>
      <trkpt lat="45.36517" lon="6.59131">
        <ele>1896</ele>
        <time>2020-07-21T14:48:18Z</time>
      </trkpt>
      <trkpt lat="45.36523" lon="6.59125">
        <ele>1895</ele>
        <time>2020-07-21T14:48:25Z</time>
      </trkpt>
      <trkpt lat="45.3653" lon="6.59123">
        <ele>1895</ele>
        <time>2020-07-21T14:48:31Z</time>
      </trkpt>
      <trkpt lat="45.36537" lon="6.59122">
        <ele>1896</ele>
        <time>2020-07-21T14:48:38Z</time>
      </trkpt>
      <trkpt lat="45.36544" lon="6.59121">
        <ele>1896</ele>
        <time>2020-07-21T14:48:44Z</time>
      </trkpt>
      <trkpt lat="45.36551" lon="6.59123">
        <ele>1897</ele>
        <time>2020-07-21T14:48:52Z</time>
      </trkpt>
      <trkpt lat="45.36557" lon="6.59121">
        <ele>1897</ele>
        <time>2020-07-21T14:48:58Z</time>
      </trkpt>
      <trkpt lat="45.36564" lon="6.59122">
        <ele>1897</ele>
        <time>2020-07-21T14:49:04Z</time>
      </trkpt>
      <trkpt lat="45.3657" lon="6.59122">
        <ele>1898</ele>
        <time>2020-07-21T14:49:22Z</time>
      </trkpt>
      <trkpt lat="45.36576" lon="6.59116">
        <ele>1896</ele>
        <time>2020-07-21T14:49:29Z</time>
      </trkpt>
      <trkpt lat="45.36581" lon="6.5911">
        <ele>1895</ele>
        <time>2020-07-21T14:49:35Z</time>
      </trkpt>
      <trkpt lat="45.36586" lon="6.59103">
        <ele>1900</ele>
        <time>2020-07-21T14:49:42Z</time>
      </trkpt>
      <trkpt lat="45.36591" lon="6.59096">
        <ele>1898</ele>
        <time>2020-07-21T14:49:48Z</time>
      </trkpt>
      <trkpt lat="45.36596" lon="6.59091">
        <ele>1897</ele>
        <time>2020-07-21T14:49:54Z</time>
      </trkpt>
      <trkpt lat="45.36602" lon="6.59085">
        <ele>1899</ele>
        <time>2020-07-21T14:50:01Z</time>
      </trkpt>
      <trkpt lat="45.3661" lon="6.59085">
        <ele>1901</ele>
        <time>2020-07-21T14:50:06Z</time>
      </trkpt>
      <trkpt lat="45.36615" lon="6.59077">
        <ele>1885</ele>
        <time>2020-07-21T14:50:13Z</time>
      </trkpt>
      <trkpt lat="45.3662" lon="6.59071">
        <ele>1885</ele>
        <time>2020-07-21T14:50:20Z</time>
      </trkpt>
      <trkpt lat="45.36625" lon="6.59065">
        <ele>1884</ele>
        <time>2020-07-21T14:50:31Z</time>
      </trkpt>
      <trkpt lat="45.36625" lon="6.59055">
        <ele>1883</ele>
        <time>2020-07-21T14:50:41Z</time>
      </trkpt>
      <trkpt lat="45.36627" lon="6.59046">
        <ele>1882</ele>
        <time>2020-07-21T14:52:10Z</time>
      </trkpt>
      <trkpt lat="45.36622" lon="6.59038">
        <ele>1881</ele>
        <time>2020-07-21T14:52:17Z</time>
      </trkpt>
      <trkpt lat="45.36625" lon="6.59047">
        <ele>1882</ele>
        <time>2020-07-21T14:53:21Z</time>
      </trkpt>
      <trkpt lat="45.36629" lon="6.59049">
        <ele>1883</ele>
        <time>2020-07-21T15:03:42Z</time>
      </trkpt>
      <trkpt lat="45.36635" lon="6.59041">
        <ele>1882</ele>
        <time>2020-07-21T15:04:13Z</time>
      </trkpt>
      <trkpt lat="45.36643" lon="6.59038">
        <ele>1881</ele>
        <time>2020-07-21T15:04:18Z</time>
      </trkpt>
      <trkpt lat="45.36649" lon="6.59036">
        <ele>1881</ele>
        <time>2020-07-21T15:04:26Z</time>
      </trkpt>
      <trkpt lat="45.36656" lon="6.5903">
        <ele>1880</ele>
        <time>2020-07-21T15:04:38Z</time>
      </trkpt>
      <trkpt lat="45.3666" lon="6.59023">
        <ele>1879</ele>
        <time>2020-07-21T15:04:49Z</time>
      </trkpt>
      <trkpt lat="45.36663" lon="6.59014">
        <ele>1877</ele>
        <time>2020-07-21T15:05:07Z</time>
      </trkpt>
      <trkpt lat="45.36668" lon="6.59008">
        <ele>1878</ele>
        <time>2020-07-21T15:05:13Z</time>
      </trkpt>
      <trkpt lat="45.36674" lon="6.59004">
        <ele>1879</ele>
        <time>2020-07-21T15:05:31Z</time>
      </trkpt>
      <trkpt lat="45.36679" lon="6.58998">
        <ele>1870</ele>
        <time>2020-07-21T15:05:37Z</time>
      </trkpt>
      <trkpt lat="45.36686" lon="6.58995">
        <ele>1869</ele>
        <time>2020-07-21T15:05:45Z</time>
      </trkpt>
      <trkpt lat="45.36693" lon="6.58995">
        <ele>1869</ele>
        <time>2020-07-21T15:05:52Z</time>
      </trkpt>
      <trkpt lat="45.367" lon="6.58998">
        <ele>1870</ele>
        <time>2020-07-21T15:05:58Z</time>
      </trkpt>
      <trkpt lat="45.36706" lon="6.59">
        <ele>1870</ele>
        <time>2020-07-21T15:06:04Z</time>
      </trkpt>
      <trkpt lat="45.36713" lon="6.58998">
        <ele>1871</ele>
        <time>2020-07-21T15:06:09Z</time>
      </trkpt>
      <trkpt lat="45.3672" lon="6.5899">
        <ele>1871</ele>
        <time>2020-07-21T15:06:14Z</time>
      </trkpt>
      <trkpt lat="45.36724" lon="6.58984">
        <ele>1871</ele>
        <time>2020-07-21T15:06:19Z</time>
      </trkpt>
      <trkpt lat="45.36731" lon="6.5898">
        <ele>1871</ele>
        <time>2020-07-21T15:06:24Z</time>
      </trkpt>
      <trkpt lat="45.36737" lon="6.58976">
        <ele>1871</ele>
        <time>2020-07-21T15:06:30Z</time>
      </trkpt>
      <trkpt lat="45.36743" lon="6.5897">
        <ele>1870</ele>
        <time>2020-07-21T15:06:37Z</time>
      </trkpt>
      <trkpt lat="45.36748" lon="6.58963">
        <ele>1868</ele>
        <time>2020-07-21T15:06:46Z</time>
      </trkpt>
      <trkpt lat="45.36754" lon="6.58957">
        <ele>1877</ele>
        <time>2020-07-21T15:06:51Z</time>
      </trkpt>
      <trkpt lat="45.36759" lon="6.5895">
        <ele>1875</ele>
        <time>2020-07-21T15:06:57Z</time>
      </trkpt>
      <trkpt lat="45.36764" lon="6.58941">
        <ele>1873</ele>
        <time>2020-07-21T15:07:04Z</time>
      </trkpt>
      <trkpt lat="45.36769" lon="6.58931">
        <ele>1871</ele>
        <time>2020-07-21T15:07:09Z</time>
      </trkpt>
      <trkpt lat="45.36776" lon="6.58928">
        <ele>1872</ele>
        <time>2020-07-21T15:07:15Z</time>
      </trkpt>
      <trkpt lat="45.36783" lon="6.58923">
        <ele>1873</ele>
        <time>2020-07-21T15:07:20Z</time>
      </trkpt>
      <trkpt lat="45.36788" lon="6.58918">
        <ele>1874</ele>
        <time>2020-07-21T15:07:26Z</time>
      </trkpt>
      <trkpt lat="45.36795" lon="6.58912">
        <ele>1854</ele>
        <time>2020-07-21T15:07:33Z</time>
      </trkpt>
      <trkpt lat="45.368" lon="6.58907">
        <ele>1855</ele>
        <time>2020-07-21T15:07:39Z</time>
      </trkpt>
      <trkpt lat="45.36808" lon="6.58907">
        <ele>1857</ele>
        <time>2020-07-21T15:07:45Z</time>
      </trkpt>
      <trkpt lat="45.36814" lon="6.58908">
        <ele>1859</ele>
        <time>2020-07-21T15:07:53Z</time>
      </trkpt>
      <trkpt lat="45.3682" lon="6.58912">
        <ele>1862</ele>
        <time>2020-07-21T15:07:59Z</time>
      </trkpt>
      <trkpt lat="45.36828" lon="6.58914">
        <ele>1867</ele>
        <time>2020-07-21T15:08:05Z</time>
      </trkpt>
      <trkpt lat="45.36835" lon="6.58913">
        <ele>1872</ele>
        <time>2020-07-21T15:08:11Z</time>
      </trkpt>
      <trkpt lat="45.3684" lon="6.58905">
        <ele>1871</ele>
        <time>2020-07-21T15:08:18Z</time>
      </trkpt>
      <trkpt lat="45.3684" lon="6.58896">
        <ele>1869</ele>
        <time>2020-07-21T15:08:23Z</time>
      </trkpt>
      <trkpt lat="45.36844" lon="6.58887">
        <ele>1867</ele>
        <time>2020-07-21T15:08:29Z</time>
      </trkpt>
      <trkpt lat="45.36844" lon="6.58876">
        <ele>1865</ele>
        <time>2020-07-21T15:08:35Z</time>
      </trkpt>
      <trkpt lat="45.36845" lon="6.58865">
        <ele>1861</ele>
        <time>2020-07-21T15:08:40Z</time>
      </trkpt>
      <trkpt lat="45.36845" lon="6.58854">
        <ele>1857</ele>
        <time>2020-07-21T15:08:45Z</time>
      </trkpt>
      <trkpt lat="45.36852" lon="6.58848">
        <ele>1856</ele>
        <time>2020-07-21T15:08:50Z</time>
      </trkpt>
      <trkpt lat="45.36859" lon="6.5885">
        <ele>1859</ele>
        <time>2020-07-21T15:08:56Z</time>
      </trkpt>
      <trkpt lat="45.36866" lon="6.58847">
        <ele>1861</ele>
        <time>2020-07-21T15:09:02Z</time>
      </trkpt>
      <trkpt lat="45.3687" lon="6.5884">
        <ele>1861</ele>
        <time>2020-07-21T15:09:07Z</time>
      </trkpt>
      <trkpt lat="45.36877" lon="6.58838">
        <ele>1862</ele>
        <time>2020-07-21T15:09:18Z</time>
      </trkpt>
      <trkpt lat="45.36883" lon="6.58833">
        <ele>1841</ele>
        <time>2020-07-21T15:09:24Z</time>
      </trkpt>
      <trkpt lat="45.36889" lon="6.58829">
        <ele>1843</ele>
        <time>2020-07-21T15:09:31Z</time>
      </trkpt>
      <trkpt lat="45.36893" lon="6.58821">
        <ele>1843</ele>
        <time>2020-07-21T15:09:36Z</time>
      </trkpt>
      <trkpt lat="45.36898" lon="6.58814">
        <ele>1843</ele>
        <time>2020-07-21T15:09:48Z</time>
      </trkpt>
      <trkpt lat="45.36904" lon="6.58809">
        <ele>1842</ele>
        <time>2020-07-21T15:09:57Z</time>
      </trkpt>
      <trkpt lat="45.36907" lon="6.588">
        <ele>1839</ele>
        <time>2020-07-21T15:10:04Z</time>
      </trkpt>
      <trkpt lat="45.36913" lon="6.58796">
        <ele>1838</ele>
        <time>2020-07-21T15:10:13Z</time>
      </trkpt>
      <trkpt lat="45.3692" lon="6.58792">
        <ele>1853</ele>
        <time>2020-07-21T15:10:18Z</time>
      </trkpt>
      <trkpt lat="45.36926" lon="6.58787">
        <ele>1851</ele>
        <time>2020-07-21T15:10:23Z</time>
      </trkpt>
      <trkpt lat="45.36932" lon="6.58782">
        <ele>1850</ele>
        <time>2020-07-21T15:10:29Z</time>
      </trkpt>
      <trkpt lat="45.36938" lon="6.58775">
        <ele>1849</ele>
        <time>2020-07-21T15:10:36Z</time>
      </trkpt>
      <trkpt lat="45.36932" lon="6.58769">
        <ele>1846</ele>
        <time>2020-07-21T15:10:44Z</time>
      </trkpt>
      <trkpt lat="45.36924" lon="6.58767">
        <ele>1842</ele>
        <time>2020-07-21T15:10:49Z</time>
      </trkpt>
      <trkpt lat="45.36915" lon="6.58765">
        <ele>1830</ele>
        <time>2020-07-21T15:10:54Z</time>
      </trkpt>
      <trkpt lat="45.36908" lon="6.58762">
        <ele>1829</ele>
        <time>2020-07-21T15:11:00Z</time>
      </trkpt>
      <trkpt lat="45.369" lon="6.58764">
        <ele>1830</ele>
        <time>2020-07-21T15:11:06Z</time>
      </trkpt>
      <trkpt lat="45.36893" lon="6.58767">
        <ele>1830</ele>
        <time>2020-07-21T15:11:12Z</time>
      </trkpt>
      <trkpt lat="45.36887" lon="6.58763">
        <ele>1829</ele>
        <time>2020-07-21T15:11:19Z</time>
      </trkpt>
      <trkpt lat="45.36892" lon="6.58755">
        <ele>1828</ele>
        <time>2020-07-21T15:11:24Z</time>
      </trkpt>
      <trkpt lat="45.36899" lon="6.5875">
        <ele>1828</ele>
        <time>2020-07-21T15:11:29Z</time>
      </trkpt>
      <trkpt lat="45.36903" lon="6.58742">
        <ele>1812</ele>
        <time>2020-07-21T15:11:37Z</time>
      </trkpt>
      <trkpt lat="45.36909" lon="6.58736">
        <ele>1812</ele>
        <time>2020-07-21T15:11:46Z</time>
      </trkpt>
      <trkpt lat="45.36914" lon="6.58731">
        <ele>1810</ele>
        <time>2020-07-21T15:11:53Z</time>
      </trkpt>
      <trkpt lat="45.3692" lon="6.58727">
        <ele>1822</ele>
        <time>2020-07-21T15:12:00Z</time>
      </trkpt>
      <trkpt lat="45.36924" lon="6.58719">
        <ele>1820</ele>
        <time>2020-07-21T15:12:07Z</time>
      </trkpt>
      <trkpt lat="45.36925" lon="6.58708">
        <ele>1817</ele>
        <time>2020-07-21T15:12:15Z</time>
      </trkpt>
      <trkpt lat="45.36929" lon="6.58701">
        <ele>1815</ele>
        <time>2020-07-21T15:12:22Z</time>
      </trkpt>
      <trkpt lat="45.36936" lon="6.58696">
        <ele>1815</ele>
        <time>2020-07-21T15:12:29Z</time>
      </trkpt>
      <trkpt lat="45.36941" lon="6.58691">
        <ele>1814</ele>
        <time>2020-07-21T15:12:35Z</time>
      </trkpt>
      <trkpt lat="45.36946" lon="6.58684">
        <ele>1814</ele>
        <time>2020-07-21T15:12:42Z</time>
      </trkpt>
      <trkpt lat="45.3695" lon="6.58676">
        <ele>1814</ele>
        <time>2020-07-21T15:12:48Z</time>
      </trkpt>
      <trkpt lat="45.36954" lon="6.58668">
        <ele>1814</ele>
        <time>2020-07-21T15:12:54Z</time>
      </trkpt>
      <trkpt lat="45.36958" lon="6.58659">
        <ele>1790</ele>
        <time>2020-07-21T15:13:01Z</time>
      </trkpt>
      <trkpt lat="45.36963" lon="6.5865">
        <ele>1789</ele>
        <time>2020-07-21T15:13:06Z</time>
      </trkpt>
      <trkpt lat="45.36968" lon="6.58643">
        <ele>1789</ele>
        <time>2020-07-21T15:13:12Z</time>
      </trkpt>
      <trkpt lat="45.36974" lon="6.58642">
        <ele>1790</ele>
        <time>2020-07-21T15:13:20Z</time>
      </trkpt>
      <trkpt lat="45.36982" lon="6.58639">
        <ele>1790</ele>
        <time>2020-07-21T15:13:28Z</time>
      </trkpt>
      <trkpt lat="45.36988" lon="6.58633">
        <ele>1789</ele>
        <time>2020-07-21T15:13:34Z</time>
      </trkpt>
      <trkpt lat="45.36994" lon="6.58628">
        <ele>1788</ele>
        <time>2020-07-21T15:13:44Z</time>
      </trkpt>
      <trkpt lat="45.37001" lon="6.58625">
        <ele>1797</ele>
        <time>2020-07-21T15:13:52Z</time>
      </trkpt>
      <trkpt lat="45.37007" lon="6.5862">
        <ele>1796</ele>
        <time>2020-07-21T15:13:59Z</time>
      </trkpt>
      <trkpt lat="45.37013" lon="6.58613">
        <ele>1793</ele>
        <time>2020-07-21T15:14:07Z</time>
      </trkpt>
      <trkpt lat="45.37019" lon="6.58609">
        <ele>1793</ele>
        <time>2020-07-21T15:14:14Z</time>
      </trkpt>
      <trkpt lat="45.37024" lon="6.58604">
        <ele>1792</ele>
        <time>2020-07-21T15:14:22Z</time>
      </trkpt>
      <trkpt lat="45.37029" lon="6.58596">
        <ele>1791</ele>
        <time>2020-07-21T15:14:29Z</time>
      </trkpt>
      <trkpt lat="45.37033" lon="6.58589">
        <ele>1791</ele>
        <time>2020-07-21T15:14:34Z</time>
      </trkpt>
      <trkpt lat="45.37038" lon="6.58583">
        <ele>1769</ele>
        <time>2020-07-21T15:14:40Z</time>
      </trkpt>
      <trkpt lat="45.37043" lon="6.58577">
        <ele>1769</ele>
        <time>2020-07-21T15:14:47Z</time>
      </trkpt>
      <trkpt lat="45.3705" lon="6.58573">
        <ele>1769</ele>
        <time>2020-07-21T15:15:23Z</time>
      </trkpt>
      <trkpt lat="45.37052" lon="6.58563">
        <ele>1768</ele>
        <time>2020-07-21T15:15:30Z</time>
      </trkpt>
      <trkpt lat="45.37052" lon="6.58552">
        <ele>1766</ele>
        <time>2020-07-21T15:15:35Z</time>
      </trkpt>
      <trkpt lat="45.37057" lon="6.58541">
        <ele>1764</ele>
        <time>2020-07-21T15:15:40Z</time>
      </trkpt>
      <trkpt lat="45.37062" lon="6.58535">
        <ele>1763</ele>
        <time>2020-07-21T15:15:45Z</time>
      </trkpt>
      <trkpt lat="45.37068" lon="6.5853">
        <ele>1762</ele>
        <time>2020-07-21T15:15:51Z</time>
      </trkpt>
      <trkpt lat="45.37074" lon="6.58524">
        <ele>1760</ele>
        <time>2020-07-21T15:16:00Z</time>
      </trkpt>
      <trkpt lat="45.37081" lon="6.58524">
        <ele>1760</ele>
        <time>2020-07-21T15:16:07Z</time>
      </trkpt>
      <trkpt lat="45.37089" lon="6.58524">
        <ele>1768</ele>
        <time>2020-07-21T15:16:14Z</time>
      </trkpt>
      <trkpt lat="45.37096" lon="6.58522">
        <ele>1768</ele>
        <time>2020-07-21T15:16:26Z</time>
      </trkpt>
      <trkpt lat="45.37102" lon="6.58519">
        <ele>1768</ele>
        <time>2020-07-21T15:16:34Z</time>
      </trkpt>
      <trkpt lat="45.37108" lon="6.58514">
        <ele>1769</ele>
        <time>2020-07-21T15:16:42Z</time>
      </trkpt>
      <trkpt lat="45.37114" lon="6.58512">
        <ele>1770</ele>
        <time>2020-07-21T15:16:48Z</time>
      </trkpt>
      <trkpt lat="45.37121" lon="6.58508">
        <ele>1770</ele>
        <time>2020-07-21T15:16:53Z</time>
      </trkpt>
      <trkpt lat="45.37124" lon="6.58499">
        <ele>1755</ele>
        <time>2020-07-21T15:16:58Z</time>
      </trkpt>
      <trkpt lat="45.37129" lon="6.58491">
        <ele>1756</ele>
        <time>2020-07-21T15:17:04Z</time>
      </trkpt>
      <trkpt lat="45.37133" lon="6.58482">
        <ele>1756</ele>
        <time>2020-07-21T15:17:10Z</time>
      </trkpt>
      <trkpt lat="45.37137" lon="6.58474">
        <ele>1755</ele>
        <time>2020-07-21T15:17:17Z</time>
      </trkpt>
      <trkpt lat="45.37142" lon="6.58467">
        <ele>1755</ele>
        <time>2020-07-21T15:17:24Z</time>
      </trkpt>
      <trkpt lat="45.37147" lon="6.58459">
        <ele>1754</ele>
        <time>2020-07-21T15:17:29Z</time>
      </trkpt>
      <trkpt lat="45.37152" lon="6.58452">
        <ele>1754</ele>
        <time>2020-07-21T15:17:35Z</time>
      </trkpt>
      <trkpt lat="45.37155" lon="6.58444">
        <ele>1753</ele>
        <time>2020-07-21T15:17:40Z</time>
      </trkpt>
      <trkpt lat="45.37158" lon="6.58435">
        <ele>1753</ele>
        <time>2020-07-21T15:17:46Z</time>
      </trkpt>
      <trkpt lat="45.37163" lon="6.5843">
        <ele>1753</ele>
        <time>2020-07-21T15:17:53Z</time>
      </trkpt>
      <trkpt lat="45.37168" lon="6.58423">
        <ele>1756</ele>
        <time>2020-07-21T15:18:00Z</time>
      </trkpt>
      <trkpt lat="45.37173" lon="6.58414">
        <ele>1753</ele>
        <time>2020-07-21T15:18:06Z</time>
      </trkpt>
      <trkpt lat="45.37174" lon="6.58405">
        <ele>1751</ele>
        <time>2020-07-21T15:18:11Z</time>
      </trkpt>
      <trkpt lat="45.37176" lon="6.58395">
        <ele>1750</ele>
        <time>2020-07-21T15:18:17Z</time>
      </trkpt>
      <trkpt lat="45.3718" lon="6.58386">
        <ele>1749</ele>
        <time>2020-07-21T15:18:24Z</time>
      </trkpt>
      <trkpt lat="45.37183" lon="6.58378">
        <ele>1748</ele>
        <time>2020-07-21T15:18:31Z</time>
      </trkpt>
      <trkpt lat="45.37185" lon="6.58367">
        <ele>1747</ele>
        <time>2020-07-21T15:18:37Z</time>
      </trkpt>
      <trkpt lat="45.37191" lon="6.58361">
        <ele>1746</ele>
        <time>2020-07-21T15:18:44Z</time>
      </trkpt>
      <trkpt lat="45.37195" lon="6.58353">
        <ele>1746</ele>
        <time>2020-07-21T15:18:51Z</time>
      </trkpt>
      <trkpt lat="45.3719" lon="6.58343">
        <ele>1745</ele>
        <time>2020-07-21T15:19:00Z</time>
      </trkpt>
      <trkpt lat="45.37188" lon="6.58333">
        <ele>1734</ele>
        <time>2020-07-21T15:20:22Z</time>
      </trkpt>
      <trkpt lat="45.37183" lon="6.58328">
        <ele>1735</ele>
        <time>2020-07-21T15:20:35Z</time>
      </trkpt>
      <trkpt lat="45.37178" lon="6.58319">
        <ele>1734</ele>
        <time>2020-07-21T15:20:41Z</time>
      </trkpt>
      <trkpt lat="45.37172" lon="6.58313">
        <ele>1733</ele>
        <time>2020-07-21T15:20:46Z</time>
      </trkpt>
      <trkpt lat="45.37166" lon="6.58315">
        <ele>1728</ele>
        <time>2020-07-21T15:20:51Z</time>
      </trkpt>
      <trkpt lat="45.37159" lon="6.58317">
        <ele>1728</ele>
        <time>2020-07-21T15:20:57Z</time>
      </trkpt>
      <trkpt lat="45.37153" lon="6.58319">
        <ele>1727</ele>
        <time>2020-07-21T15:21:03Z</time>
      </trkpt>
      <trkpt lat="45.37145" lon="6.5832">
        <ele>1725</ele>
        <time>2020-07-21T15:21:10Z</time>
      </trkpt>
      <trkpt lat="45.37138" lon="6.5832">
        <ele>1722</ele>
        <time>2020-07-21T15:21:16Z</time>
      </trkpt>
      <trkpt lat="45.37132" lon="6.58324">
        <ele>1721</ele>
        <time>2020-07-21T15:21:23Z</time>
      </trkpt>
      <trkpt lat="45.37136" lon="6.58332">
        <ele>1723</ele>
        <time>2020-07-21T15:22:00Z</time>
      </trkpt>
      <trkpt lat="45.37135" lon="6.58341">
        <ele>1734</ele>
        <time>2020-07-21T15:22:07Z</time>
      </trkpt>
      <trkpt lat="45.37132" lon="6.58352">
        <ele>1734</ele>
        <time>2020-07-21T15:22:15Z</time>
      </trkpt>
      <trkpt lat="45.37128" lon="6.58361">
        <ele>1734</ele>
        <time>2020-07-21T15:22:21Z</time>
      </trkpt>
      <trkpt lat="45.37128" lon="6.5837">
        <ele>1734</ele>
        <time>2020-07-21T15:22:26Z</time>
      </trkpt>
      <trkpt lat="45.37122" lon="6.58363">
        <ele>1733</ele>
        <time>2020-07-21T15:23:00Z</time>
      </trkpt>
      <trkpt lat="45.37117" lon="6.58356">
        <ele>1731</ele>
        <time>2020-07-21T15:23:05Z</time>
      </trkpt>
      <trkpt lat="45.37123" lon="6.58363">
        <ele>1733</ele>
        <time>2020-07-21T15:23:19Z</time>
      </trkpt>
      <trkpt lat="45.37112" lon="6.58356">
        <ele>1730</ele>
        <time>2020-07-21T15:23:43Z</time>
      </trkpt>
      <trkpt lat="45.37106" lon="6.58348">
        <ele>1728</ele>
        <time>2020-07-21T15:23:48Z</time>
      </trkpt>
      <trkpt lat="45.37095" lon="6.58334">
        <ele>1721</ele>
        <time>2020-07-21T15:23:53Z</time>
      </trkpt>
      <trkpt lat="45.37081" lon="6.58323">
        <ele>1707</ele>
        <time>2020-07-21T15:24:09Z</time>
      </trkpt>
      <trkpt lat="45.37066" lon="6.58308">
        <ele>1701</ele>
        <time>2020-07-21T15:24:14Z</time>
      </trkpt>
      <trkpt lat="45.3705" lon="6.58294">
        <ele>1698</ele>
        <time>2020-07-21T15:24:21Z</time>
      </trkpt>
      <trkpt lat="45.37044" lon="6.58289">
        <ele>1697</ele>
        <time>2020-07-21T15:24:34Z</time>
      </trkpt>
      <trkpt lat="45.37036" lon="6.58274">
        <ele>1695</ele>
        <time>2020-07-21T15:24:52Z</time>
      </trkpt>
      <trkpt lat="45.3702" lon="6.58267">
        <ele>1693</ele>
        <time>2020-07-21T15:24:57Z</time>
      </trkpt>
      <trkpt lat="45.37018" lon="6.58276">
        <ele>1694</ele>
        <time>2020-07-21T15:25:02Z</time>
      </trkpt>
      <trkpt lat="45.37013" lon="6.58282">
        <ele>1694</ele>
        <time>2020-07-21T15:25:09Z</time>
      </trkpt>
      <trkpt lat="45.37008" lon="6.5829">
        <ele>1694</ele>
        <time>2020-07-21T15:25:26Z</time>
      </trkpt>
      <trkpt lat="45.37003" lon="6.58297">
        <ele>1694</ele>
        <time>2020-07-21T15:25:36Z</time>
      </trkpt>
      <trkpt lat="45.36998" lon="6.58305">
        <ele>1689</ele>
        <time>2020-07-21T15:25:43Z</time>
      </trkpt>
      <trkpt lat="45.3699" lon="6.58313">
        <ele>1689</ele>
        <time>2020-07-21T15:25:48Z</time>
      </trkpt>
      <trkpt lat="45.36985" lon="6.58318">
        <ele>1689</ele>
        <time>2020-07-21T15:25:55Z</time>
      </trkpt>
    </trkseg>
  </trk>
</gpx>